[[{"header":{"parameterUnit":"m.s-1","parameterCategory":1,"la1":31.0,"la2":29.5877,"lo1":-88.7671,"lo2":-86.6584,"dy":0.0162,"dx":0.0185,"nx":115,"ny":88,"refTime":"2024-02-02T18:00:00:Z","depth":0,"parameterNumber":2,"parameterNumberName":"U-component_of_WINDS"},"data":[0.0,0.0,0.0,0.0,0.0,0.0,0.0,0.0,0.0,0.0,0.0,0.0,0.0,0.0,0.0,0.0,0.0,0.0,0.0,0.0,0.0,0.0,0.0,0.0,0.0,0.0,0.0,0.0,0.0,0.0,0.0,0.0,0.0,0.0,0.0,0.0,0.0,0.0,0.0,0.0,0.0,0.0,0.0,0.0,0.0,0.0,0.0,0.0,0.0,0.0,0.0,0.0,0.0,0.0,0.0,0.0,0.0,0.0,0.0,0.0,0.0,0.0,0.0,0.0,0.0,0.0,0.0,0.0,0.0,0.0,0.0,0.0,0.0,0.0,0.0,0.0,0.0,0.0,0.0,0.0,0.0,0.0,0.0,0.0,0.0,0.0,0.0,0.0,0.0,0.0,0.0,0.0,0.0,0.0,0.0,0.0,0.0,0.0,0.0,0.0,0.0,0.0,0.0,0.0,0.0,0.0,0.0,0.0,0.0,0.0,0.0,0.0,0.0,0.0,0.0,0.0,0.0,0.0,0.0,0.0,0.0,0.0,0.0,0.0,0.0,0.0,0.0,0.0,0.0,0.0,0.0,0.0,0.0,0.0,0.0,0.0,0.0,0.0,0.0,0.0,0.0,0.0,0.0,0.0,0.0,0.0,0.0,0.0,0.0,0.0,0.0,0.0,0.0,0.0,0.0,0.0,0.0,0.0,0.0,0.0,0.0,0.0,0.0,0.0,0.0,0.0,0.0,0.0,0.0,0.0,0.0,0.0,0.0,0.0,0.0,0.0,0.0,0.0,0.0,0.0,0.0,0.0,0.0,0.0,0.0,0.0,0.0,0.0,0.0,0.0,0.0,0.0,0.0,0.0,0.0,0.0,0.0,0.0,0.0,0.0,0.0,0.0,0.0,0.0,0.0,0.0,0.0,0.0,0.0,0.0,0.0,0.0,0.0,0.0,0.0,0.0,0.0,0.0,0.0,0.0,0.0,0.0,0.0,0.0,0.0,0.0,0.0,0.0,0.0,0.0,0.0,0.0,0.0,0.0,0.0,0.0,0.0,0.0,0.0,0.0,0.0,0.0,0.0,0.0,0.0,0.0,0.0,0.0,0.0,0.0,0.0,0.0,0.0,0.0,0.0,0.0,0.0,0.0,0.0,0.0,0.0,0.0,0.0,0.0,0.0,0.0,0.0,0.0,0.0,0.0,0.0,0.0,0.0,0.0,0.0,0.0,0.0,0.0,0.0,0.0,0.0,0.0,0.0,0.0,0.0,0.0,0.0,0.0,0.0,0.0,0.0,0.0,0.0,0.0,0.0,0.0,0.0,0.0,0.0,0.0,0.0,0.0,0.0,0.0,0.0,0.0,0.0,0.0,0.0,0.0,0.0,0.0,0.0,0.0,0.0,0.0,0.0,0.0,0.0,0.0,0.0,0.0,0.0,0.0,0.0,0.0,0.0,0.0,0.0,0.0,0.0,0.0,0.0,0.0,0.0,0.0,0.0,0.0,0.0,0.0,0.0,0.0,0.0,0.0,0.0,0.0,0.0,0.0,0.0,0.0,0.0,0.0,0.0,0.0,0.0,0.0,0.0,0.0,0.0,0.0,0.0,0.0,0.0,0.0,0.0,0.0,0.0,0.0,0.0,0.0,0.0,0.0,0.0,0.0,0.0,0.0,0.0,0.0,0.0,0.0,0.0,0.0,0.0,0.0,0.0,0.0,0.0,0.0,0.0,0.0,0.0,0.0,0.0,0.0,0.0,0.0,0.0,0.0,0.0,0.0,0.0,0.0,0.0,0.0,0.0,0.0,0.0,0.0,0.0,0.0,0.0,0.0,0.0,0.0,0.0,0.0,0.0,0.0,0.0,0.0,0.0,0.0,0.0,0.0,0.0,0.0,0.0,0.0,0.0,0.0,0.0,0.0,0.0,0.0,0.0,0.0,0.0,0.0,0.0,0.0,0.0,0.0,0.0,0.0,0.0,0.0,0.0,0.0,0.0,0.0,0.0,0.0,0.0,0.0,0.0,0.0,0.0,0.0,0.0,0.0,0.0,0.0,0.0,0.0,0.0,0.0,0.0,0.0,0.0,0.0,0.0,0.0,0.0,0.0,0.0,0.0,0.0,0.0,0.0,0.0,0.0,0.0,0.0,0.0,0.0,0.0,0.0,0.0,0.0,0.0,0.0,0.0,0.0,0.0,0.0,0.0,0.0,0.0,0.0,0.0,0.0,0.0,0.0,0.0,0.0,0.0,0.0,0.0,0.0,0.0,0.0,0.0,0.0,0.0,0.0,0.0,0.0,0.0,0.0,0.0,0.0,0.0,0.0,0.0,0.0,0.0,0.0,0.0,0.0,0.0,0.0,0.0,0.0,0.0,0.0,0.0,0.0,0.0,0.0,0.0,0.0,0.0,0.0,0.0,0.0,0.0,0.0,0.0,0.0,0.0,0.0,0.0,0.0,0.0,0.0,0.0,0.0,0.0,0.0,0.0,0.0,0.0,0.0,0.0,0.0,0.0,0.0,0.0,0.0,0.0,0.0,0.0,0.0,0.0,0.0,0.0,0.0,0.0,0.0,0.0,0.0,0.0,0.0,0.0,0.0,0.0,0.0,0.0,0.0,0.0,0.0,0.0,0.0,0.0,0.0,0.0,0.0,0.0,0.0,0.0,0.0,0.0,0.0,0.0,0.0,0.0,0.0,0.0,0.0,0.0,0.0,0.0,0.0,0.0,0.0,0.0,0.0,0.0,0.0,0.0,0.0,0.0,0.0,0.0,0.0,0.0,0.0,0.0,0.0,0.0,0.0,0.0,0.0,0.0,0.0,0.0,0.0,0.0,0.0,0.0,0.0,0.0,0.0,0.0,0.0,0.0,0.0,0.0,0.0,0.0,0.0,0.0,0.0,0.0,0.0,0.0,0.0,0.0,0.0,0.0,0.0,0.0,0.0,0.0,0.0,0.0,0.0,0.0,0.0,0.0,0.0,0.0,0.0,0.0,0.0,0.0,0.0,0.0,0.0,0.0,0.0,0.0,0.0,0.0,0.0,0.0,0.0,0.0,0.0,0.0,0.0,0.0,0.0,0.0,0.0,0.0,0.0,0.0,0.0,0.0,0.0,0.0,0.0,0.0,0.0,0.0,0.0,0.0,0.0,0.0,0.0,0.0,0.0,0.0,0.0,0.0,0.0,0.0,0.0,0.0,0.0,0.0,0.0,0.0,0.0,0.0,0.0,0.0,0.0,0.0,0.0,0.0,0.0,0.0,0.0,0.0,0.0,0.0,0.0,0.0,0.0,0.0,0.0,0.0,0.0,0.0,0.0,0.0,0.0,0.0,0.0,0.0,0.0,0.0,0.0,0.0,0.0,0.0,0.0,0.0,0.0,0.0,0.0,0.0,0.0,0.0,0.0,0.0,0.0,0.0,0.0,0.0,0.0,0.0,0.0,0.0,0.0,0.0,0.0,0.0,0.0,0.0,0.0,0.0,0.0,0.0,0.0,0.0,0.0,0.0,0.0,0.0,0.0,0.0,0.0,0.0,0.0,0.0,0.0,0.0,0.0,0.0,0.0,0.0,0.0,0.0,0.0,0.0,0.0,0.0,0.0,0.0,0.0,0.0,0.0,0.0,0.0,0.0,0.0,0.0,0.0,0.0,0.0,0.0,0.0,0.0,0.0,0.0,0.0,0.0,0.0,0.0,0.0,0.0,0.0,0.0,0.0,0.0,0.0,0.0,0.0,0.0,0.0,0.0,0.0,0.0,0.0,0.0,0.0,0.0,0.0,0.0,0.0,0.0,0.0,0.0,0.0,0.0,0.0,0.0,0.0,0.0,0.0,0.0,0.0,0.0,0.0,0.0,0.0,0.0,0.0,0.0,0.0,0.0,0.0,0.0,0.0,0.0,0.0,0.0,0.0,0.0,0.0,0.0,0.0,0.0,0.0,0.0,0.0,0.0,0.0,0.0,0.0,0.0,0.0,0.0,0.0,0.0,0.0,0.0,0.0,0.0,0.0,0.0,0.0,0.0,0.0,0.0,0.0,0.0,0.0,0.0,0.0,0.0,0.0,0.0,0.0,0.0,0.0,0.0,0.0,0.0,0.0,0.0,0.0,0.0,0.0,0.0,0.0,0.0,0.0,0.0,0.0,0.0,0.0,0.0,0.0,0.0,0.0,0.0,0.0,0.0,0.0,0.0,0.0,0.0,0.0,0.0,0.0,0.0,0.0,0.0,0.0,0.0,0.0,0.0,0.0,0.0,0.0,0.0,0.0,0.0,0.0,0.0,0.0,0.0,0.9828,0.0,0.0,0.0,0.0,0.0,0.0,0.0,0.0,0.0,0.0,0.0,0.0,0.0,0.0,0.0,0.0,0.0,0.0,0.0,0.0,0.0,0.0,0.0,0.0,0.0,0.0,0.0,0.0,0.0,0.0,0.0,0.0,0.0,0.0,0.0,0.0,0.0,0.0,0.0,0.0,0.0,0.0,0.0,0.0,0.0,0.0,0.0,0.0,0.0,0.0,0.0,0.0,0.0,0.0,0.0,0.0,0.0,0.0,0.0,0.0,0.0,0.0,0.0,0.0,0.0,0.0,0.0,0.0,0.0,0.0,0.0,0.0,0.0,0.0,0.0,0.0,0.0,0.0,0.0,0.0,0.0,0.0,0.0,0.0,0.0,0.0,0.0,0.0,0.0,0.0,0.0,0.0,0.0,0.0,0.0,0.0,0.0,0.0,0.0,0.0,0.0,0.0,0.0,0.0,0.0,0.0,0.0,0.0,0.0,0.0,1.0593,1.0635,1.0801,1.0877,1.0876,0.0,0.0,0.0,0.0,0.0,0.0,0.0,0.0,0.0,0.0,0.0,0.0,0.0,0.0,0.0,0.0,0.0,0.0,0.0,0.0,0.0,0.0,0.0,0.0,0.0,0.0,0.0,0.0,0.0,0.0,0.0,0.0,0.0,0.0,0.0,0.0,0.0,0.0,0.0,0.0,0.0,0.0,0.0,0.0,0.0,0.0,0.0,0.0,0.0,0.0,0.0,0.0,0.0,0.0,0.0,0.0,0.0,0.0,0.0,0.0,0.0,0.0,0.0,0.0,0.0,0.0,0.0,0.0,0.0,0.0,0.0,0.0,0.0,0.0,0.0,0.0,0.0,0.0,0.0,0.0,0.0,0.0,0.0,0.0,0.0,0.0,0.0,0.0,0.0,0.0,0.0,0.0,0.0,0.0,0.0,0.0,0.0,0.0,0.0,0.0,0.0,0.0,0.0,0.0,0.0,0.0,0.0,0.0,0.0,0.0,0.0,0.0,1.1878,1.1916,1.1876,0.0,0.0,0.0,0.0,0.0,0.0,0.0,0.0,0.0,0.0,0.0,0.0,0.0,0.0,0.0,0.0,0.0,0.0,0.0,0.0,0.0,0.0,0.0,0.0,0.0,0.0,0.0,0.0,0.0,0.0,0.0,0.0,0.0,0.0,0.0,0.0,0.0,0.0,0.0,0.0,0.0,0.0,0.0,0.0,0.0,0.0,0.0,0.0,0.0,0.0,0.0,0.0,0.0,0.0,0.0,0.0,0.0,0.0,0.0,0.0,0.0,0.0,0.0,0.0,0.0,0.0,0.0,0.0,0.0,0.0,0.0,0.0,0.0,0.0,0.0,0.0,0.0,0.0,0.0,0.0,0.0,0.0,0.0,0.0,0.0,0.0,0.0,0.0,0.0,0.0,0.0,0.0,0.0,0.0,0.0,0.0,0.0,0.0,0.0,0.0,0.0,0.0,0.0,0.0,0.0,0.0,0.0,0.0,0.0,0.0,1.2254,1.2414,1.2318,0.0,1.2742,0.0,0.0,0.0,0.0,0.0,0.0,0.0,0.0,0.0,0.0,0.0,0.0,0.0,0.0,0.0,0.0,0.0,0.0,0.0,0.0,0.0,0.0,0.0,0.0,0.0,0.0,0.0,0.0,0.0,0.0,0.0,0.0,0.0,0.0,0.0,0.0,0.0,0.0,0.0,0.0,0.0,0.0,0.0,0.0,0.0,0.0,0.0,0.0,0.0,0.0,0.0,0.0,0.0,0.0,0.0,0.0,0.0,0.0,0.0,0.0,0.0,0.0,0.0,0.0,0.0,0.0,0.0,0.0,0.0,0.0,0.0,0.0,0.0,0.0,0.0,0.0,0.0,0.0,0.0,0.0,0.0,0.0,0.0,0.0,0.0,0.0,0.0,0.0,0.0,0.0,0.0,0.0,0.0,0.0,0.0,0.0,0.0,0.0,0.0,0.0,0.0,0.0,0.0,0.0,0.0,0.0,0.0,0.0,0.0,0.0,1.3119,1.3276,1.323,1.3225,0.0,0.0,0.0,0.0,0.0,0.0,0.0,0.0,0.0,0.0,0.0,0.0,0.0,0.0,0.0,0.0,0.0,0.0,0.0,0.0,0.0,0.0,0.0,0.0,0.0,0.0,0.0,0.0,0.0,0.0,0.0,0.0,0.0,0.0,0.0,0.0,0.0,0.0,0.0,0.0,0.0,0.0,0.0,0.0,0.0,0.0,0.0,0.0,0.0,0.0,0.0,0.0,0.0,0.0,0.0,0.0,0.0,0.0,0.0,0.0,0.0,0.0,0.0,0.0,0.0,0.0,0.0,0.0,0.0,0.0,0.0,0.0,0.0,0.0,0.0,0.0,0.0,0.0,0.0,0.0,0.0,0.0,0.0,0.0,0.0,0.0,0.0,0.0,0.0,0.0,0.0,0.0,0.0,0.0,0.0,0.0,0.0,0.0,0.0,0.0,0.0,0.0,0.0,0.0,0.0,0.0,0.0,0.0,0.0,0.0,1.3502,1.3692,1.3787,1.3751,1.3692,1.3621,0.0,0.0,0.0,0.0,0.0,0.0,0.0,0.0,0.0,0.0,0.0,0.0,0.0,0.0,0.0,0.0,0.0,0.0,0.0,0.0,0.0,0.0,0.0,0.0,0.0,0.0,0.0,0.0,0.0,0.0,0.0,0.0,0.0,0.0,0.0,0.0,0.0,0.0,0.0,0.0,0.0,0.0,0.0,0.0,0.0,0.0,0.0,0.0,0.0,0.0,0.0,0.0,0.0,0.0,0.0,0.0,0.0,0.0,0.0,0.0,0.0,0.0,0.0,0.0,0.0,0.0,0.0,0.0,0.0,0.0,0.0,0.0,0.0,0.0,0.0,0.0,0.0,0.0,0.0,0.0,0.0,0.0,0.0,0.0,0.0,0.0,0.0,0.0,0.0,0.0,0.0,0.0,0.0,0.0,0.0,0.0,0.0,0.0,0.0,0.0,0.0,0.0,0.0,0.0,0.0,0.0,0.0,0.0,1.3919,1.3846,1.3787,1.3787,1.368,1.3609,0.0,0.0,0.0,0.0,0.0,0.0,0.0,0.0,0.0,0.0,0.0,0.0,0.0,0.0,0.0,0.0,0.0,0.0,0.0,0.0,0.0,0.0,0.0,0.0,0.0,0.0,0.0,0.0,0.0,0.0,0.0,0.0,0.0,0.0,0.0,0.0,0.0,0.0,0.0,0.0,0.0,0.0,0.0,0.0,0.0,0.0,0.0,0.0,0.0,0.0,0.0,0.0,0.0,0.0,0.0,0.0,0.0,0.0,0.0,0.0,0.0,0.0,0.0,0.0,0.0,0.0,0.0,0.0,0.0,0.0,0.0,0.0,0.0,0.0,0.0,0.0,0.0,0.0,0.0,0.0,0.0,0.0,0.0,0.0,0.0,0.0,0.0,0.0,0.0,0.0,0.0,0.0,0.0,0.0,0.0,0.0,0.0,0.0,0.0,0.0,0.0,0.0,0.0,0.0,0.0,0.0,0.0,0.0,0.0,1.3718,1.3503,1.3459,1.3659,1.3412,1.3368,0.0,0.0,0.0,0.0,0.0,0.0,0.0,0.0,0.0,0.0,0.0,0.0,0.0,0.0,0.0,0.0,0.0,0.0,0.0,0.0,0.0,0.0,0.0,0.0,0.0,0.0,0.0,0.0,0.0,0.0,0.0,0.0,0.0,0.0,0.0,0.0,0.0,0.0,0.0,0.0,0.0,0.0,0.0,0.0,0.0,0.0,0.0,0.0,0.0,0.0,0.0,0.0,0.0,0.0,0.0,0.0,0.0,0.0,0.0,0.0,0.0,0.0,0.0,0.0,0.0,0.0,0.0,0.0,0.0,0.0,0.0,0.0,0.0,0.0,0.0,0.0,0.0,0.0,0.0,0.0,0.0,0.0,0.0,0.0,0.0,0.0,0.0,0.0,0.0,0.0,0.0,0.0,0.0,0.0,0.0,0.0,0.0,0.0,0.0,0.0,0.0,0.0,0.0,0.0,0.0,0.0,0.0,0.0,0.0,1.344,0.0,1.301,1.3234,1.31,1.3151,0.0,0.0,0.0,0.0,0.0,0.0,0.0,0.0,0.0,0.0,0.0,0.0,0.0,0.0,0.0,0.0,0.0,0.0,0.0,0.0,0.0,0.0,0.0,0.0,0.0,0.0,0.0,0.0,0.0,0.0,0.0,0.0,0.0,0.0,0.0,0.0,0.0,0.0,0.0,0.0,0.0,0.0,0.0,0.0,0.0,0.0,0.0,0.0,0.0,0.0,0.0,0.0,0.0,0.0,0.0,0.0,0.0,0.0,0.0,0.0,0.0,0.0,0.0,0.0,0.0,0.0,0.0,0.0,0.0,0.0,0.0,0.0,0.0,0.0,0.0,0.0,0.0,0.0,0.0,0.0,0.0,0.0,0.0,0.0,0.0,0.0,0.0,0.0,0.0,0.0,0.0,0.0,0.0,0.0,0.0,0.0,0.0,0.0,0.0,0.0,0.0,0.0,0.0,0.0,0.0,0.0,0.0,0.0,1.344,1.3116,1.2752,1.2573,1.252,1.2786,1.2915,0.0,0.0,0.0,0.0,0.0,0.0,0.0,0.0,0.0,0.0,0.0,0.0,0.0,0.0,0.0,0.0,0.0,0.0,0.0,0.0,0.0,0.0,0.0,0.0,0.0,0.0,0.0,0.0,0.0,0.0,0.0,0.0,0.0,0.0,0.0,0.0,0.0,0.0,0.0,0.0,0.0,0.0,0.0,0.0,0.0,0.0,0.0,0.0,0.0,0.0,0.0,0.0,0.0,0.0,0.0,0.0,0.0,0.0,0.0,0.0,0.0,0.0,0.0,0.0,0.0,0.0,0.0,0.0,0.0,0.0,0.0,0.0,0.0,0.0,0.0,0.0,0.0,0.0,0.0,0.0,0.0,0.0,0.0,0.0,0.0,0.0,0.0,0.0,0.0,0.0,0.0,0.0,0.0,0.0,0.0,0.0,0.0,0.0,0.0,0.0,0.0,0.0,0.0,0.0,0.0,0.0,0.0,0.0,0.0,1.344,1.3094,1.3042,1.3243,1.3009,1.3039,0.0,0.0,0.0,0.0,0.0,0.0,0.0,0.0,0.0,0.0,0.0,0.0,0.0,0.0,0.0,0.0,0.0,0.0,0.0,0.0,0.0,0.0,0.0,0.0,0.0,0.0,0.0,0.0,0.0,0.0,0.0,0.0,0.0,0.0,0.0,0.0,0.0,0.0,0.0,0.0,0.0,0.0,0.0,0.0,0.0,0.0,0.0,0.0,0.0,0.0,0.0,0.0,0.0,0.0,0.0,0.0,0.0,0.0,0.0,0.0,0.0,0.0,0.0,0.0,0.0,0.0,0.0,0.0,0.0,0.0,0.0,0.0,0.0,0.0,0.0,0.0,0.0,0.0,0.0,0.0,0.0,0.0,0.0,0.0,0.0,0.0,0.0,0.0,0.0,0.0,0.0,0.0,0.0,0.0,0.0,0.0,0.0,0.0,0.0,0.0,0.0,0.0,0.0,0.0,0.0,0.0,0.0,0.0,0.0,1.3921,1.3194,1.2996,1.3328,1.3236,1.3381,1.3824,0.0,0.0,0.0,0.0,0.0,0.0,0.0,0.0,0.0,0.0,0.0,0.0,0.0,0.0,0.0,0.0,0.0,0.0,0.0,0.0,0.0,0.0,0.0,0.0,0.0,0.0,0.0,0.0,0.0,0.0,0.0,0.0,0.0,0.0,0.0,0.0,0.0,0.0,0.0,0.0,0.0,0.0,0.0,0.0,0.0,0.0,0.0,0.0,0.0,0.0,0.0,0.0,0.0,0.0,0.0,0.0,0.0,0.0,0.0,0.0,0.0,0.0,0.0,0.0,0.0,0.0,0.0,0.0,0.0,0.0,0.0,0.0,0.0,0.0,0.0,0.0,0.0,0.0,0.0,0.0,0.0,0.0,0.0,0.0,0.0,0.0,0.0,0.0,0.0,0.0,0.0,0.0,0.0,0.0,0.0,0.0,0.0,0.0,0.0,0.0,0.0,0.0,0.0,0.0,0.0,0.0,0.0,0.0,1.4499,1.3162,1.267,1.305,1.3476,1.389,0.0,0.0,0.0,0.0,0.0,0.0,0.0,0.0,0.0,0.0,0.0,0.0,0.0,0.0,0.0,0.0,0.0,0.0,0.0,0.0,0.0,0.0,0.0,0.0,0.0,0.0,0.0,0.0,0.0,0.0,0.0,0.0,0.0,0.0,0.0,0.0,0.0,0.0,0.0,0.0,0.0,0.0,0.0,0.0,0.0,0.0,0.0,0.0,0.0,0.0,0.0,0.0,0.0,0.0,0.0,0.0,0.0,0.0,0.0,0.0,0.0,0.0,0.0,0.0,0.0,0.0,0.0,0.0,0.0,0.0,0.0,0.0,0.0,0.0,0.0,0.0,0.0,0.0,0.0,0.0,0.0,0.0,0.0,0.0,0.0,0.0,0.0,0.0,0.0,0.0,0.0,0.0,0.0,0.0,0.0,0.0,0.0,0.0,0.0,0.0,0.0,0.0,0.0,0.0,0.0,0.0,0.0,0.0,0.0,1.4374,1.4308,1.4387,1.4591,1.4717,1.4779,0.0,0.0,0.0,0.0,0.0,0.0,0.0,0.0,0.0,0.0,0.0,0.0,0.0,0.0,0.0,0.0,0.0,0.0,0.0,0.0,0.0,0.0,0.0,0.0,0.0,0.0,0.0,0.0,0.0,0.0,0.0,0.0,0.0,0.0,0.0,0.0,0.0,0.0,0.0,0.0,0.0,0.0,0.0,0.0,0.0,0.0,0.0,0.0,0.0,0.0,0.0,0.0,0.0,0.0,0.0,0.0,0.0,0.0,0.0,0.0,0.0,0.0,0.0,0.0,0.0,0.0,0.0,0.0,0.0,0.0,0.0,0.0,0.0,0.0,0.0,0.0,0.0,0.0,0.0,0.0,0.0,0.0,0.0,0.0,0.0,0.0,0.0,0.0,0.0,0.0,0.0,0.0,0.0,0.0,0.0,0.0,0.0,0.0,0.0,0.0,0.0,0.0,0.0,0.0,0.0,0.0,0.0,0.0,1.555,1.5266,1.5771,1.6063,1.6083,1.5638,1.5487,0.0,0.0,0.0,0.0,0.0,0.0,0.0,0.0,0.0,0.0,0.0,0.0,0.0,0.0,0.0,0.0,0.0,0.0,0.0,0.0,0.0,0.0,0.0,0.0,0.0,0.0,0.0,0.0,0.0,0.0,0.0,0.0,0.0,0.0,0.0,0.0,0.0,0.0,0.0,0.0,0.0,0.0,0.0,0.0,0.0,0.0,0.0,0.0,0.0,0.0,0.0,0.0,0.0,0.0,0.0,0.0,0.0,0.0,0.0,0.0,0.0,0.0,0.0,0.0,0.0,0.0,0.0,0.0,0.0,0.0,0.0,0.0,0.0,0.0,0.0,0.0,0.0,0.0,0.0,0.0,0.0,0.0,0.0,0.0,0.0,0.0,0.0,0.0,0.0,0.0,0.0,0.0,0.0,0.0,0.0,0.0,0.0,0.0,0.0,0.0,0.0,0.0,0.0,0.0,0.0,0.0,0.0,0.0,1.6623,1.6581,1.7201,1.7461,1.7315,1.6384,1.6029,0.0,0.0,0.0,0.0,0.0,0.0,0.0,0.0,0.0,0.0,0.0,0.0,0.0,0.0,0.0,0.0,0.0,0.0,0.0,0.0,0.0,0.0,0.0,0.0,0.0,0.0,0.0,0.0,0.0,0.0,0.0,0.0,0.0,0.0,0.0,0.0,0.0,0.0,0.0,0.0,0.0,0.0,0.0,0.0,0.0,0.0,0.0,0.0,0.0,0.0,0.0,0.0,0.0,0.0,0.0,0.0,0.0,0.0,0.0,0.0,0.0,0.0,0.0,0.0,0.0,0.0,0.0,0.0,0.0,0.0,0.0,0.0,0.0,0.0,0.0,0.0,0.0,0.0,0.0,0.0,0.0,0.0,0.0,0.0,0.0,0.0,0.0,0.0,0.0,0.0,0.0,0.0,0.0,0.0,0.0,0.0,0.0,0.0,0.0,0.0,0.0,0.0,0.0,0.0,0.0,0.0,0.0,0.0,1.6769,1.6466,1.7235,1.7656,1.7626,1.7184,1.6767,0.0,0.0,0.0,0.0,0.0,0.0,0.0,0.0,0.0,0.0,0.0,0.0,0.0,0.0,0.0,0.0,0.0,0.0,0.0,0.0,0.0,0.0,0.0,0.0,0.0,0.0,0.0,0.0,0.0,0.0,0.0,0.0,0.0,0.0,0.0,0.0,0.0,0.0,0.0,0.0,0.0,0.0,0.0,0.0,0.0,0.0,0.0,0.0,1.695,0.0,0.0,0.0,0.0,0.0,0.0,0.0,0.0,0.0,0.0,0.0,0.0,0.0,0.0,0.0,0.0,0.0,0.0,0.0,0.0,0.0,0.0,0.0,0.0,0.0,0.0,0.0,0.0,0.0,0.0,0.0,0.0,0.0,0.0,0.0,0.0,0.0,0.0,0.0,0.0,0.0,0.0,0.0,0.0,0.0,0.0,0.0,0.0,0.0,0.0,0.0,0.0,0.0,0.0,0.0,0.0,0.0,0.0,0.0,1.7006,1.7036,1.7683,1.8014,1.803,1.7895,1.7458,0.0,0.0,0.0,0.0,0.0,0.0,0.0,0.0,0.0,0.0,0.0,0.0,0.0,0.0,0.0,0.0,0.0,0.0,0.0,0.0,0.0,0.0,0.0,0.0,0.0,0.0,0.0,0.0,0.0,0.0,0.0,0.0,0.0,0.0,0.0,0.0,0.0,0.0,0.0,0.0,0.0,0.0,0.0,0.0,0.0,0.0,0.0,0.0,0.0,0.0,0.0,0.0,0.0,0.0,0.0,0.0,0.0,0.0,0.0,0.0,0.0,0.0,0.0,0.0,0.0,0.0,0.0,0.0,0.0,0.0,0.0,0.0,0.0,0.0,0.0,0.0,0.0,0.0,0.0,0.0,0.0,0.0,0.0,0.0,0.0,0.0,0.0,0.0,0.0,0.0,0.0,0.0,0.0,0.0,0.0,0.0,0.0,0.0,0.0,0.0,0.0,0.0,0.0,0.0,0.0,0.0,0.0,1.6971,1.7322,1.7792,1.8273,1.8517,1.8501,1.8455,1.7988,1.7151,0.0,0.0,0.0,0.0,0.0,0.0,0.0,0.0,0.0,0.0,0.0,0.0,0.0,0.0,0.0,0.0,0.0,0.0,0.0,0.0,0.0,0.0,0.0,0.0,0.0,0.0,0.0,0.0,0.0,0.0,0.0,0.0,0.0,0.0,0.0,0.0,0.0,0.0,1.7336,1.7687,0.0,0.0,0.0,0.0,0.0,0.0,0.0,0.0,1.8221,0.0,0.0,0.0,0.0,0.0,0.0,0.0,0.0,0.0,0.0,0.0,0.0,0.0,0.0,0.0,0.0,0.0,0.0,0.0,0.0,0.0,0.0,0.0,0.0,0.0,0.0,0.0,0.0,0.0,0.0,0.0,0.0,0.0,0.0,0.0,0.0,0.0,0.0,0.0,0.0,0.0,0.0,0.0,0.0,0.0,0.0,0.0,0.0,0.0,0.0,0.0,0.0,0.0,0.0,0.0,0.0,1.7198,1.7464,1.7828,1.8294,1.8729,1.8994,1.8957,1.8605,1.8149,1.7606,0.0,0.0,0.0,0.0,0.0,0.0,0.0,0.0,0.0,0.0,0.0,0.0,0.0,0.0,0.0,0.0,0.0,0.0,0.0,0.0,0.0,0.0,0.0,0.0,0.0,0.0,0.0,0.0,0.0,0.0,0.0,0.0,0.0,0.0,0.0,0.0,0.0,0.0,0.0,1.8135,1.8244,0.0,0.0,0.0,0.0,0.0,0.0,0.0,0.0,1.9267,0.0,0.0,0.0,0.0,0.0,0.0,0.0,0.0,0.0,0.0,0.0,0.0,0.0,0.0,0.0,0.0,0.0,0.0,0.0,0.0,0.0,0.0,0.0,0.0,0.0,0.0,0.0,0.0,0.0,0.0,0.0,0.0,0.0,0.0,0.0,0.0,0.0,0.0,0.0,0.0,0.0,0.0,0.0,0.0,0.0,0.0,0.0,0.0,0.0,0.0,0.0,0.0,0.0,0.0,0.0,1.7391,1.7583,1.7931,1.8414,1.8853,1.9098,1.9098,1.8662,1.819,0.0,0.0,0.0,0.0,0.0,0.0,0.0,0.0,0.0,0.0,0.0,0.0,0.0,0.0,0.0,0.0,0.0,0.0,0.0,0.0,0.0,0.0,0.0,0.0,0.0,0.0,0.0,0.0,0.0,0.0,0.0,0.0,0.0,0.0,0.0,0.0,0.0,0.0,0.0,0.0,1.8168,1.8349,1.8227,0.0,0.0,0.0,0.0,0.0,0.0,1.9511,1.9674,0.0,0.0,0.0,0.0,0.0,0.0,0.0,0.0,0.0,0.0,0.0,0.0,0.0,0.0,0.0,0.0,0.0,0.0,0.0,0.0,0.0,0.0,0.0,0.0,0.0,0.0,0.0,0.0,0.0,0.0,0.0,0.0,0.0,0.0,0.0,0.0,0.0,0.0,0.0,0.0,0.0,0.0,0.0,0.0,0.0,0.0,0.0,0.0,0.0,0.0,0.0,0.0,0.0,0.0,0.0,1.7569,1.7759,1.8071,1.8522,1.8895,1.9098,1.9098,1.8745,1.8319,0.0,0.0,0.0,0.0,0.0,0.0,0.0,0.0,0.0,0.0,0.0,0.0,0.0,0.0,0.0,0.0,0.0,0.0,0.0,0.0,0.0,0.0,0.0,0.0,0.0,0.0,0.0,0.0,0.0,0.0,0.0,0.0,0.0,0.0,0.0,0.0,0.0,0.0,0.0,0.0,0.0,1.8793,1.8642,1.9502,0.0,0.0,0.0,0.0,2.0042,2.0184,0.0,0.0,0.0,0.0,0.0,0.0,0.0,0.0,0.0,0.0,0.0,0.0,0.0,0.0,0.0,0.0,0.0,0.0,0.0,0.0,0.0,0.0,0.0,0.0,0.0,0.0,0.0,0.0,0.0,0.0,0.0,0.0,0.0,0.0,0.0,0.0,0.0,0.0,0.0,0.0,0.0,0.0,0.0,0.0,0.0,0.0,0.0,0.0,0.0,0.0,0.0,0.0,0.0,0.0,0.0,0.0,1.7846,1.8166,1.8559,1.8978,1.9077,1.9098,1.9098,1.9056,1.8808,0.0,0.0,0.0,0.0,0.0,0.0,0.0,0.0,0.0,0.0,0.0,0.0,0.0,0.0,0.0,0.0,0.0,0.0,0.0,0.0,0.0,0.0,0.0,0.0,0.0,0.0,0.0,0.0,0.0,0.0,0.0,0.0,0.0,0.0,0.0,0.0,0.0,0.0,0.0,0.0,0.0,2.0264,2.01,2.0379,2.054,0.0,0.0,2.0659,2.0596,2.1111,0.0,0.0,0.0,0.0,0.0,0.0,0.0,0.0,0.0,0.0,0.0,0.0,0.0,0.0,0.0,0.0,0.0,0.0,0.0,0.0,0.0,0.0,0.0,0.0,0.0,0.0,0.0,0.0,0.0,0.0,0.0,0.0,0.0,0.0,0.0,0.0,0.0,0.0,0.0,0.0,0.0,0.0,0.0,0.0,0.0,0.0,0.0,0.0,0.0,0.0,0.0,0.0,0.0,0.0,0.0,1.7684,1.8058,1.8296,1.8625,1.9061,1.8798,1.8781,1.9119,1.8026,1.7736,0.0,0.0,0.0,0.0,0.0,0.0,0.0,0.0,0.0,0.0,0.0,0.0,0.0,0.0,0.0,0.0,0.0,0.0,0.0,0.0,0.0,0.0,0.0,0.0,0.0,0.0,0.0,0.0,0.0,0.0,0.0,0.0,0.0,0.0,0.0,0.0,0.0,0.0,0.0,0.0,0.0,0.0,2.0452,2.1084,0.0,0.0,0.0,2.2244,2.2141,0.0,0.0,0.0,0.0,0.0,0.0,0.0,0.0,0.0,0.0,0.0,0.0,0.0,0.0,0.0,0.0,0.0,0.0,0.0,0.0,0.0,0.0,0.0,0.0,0.0,0.0,0.0,0.0,0.0,0.0,0.0,0.0,0.0,0.0,0.0,0.0,0.0,0.0,0.0,0.0,0.0,0.0,0.0,0.0,0.0,0.0,0.0,0.0,0.0,0.0,0.0,0.0,0.0,0.0,0.0,0.0,0.0,1.8325,1.85,1.8791,1.9264,1.8897,1.888,1.923,1.775,0.0,0.0,0.0,0.0,0.0,0.0,0.0,0.0,0.0,0.0,0.0,0.0,0.0,0.0,0.0,0.0,0.0,0.0,0.0,0.0,0.0,0.0,0.0,0.0,0.0,0.0,0.0,1.7306,0.0,0.0,0.0,0.0,0.0,0.0,0.0,0.0,0.0,0.0,0.0,0.0,0.0,0.0,2.0243,2.1029,2.18,2.2368,0.0,0.0,2.3401,2.336,2.2843,2.2185,0.0,0.0,0.0,0.0,0.0,0.0,0.0,0.0,0.0,0.0,0.0,0.0,0.0,0.0,0.0,0.0,0.0,0.0,0.0,0.0,0.0,0.0,0.0,0.0,0.0,0.0,0.0,0.0,0.0,0.0,0.0,0.0,0.0,0.0,0.0,0.0,0.0,0.0,0.0,0.0,0.0,0.0,0.0,0.0,0.0,0.0,0.0,0.0,0.0,0.0,0.0,0.0,0.0,0.0,0.0,1.8669,1.891,1.9285,1.972,1.9724,1.9706,1.9741,1.9217,1.8932,0.0,0.0,0.0,0.0,0.0,0.0,0.0,0.0,0.0,0.0,0.0,0.0,0.0,0.0,0.0,0.0,0.0,0.0,0.0,0.0,0.0,0.0,0.0,0.0,0.0,0.0,0.0,0.0,0.0,0.0,0.0,0.0,0.0,0.0,0.0,0.0,0.0,0.0,0.0,0.0,0.0,2.2121,2.2251,2.2724,2.3115,0.0,0.0,2.3346,2.3705,2.3564,2.3235,2.2751,0.0,0.0,0.0,0.0,0.0,0.0,0.0,0.0,0.0,0.0,0.0,0.0,0.0,0.0,0.0,0.0,0.0,0.0,0.0,0.0,0.0,0.0,0.0,0.0,0.0,0.0,0.0,0.0,0.0,0.0,0.0,0.0,0.0,0.0,0.0,0.0,0.0,0.0,0.0,0.0,0.0,0.0,0.0,0.0,0.0,0.0,0.0,0.0,0.0,0.0,0.0,0.0,0.0,1.869,1.8818,1.9293,1.9633,1.9803,1.9722,1.9826,2.0162,1.9121,1.8725,0.0,0.0,0.0,0.0,0.0,0.0,0.0,0.0,0.0,0.0,0.0,0.0,0.0,0.0,0.0,0.0,0.0,0.0,0.0,0.0,0.0,0.0,0.0,0.0,0.0,0.0,0.0,0.0,1.7554,1.7861,1.8108,0.0,0.0,0.0,0.0,0.0,0.0,0.0,0.0,0.0,0.0,2.2253,2.2609,2.3783,0.0,0.0,2.4872,2.5231,2.5105,2.4661,2.4094,2.336,2.2737,0.0,0.0,0.0,0.0,0.0,0.0,0.0,0.0,0.0,0.0,0.0,0.0,0.0,0.0,0.0,0.0,0.0,0.0,0.0,0.0,0.0,0.0,0.0,0.0,0.0,0.0,0.0,0.0,0.0,0.0,0.0,0.0,0.0,0.0,0.0,0.0,0.0,0.0,0.0,0.0,0.0,0.0,0.0,0.0,0.0,0.0,0.0,0.0,0.0,0.0,0.0,0.0,1.9009,1.9204,1.9607,1.9945,2.0179,2.0096,2.024,2.0563,1.9473,1.8981,0.0,0.0,0.0,0.0,0.0,0.0,0.0,0.0,0.0,0.0,0.0,0.0,0.0,0.0,0.0,0.0,0.0,0.0,0.0,0.0,0.0,0.0,0.0,0.0,0.0,0.0,0.0,0.0,1.7912,1.8327,1.8669,0.0,0.0,0.0,0.0,0.0,0.0,0.0,0.0,0.0,0.0,2.2509,2.2996,2.4408,2.5275,2.499,2.5771,2.6309,2.6036,2.5418,2.4702,2.3908,0.0,0.0,0.0,0.0,0.0,0.0,0.0,0.0,0.0,0.0,0.0,0.0,0.0,0.0,0.0,0.0,0.0,0.0,0.0,0.0,0.0,0.0,0.0,0.0,0.0,0.0,0.0,0.0,0.0,0.0,0.0,0.0,0.0,0.0,0.0,0.0,0.0,0.0,0.0,0.0,0.0,0.0,0.0,0.0,0.0,0.0,0.0,0.0,0.0,0.0,0.0,0.0,0.0,1.9263,1.9968,1.9893,2.0221,2.1013,2.1075,2.1077,2.1075,2.0622,2.0168,1.9803,0.0,0.0,0.0,0.0,0.0,0.0,0.0,0.0,0.0,0.0,0.0,0.0,0.0,0.0,0.0,0.0,0.0,0.0,0.0,0.0,0.0,0.0,0.0,0.0,0.0,0.0,1.7977,1.8392,1.8676,0.0,0.0,0.0,0.0,0.0,0.0,0.0,0.0,0.0,0.0,2.2788,2.3236,2.3623,2.4337,2.4902,2.5076,2.5558,2.5963,2.61,2.5612,2.5046,0.0,0.0,0.0,0.0,0.0,0.0,0.0,0.0,0.0,0.0,0.0,0.0,0.0,0.0,0.0,0.0,0.0,0.0,0.0,0.0,0.0,0.0,0.0,0.0,0.0,0.0,0.0,1.5811,1.5811,0.0,0.0,0.0,0.0,0.0,0.0,0.0,0.0,0.0,0.0,0.0,1.8053,1.8328,0.0,0.0,0.0,0.0,0.0,0.0,0.0,0.0,0.0,0.0,0.0,0.0,2.0097,2.0625,2.0657,2.0803,2.1095,2.1404,2.155,2.155,2.1406,2.0971,2.0224,0.0,0.0,0.0,0.0,0.0,0.0,0.0,0.0,0.0,0.0,0.0,0.0,0.0,0.0,0.0,0.0,0.0,0.0,0.0,0.0,0.0,0.0,0.0,0.0,0.0,1.7795,0.0,0.0,0.0,0.0,0.0,0.0,0.0,0.0,0.0,0.0,0.0,2.1829,2.1935,2.294,2.3676,2.3586,2.4162,2.4775,0.0,0.0,0.0,0.0,0.0,0.0,0.0,0.0,0.0,0.0,0.0,0.0,0.0,0.0,2.2957,2.2377,2.2252,2.2273,2.2273,0.0,0.0,0.0,0.0,0.0,0.0,0.0,0.0,0.0,0.0,0.0,0.0,0.0,0.0,0.0,0.0,1.6928,0.0,0.0,0.0,0.0,0.0,0.0,0.0,0.0,1.8725,1.905,1.9279,1.9579,1.9766,0.0,1.9751,1.9462,0.0,0.0,0.0,0.0,0.0,0.0,0.0,0.0,2.0465,2.0769,2.0811,2.093,2.1095,2.124,2.1385,2.1569,2.1569,2.1178,2.0434,1.9724,1.9119,0.0,0.0,0.0,0.0,0.0,0.0,0.0,0.0,0.0,0.0,0.0,0.0,0.0,0.0,0.0,0.0,0.0,0.0,0.0,0.0,0.0,0.0,0.0,1.8101,0.0,0.0,0.0,0.0,0.0,0.0,0.0,0.0,0.0,2.1867,2.1822,2.1924,2.2331,2.3016,2.3452,2.3397,0.0,0.0,0.0,0.0,0.0,0.0,0.0,2.5142,2.4459,2.494,2.5251,2.4789,2.472,2.4701,2.4723,0.0,0.0,2.3867,2.366,2.366,2.366,2.3391,2.3288,2.3598,2.366,2.3743,0.0,0.0,0.0,0.0,0.0,0.0,0.0,0.0,1.9014,1.9201,0.0,1.9059,0.0,0.0,0.0,0.0,0.0,0.0,0.0,0.0,2.0206,2.0605,2.0933,2.1336,2.1599,2.1621,2.1538,2.1315,2.085,1.9943,0.0,0.0,0.0,0.0,0.0,0.0,2.0382,2.0508,2.0493,2.0682,2.1114,2.0664,2.0604,2.1036,2.1095,2.0889,2.0434,2.0034,1.9616,1.916,1.9533,0.0,0.0,0.0,0.0,0.0,0.0,0.0,0.0,0.0,0.0,0.0,0.0,0.0,0.0,0.0,0.0,0.0,0.0,0.0,0.0,1.8451,0.0,0.0,0.0,0.0,0.0,0.0,0.0,0.0,0.0,0.0,2.1808,2.1869,2.238,2.3521,0.0,0.0,0.0,0.0,2.3881,2.4018,2.4569,2.5013,2.4969,2.5021,2.492,2.4521,0.0,0.0,2.3933,2.4554,2.5075,2.5094,2.5902,2.6276,2.4785,2.4586,2.4631,2.4611,2.4588,2.4525,2.4525,2.4454,2.4454,2.1419,0.0,0.0,0.0,0.0,2.0065,2.0001,2.0086,2.0205,2.0272,2.0257,2.0225,0.0,0.0,0.0,0.0,0.0,0.0,2.061,2.1054,2.1208,2.1305,2.1402,2.1533,2.1621,2.1621,2.1621,2.1533,2.138,2.1118,2.062,1.9933,0.0,0.0,0.0,0.0,2.1693,2.2014,2.1758,2.1672,2.1816,2.0841,2.0239,2.004,2.0728,2.0868,2.0416,2.0617,2.0387,1.9637,1.972,0.0,0.0,0.0,0.0,0.0,0.0,0.0,0.0,0.0,0.0,0.0,0.0,0.0,0.0,0.0,0.0,0.0,0.0,0.0,1.901,1.8807,1.911,0.0,0.0,0.0,0.0,0.0,0.0,0.0,0.0,0.0,2.2314,2.2811,2.3249,0.0,0.0,2.3338,2.442,2.3591,2.3116,2.3947,0.0,0.0,0.0,2.388,2.4269,2.3913,2.4443,2.4881,2.4746,2.4933,2.5087,2.5087,2.5368,2.5427,2.5119,2.5805,2.6424,2.6473,2.5805,2.5243,2.5173,2.4842,2.4692,2.34,2.28,2.1871,2.1678,2.1962,2.1629,2.1531,2.1596,2.1514,2.1481,2.1498,2.1416,2.1383,2.1366,2.1257,0.0,0.0,0.0,2.1528,2.1989,2.1993,2.2063,2.2167,2.2149,2.2149,2.2149,2.2149,2.2149,2.2149,2.2167,2.176,2.1001,0.0,0.0,2.1481,2.1808,2.2048,2.216,2.1716,2.1413,2.1338,2.0662,2.0121,1.9882,2.0657,2.0971,2.0682,2.0765,2.0596,2.0076,2.0034,1.9962,0.0,0.0,0.0,0.0,0.0,0.0,0.0,0.0,0.0,0.0,0.0,1.9185,1.872,0.0,0.0,0.0,1.9169,1.9364,1.9537,1.9441,0.0,0.0,0.0,0.0,0.0,0.0,0.0,2.1626,2.1982,2.2399,2.2788,2.307,2.3327,2.359,2.316,2.3178,2.4113,0.0,2.2743,2.3536,2.3132,2.2704,2.2688,2.3243,2.3601,2.3413,2.385,2.4238,2.4282,2.4533,2.4747,2.4827,2.5174,2.5493,2.5493,2.6339,2.6838,2.6498,2.6167,2.5794,2.5421,2.5301,2.5368,2.5021,2.5052,2.3618,2.3142,2.331,2.2987,2.2959,2.309,2.2902,2.2817,2.28,2.2628,2.2542,2.2542,2.2196,0.0,0.0,2.1913,2.2196,2.262,2.262,2.2772,2.3001,2.302,2.302,2.302,2.302,2.302,2.2979,2.302,2.2783,2.235,2.1878,2.155,2.1352,2.1783,2.1798,2.1397,2.0803,2.0353,2.0071,2.0165,2.0164,2.0068,2.0761,2.1095,2.1077,2.0723,2.0475,2.0413,2.0431,2.057,2.0825,0.0,0.0,0.0,0.0,0.0,0.0,0.0,0.0,0.0,0.0,0.0,0.0,0.0,0.0,0.0,1.9085,0.0,1.9902,2.0173,0.0,0.0,0.0,2.0843,2.1285,2.1323,2.1648,2.2448,0.0,0.0,0.0,0.0,2.2873,2.3376,2.2854,2.2581,2.2976,2.2816,2.2641,2.2999,2.3006,2.3006,2.2974,2.303,2.3059,2.3071,2.3022,2.3087,2.3115,2.3631,2.4133,2.4172,2.5075,2.579,2.5835,2.5892,2.5964,2.5063,2.5659,2.6041,2.5295,2.5514,2.5689,2.608,2.6,2.5764,2.5203,2.4407,2.4154,2.4083,2.4141,2.3922,2.3851,2.3851,2.3797,2.3779,2.3761,2.3528,2.3329,2.3162,2.2998,2.2919,2.29,2.29,2.2929,2.302,2.302,2.302,2.302,2.302,2.302,2.302,2.302,2.2957,2.2789,2.2256,2.1781,2.1409,2.1832,2.1801,2.1272,2.0755,1.9966,1.8897,1.9733,1.9821,1.9084,2.0377,2.1077,2.1077,2.1344,2.1137,2.0454,2.0556,2.0348,1.9725,2.019,0.0,0.0,0.0,0.0,0.0,0.0,0.0,0.0,0.0,1.9222,1.8735,0.0,1.935,0.0,2.0192,2.0727,2.1123,2.0781,0.0,0.0,2.1288,2.1359,2.1516,2.206,2.2351,2.2092,2.2493,2.2711,2.2458,2.267,2.2893,2.3017,2.2733,2.2938,2.4094,2.3494,2.2883,2.299,2.3022,2.3022,2.3022,2.3022,2.3022,2.3022,2.3022,2.3022,2.3022,2.3175,2.3316,2.3316,2.3512,2.372,2.3792,2.3804,2.381,2.3618,2.4395,2.5133,2.4914,2.4367,2.3982,2.6647,2.6595,2.6709,2.6356,2.5741,2.5404,2.5098,2.4797,2.4595,2.4384,2.42,2.42,2.4164,2.405,2.3963,2.393,2.3947,2.3705,2.3684,2.3806,2.3714,2.3656,2.3656,2.3656,2.3656,2.3678,2.3676,2.3656,2.3637,2.3347,2.3193,2.3174,2.2553,2.1879,2.1162,2.1508,2.1605,2.1473,2.0469,1.9438,1.8455,1.9234,1.9526,1.9279,1.9902,2.0389,2.0707,2.0949,2.0866,2.0487,2.0811,2.0871,2.0521,2.0767,2.0818,0.0,0.0,0.0,0.0,0.0,0.0,0.0,0.0,0.0,0.0,0.0,2.0527,0.0,2.1353,0.0,2.1773,2.1705,2.161,2.1507,2.1585,2.172,2.1927,2.2421,2.2577,2.228,2.2579,2.2727,2.2556,2.2651,2.2794,2.291,2.2831,2.3034,2.3743,2.3372,2.3022,2.3022,2.3022,2.3022,2.3022,2.3022,2.307,2.3184,2.3216,2.3263,2.348,2.3483,2.3495,2.3511,2.3511,2.3419,2.3263,2.3216,2.3184,2.3138,2.3512,2.396,2.3999,2.3748,2.3664,2.7114,2.7133,2.7109,2.709,2.7057,2.6685,2.607,2.5289,2.5102,2.4756,2.4347,2.4384,2.4292,2.4127,2.4127,2.4261,2.4498,2.4269,2.4418,2.4817,2.4623,2.4546,2.4546,2.4506,2.4506,2.4506,2.4407,2.4368,2.4348,2.3626,2.3264,2.3243,2.2615,2.1845,2.1048,2.1096,2.1228,2.1415,2.0001,1.8993,1.8454,1.8814,1.9291,1.9767,1.9466,1.9602,2.0244,2.0282,2.0374,2.0575,2.1093,2.1552,2.1793,2.1464,2.1336,0.0,2.1564,0.0,0.0,0.0,0.0,0.0,0.0,0.0,0.0,2.1729,2.1897,2.2273,2.2341,2.2271,2.197,2.2482,2.2528,2.1696,2.1771,2.2031,2.2333,2.2549,2.269,2.2725,2.2789,2.2824,2.2894,2.2711,2.2688,2.2942,2.299,2.3018,2.3034,2.305,2.3022,2.3022,2.3025,2.3133,2.3105,2.3121,2.3292,2.3517,2.3581,2.3705,2.3989,2.4082,2.4082,2.4082,2.405,2.3957,2.3628,2.3549,2.3378,2.3136,2.3126,2.3106,2.3147,2.3568,2.386,2.819,2.819,2.819,2.8111,2.7929,2.7894,2.7089,2.5838,2.5631,2.5413,2.5188,2.5341,2.5421,2.5341,2.536,2.5291,2.5208,2.515,2.5099,2.5032,2.4817,2.4738,2.4719,2.4585,2.4506,2.4467,2.3887,2.3606,2.3586,2.294,2.2574,2.2574,2.1959,2.1816,0.0,0.0,0.0,0.0,1.9212,1.8931,1.8672,1.9033,1.9311,1.9411,1.9651,0.0,2.0718,2.0776,2.0845,2.0987,2.1261,0.0,0.0,0.0,0.0,0.0,0.0,0.0,0.0,0.0,0.0,0.0,2.2433,2.2477,2.2219,2.2368,2.2435,2.2327,2.2312,2.2118,2.1658,2.1853,2.1866,2.1509,2.2056,2.2385,2.2205,2.2749,2.3094,2.2895,2.2857,2.2899,2.2971,2.2939,2.2942,2.299,2.3022,2.3022,2.3022,2.3022,2.3022,2.3038,2.3216,2.3406,2.3393,2.3657,2.3845,2.3973,2.3989,2.402,2.41,2.4145,2.4129,2.4145,2.4114,2.4084,2.3989,2.3737,2.3504,2.3422,2.3184,2.3022,2.3022,2.3119,2.3175,2.8522,0.0,2.8522,2.8443,0.0,2.8339,2.781,2.6921,2.6547,2.6116,2.5693,2.5716,2.5696,2.5696,2.56,2.5617,2.5746,2.5571,2.5607,2.5831,2.5508,2.5225,2.5001,2.4796,2.4509,2.4137,2.3784,2.3576,2.3555,2.2925,2.2587,2.2587,2.1924,2.166,2.1729,2.0908,2.0257,1.9752,1.965,1.9545,1.9442,1.9424,1.9442,1.9584,0.0,0.0,0.0,0.0,0.0,0.0,0.0,0.0,0.0,0.0,0.0,2.2118,2.1864,2.1825,2.2093,2.1681,2.1578,2.2023,2.2691,2.3135,2.3381,2.3638,2.3872,2.4065,2.3863,2.3503,2.2994,2.3,2.2811,2.2159,2.2663,2.3091,2.3007,2.3301,2.3472,2.3254,2.3197,2.3166,2.3018,2.3022,2.3022,2.3022,2.3022,2.3022,2.3022,2.3022,2.307,2.3216,2.3375,2.3581,2.3769,2.3941,2.4164,2.4291,2.4339,2.4418,2.4577,2.4609,2.4609,2.4609,2.4579,2.4561,2.437,2.4166,2.393,2.3597,2.3375,2.3184,2.307,2.3022,2.3022,2.8643,2.8643,2.8526,2.8522,2.8522,2.8522,2.8323,2.7958,0.0,0.0,0.0,2.6085,2.6011,2.5972,2.5792,2.5922,2.6265,2.5966,2.6108,2.6654,2.6093,2.5676,2.5338,2.4913,2.4443,2.3921,2.3711,2.3627,2.3584,2.2947,2.2596,2.2552,2.1976,2.1544,2.1196,2.0885,2.072,2.068,2.0401,2.0265,2.0244,1.9844,1.9712,1.9855,1.9118,1.9067,1.9805,1.9806,2.0197,2.1049,2.1643,2.2063,2.2252,2.2485,2.2622,2.266,2.2309,2.2247,2.2497,2.1841,2.1608,2.207,2.2852,2.3616,2.4328,2.4614,2.4956,2.5466,2.5101,2.4649,2.4198,2.4231,2.3885,2.291,2.3383,2.3781,2.3718,2.3836,2.3767,2.3491,2.3428,2.3388,2.3078,2.3022,2.3022,2.3022,2.3022,2.3025,2.3073,2.3105,2.32,2.3438,2.3644,2.3864,2.41,2.4275,2.4386,2.4657,2.4704,2.4785,2.5008,2.5072,2.5072,2.504,2.5072,2.496,2.4738,2.4595,2.4418,2.3832,2.3523,2.3352,2.3067,2.2912,2.2853,2.9196,2.9148,2.8671,2.8522,2.8522,2.8522,2.8483,2.8359,2.7723,2.7267,2.7039,2.718,2.7163,2.6984,2.6963,2.6986,2.7055,2.6994,2.7019,0.0,2.6051,2.57,2.5894,2.4588,2.4089,2.4233,2.3386,2.2947,2.286,2.222,2.1843,2.1843,2.1754,2.1668,2.1636,2.1581,2.1544,2.1526,2.0805,2.0458,2.0458,2.0205,1.9943,1.9647,1.938,1.9347,1.9627,1.9508,1.9785,2.0625,2.0411,2.0353,2.0566,2.0958,2.1213,2.1451,2.1869,2.205,2.1949,2.209,2.2571,2.3352,2.3871,2.4038,2.3829,2.4006,2.4069,2.3963,2.3874,2.3496,2.3239,2.3614,2.3791,2.3607,2.3888,2.3962,2.3485,2.3889,2.395,2.3203,2.3332,2.3388,2.3078,2.3022,2.3022,2.3022,2.3054,2.3105,2.3343,2.3409,2.3454,2.3581,2.4055,2.4404,2.4515,2.477,2.4913,2.5024,2.5008,2.5008,2.5057,2.5072,2.5072,2.5072,2.5072,2.5041,2.4992,2.48,2.4563,2.4311,2.3769,2.3275,2.3137,2.2718,2.2487,2.9746,2.9701,2.946,2.9364,2.9364,2.9051,2.8931,2.8887,2.8298,2.7878,2.7574,2.7534,2.7391,2.719,2.7088,2.7183,2.7393,2.6742,2.6664,2.6928,2.5782,2.506,2.4732,2.3976,2.3346,2.293,2.2447,2.2198,2.2176,2.1865,2.1687,2.1705,2.1906,2.1929,2.1746,2.1929,2.1906,2.1709,2.1343,2.1138,2.1138,2.096,2.0609,2.0086,1.9873,1.9783,1.9868,1.9912,2.0279,2.0988,2.1089,2.1129,2.1249,2.1526,2.1726,2.1847,2.1995,2.2144,2.2288,2.2315,2.25,2.2926,2.3301,2.3664,2.3954,2.4746,2.5125,2.4903,2.4821,2.4641,2.4233,2.4202,2.4134,2.4,2.4153,2.4098,2.3729,2.375,2.3669,2.3135,2.3135,2.3191,2.3022,2.3022,2.3022,2.301,2.3136,2.3343,2.3517,2.3851,2.4102,2.4104,2.4388,2.4657,2.4833,2.4992,2.5072,2.5072,2.5072,2.5072,2.5072,2.5072,2.5072,2.5072,2.5072,2.5072,2.5072,2.4992,2.4741,2.4352,2.4193,2.3821,2.3454,2.3055,2.2803,3.0275,3.0275,3.0155,3.0086,3.0037,2.9653,2.9484,2.9436,2.9051,2.8657,2.8312,2.793,2.7582,2.7283,2.7116,2.7172,2.7209,2.6389,2.6254,2.6552,2.537,2.4462,2.3796,2.3303,2.2621,2.1882,2.1742,2.1687,2.1687,2.1687,2.1687,2.1723,2.2112,2.2126,2.1856,2.2217,2.2272,2.198,2.1984,2.1888,2.1727,2.1549,2.1193,2.0662,2.043,2.0274,2.0201,2.0331,2.0668,2.115,2.1464,2.1609,2.1669,2.201,2.2151,2.2168,2.2251,2.2407,2.2688,2.2555,2.2478,2.257,2.3046,2.362,2.4331,2.5418,2.5981,2.5734,2.5697,2.5585,2.5045,2.48,2.4558,2.4384,2.4431,2.4323,2.3949,2.3697,2.3444,2.3106,2.3022,2.3022,2.3022,2.3022,2.3054,2.3152,2.3406,2.3644,2.3787,2.4295,2.4658,2.4706,2.469,2.4801,2.5071,2.5072,2.5072,2.5072,2.5072,2.5072,2.5072,2.5072,2.5072,2.5072,2.5072,2.5072,2.5072,2.5072,2.49,2.4527,2.4399,2.4166,2.3436,2.3174,2.295,3.0829,3.0756,3.0347,3.0086,3.011,3.0037,3.0034,3.0034,2.9941,2.9837,2.9474,2.8837,2.8105,2.7632,2.7523,2.7195,2.6664,2.6508,2.6328,2.6059,2.4798,2.4211,2.4074,2.2651,2.2015,2.2167,2.1888,2.176,2.176,2.1742,2.1705,2.1764,2.2112,2.2314,2.2295,2.2638,2.2821,2.278,2.2803,2.2437,2.1742,2.1687,2.1463,2.1039,2.1039,2.0839,2.047,2.0328,2.0349,2.0542,2.0368,2.0244,2.0483,2.1109,2.1514,2.1555,2.2337,2.2837,2.2897,2.2868,2.3023,2.3389,2.4109,2.4636,2.4783,2.5258,2.5409,2.5164,2.5154,2.5094,2.4709,2.474,2.4737,2.4654,2.4667,2.4535,2.4005,2.3893,2.3641,2.3062,2.3022,2.3022,2.3022,2.301,2.3136,2.339,2.3769,2.4116,2.4356,2.4722,2.4992,2.5024,2.5056,2.5056,2.5072,2.5072,2.5072,2.5072,2.5072,2.5072,2.5072,2.5072,2.5072,2.5072,2.5072,2.5072,2.5072,2.5072,2.5042,2.4747,2.4374,2.3898,2.3036,2.2692,2.2422,3.138,3.138,3.1139,3.1067,3.0997,3.0708,3.0564,3.0497,2.9761,2.9488,2.9485,2.8733,2.8183,2.7832,2.7392,2.6989,2.6657,2.6041,2.5834,2.5755,2.4673,2.4037,2.3734,2.3143,2.2748,2.268,2.2474,2.2419,2.2419,2.24,2.24,2.2455,2.2827,2.2876,2.2693,2.3059,2.3151,2.2889,2.2889,2.2748,2.2419,2.2163,2.1807,2.1349,2.1272,2.1133,2.0879,2.1099,2.1314,2.1399,2.1576,2.1721,2.1789,2.2121,2.2285,2.2322,2.2884,2.337,2.3663,2.3895,2.4072,2.4262,2.4812,2.5242,2.548,2.5705,2.5674,2.5406,2.5233,2.5076,2.4939,2.4848,2.4746,2.4562,2.4395,2.4116,2.3725,2.3484,2.3247,2.305,2.3022,2.3022,2.3054,2.3168,2.3314,2.3565,2.3991,2.445,2.4625,2.4881,2.5057,2.5072,2.5072,2.5072,2.5072,2.5072,2.5072,2.5072,2.5072,2.5072,2.5072,2.5072,2.5072,2.5072,2.5072,2.5072,2.5072,2.4888,2.4764,2.4564,2.4224,2.3642,2.3278,2.3127,2.2886,3.1551,3.1693,3.1717,3.1717,3.1669,3.1286,3.1009,3.0721,2.9821,2.943,2.9329,2.8564,2.807,2.7742,2.7203,2.6756,2.6259,2.5595,2.5319,2.5275,2.4509,2.3895,2.3523,2.337,2.3187,2.2926,2.2871,2.2871,2.2889,2.2889,2.2889,2.2944,2.3297,2.3352,2.3133,2.3486,2.3559,2.3303,2.3266,2.3187,2.3041,2.279,2.2368,2.1867,2.1808,2.1717,2.1562,2.1969,2.2247,2.2265,2.2655,2.2889,2.2889,2.3004,2.3114,2.3266,2.3523,2.3895,2.4324,2.4636,2.4856,2.4985,2.5333,2.5682,2.5939,2.6006,2.5946,2.58,2.5459,2.5193,2.5072,2.4923,2.4729,2.4524,2.4228,2.3921,2.3641,2.3332,2.3135,2.3022,2.3022,2.3022,2.307,2.3279,2.3504,2.3737,2.4198,2.4642,2.4722,2.4944,2.5072,2.5072,2.5072,2.5072,2.5072,2.5072,2.5072,2.5072,2.5072,2.5072,2.5072,2.5072,2.5072,2.5072,2.5042,2.4949,2.4857,2.4672,2.4425,2.4131,2.3837,2.3591,2.3519,2.3505,2.3202,3.1259,3.1671,3.1671,3.1629,3.1671,3.1603,3.1224,3.0552,3.0439,3.0102,2.9326,2.8425,2.7701,2.7194,2.7099,2.6372,2.5178,2.5183,2.5026,2.4627,2.4169,2.3777,2.3504,2.3114,2.2944,2.3078,2.3041,2.3004,2.2944,2.2926,2.2889,2.2968,2.3352,2.3499,2.3541,2.392,2.4165,2.4048,2.403,2.392,2.3517,2.3444,2.3224,2.2871,2.2798,2.2756,2.2774,2.2811,2.2853,2.2871,2.2908,2.2926,2.2968,2.3279,2.3651,2.403,2.4165,2.4324,2.4691,2.4838,2.5003,2.5352,2.5737,2.5976,2.6049,2.6082,2.6063,2.6063,2.5514,2.5128,2.4896,2.484,2.4774,2.4674,2.4496,2.4172,2.3865,2.3528,2.3332,2.3078,2.3022,2.3022,2.2994,2.3295,2.366,2.3975,2.437,2.4706,2.496,2.5087,2.5072,2.5072,2.5072,2.5072,2.5072,2.5072,2.5072,2.5072,2.5072,2.5072,2.5072,2.5072,2.5072,2.5042,2.4888,2.4764,2.461,2.4394,2.4177,2.3929,2.3712,2.3544,2.3469,2.3265,2.3054,3.0928,3.0959,3.0487,3.0306,3.0306,3.0306,3.0125,2.9875,2.937,2.8955,2.8443,2.7665,2.6812,2.5994,2.6167,2.5659,2.4701,2.4726,2.4752,2.4633,2.4307,2.4306,2.4636,2.4042,2.3877,2.406,2.3859,2.3755,2.3736,2.373,2.373,2.373,2.3883,2.3957,2.3993,2.4103,2.4202,2.4202,2.4202,2.4128,2.3993,2.3932,2.3883,2.3712,2.3193,2.2889,2.2889,2.3151,2.3279,2.3279,2.3565,2.3736,2.373,2.384,2.4012,2.4202,2.4459,2.4636,2.4812,2.5278,2.5609,2.5774,2.6159,2.638,2.6344,2.6209,2.6035,2.5816,2.5486,2.51,2.4896,2.483,2.4646,2.4284,2.4116,2.3893,2.3444,2.3247,2.3135,2.3022,2.3022,2.3022,2.3133,2.3499,2.3925,2.41,2.4577,2.4913,2.5056,2.5072,2.5072,2.5072,2.5072,2.5072,2.5072,2.5072,2.5072,2.5072,2.5072,2.5072,2.5072,2.5042,2.5042,2.4857,2.4734,2.4518,2.4317,2.3991,2.3774,2.3542,2.3355,2.3386,2.3293,2.3168,2.3062,3.027,2.9964,2.9647,2.9508,2.9485,2.9416,2.921,2.8978,2.8396,2.7904,2.7476,2.7023,2.6309,2.5638,2.5759,2.5469,2.482,2.4734,2.4751,2.4783,2.4636,2.4753,2.4893,2.4581,2.4452,2.4544,2.4324,2.4202,2.4202,2.4202,2.4202,2.4202,2.4202,2.4202,2.422,2.433,2.4404,2.4422,2.4507,2.4581,2.4587,2.4434,2.4452,2.4452,2.3895,2.3449,2.334,2.3602,2.3724,2.3785,2.403,2.4202,2.4202,2.433,2.4379,2.4434,2.4783,2.5058,2.5223,2.5727,2.6031,2.6178,2.6435,2.6618,2.6591,2.63,2.5981,2.5706,2.5386,2.5083,2.4868,2.483,2.4618,2.4228,2.4005,2.3753,2.336,2.3119,2.305,2.3022,2.3022,2.3025,2.32,2.3734,2.4068,2.4227,2.4754,2.5057,2.5072,2.5072,2.5072,2.5072,2.5072,2.5072,2.5072,2.5072,2.5072,2.5072,2.5072,2.5072,2.5042,2.5011,2.4888,2.4703,2.4487,2.4255,2.3976,2.365,2.3355,2.3137,2.3137,2.3199,2.3168,2.3137,2.3062,2.9194,2.8858,2.9238,2.9301,2.9232,2.8979,2.8608,2.804,2.7736,2.7276,2.6843,2.6685,2.6422,2.6,2.6041,2.5858,2.5434,2.5215,2.5078,2.4948,2.5186,2.4966,2.4544,2.4728,2.4636,2.4404,2.4275,2.4275,2.4312,2.433,2.433,2.4275,2.433,2.4367,2.4257,2.4636,2.4819,2.4874,2.5113,2.5315,2.5333,2.4985,2.4966,2.5242,2.4911,2.4544,2.4195,2.422,2.4257,2.4202,2.422,2.422,2.4312,2.4599,2.4819,2.4874,2.5186,2.5572,2.5911,2.6021,2.6233,2.6472,2.6573,2.6618,2.6564,2.6272,2.5953,2.5706,2.5376,2.5072,2.484,2.483,2.4757,2.4701,2.4172,2.3865,2.368,2.3316,2.3022,2.3022,2.3022,2.3136,2.347,2.3861,2.4209,2.4514,2.4849,2.5072,2.5072,2.5072,2.5072,2.5072,2.5072,2.5072,2.5072,2.5072,2.5072,2.5072,2.5072,2.5072,2.5011,2.4949,2.4703,2.4487,2.3976,2.3759,2.3728,2.3417,2.3261,2.3106,2.3106,2.3106,2.3106,2.3106,2.3106,2.8307,2.8411,2.7908,2.7712,2.7689,2.7431,2.7311,2.7382,2.726,2.7198,2.7108,2.6965,2.6619,2.6155,2.5999,2.5875,2.58,2.5724,2.5687,2.5617,2.548,2.5572,2.57,2.5388,2.515,2.504,2.5021,2.5021,2.5029,2.5003,2.5021,2.5021,2.5003,2.5021,2.4985,2.515,2.5223,2.5223,2.5333,2.5388,2.5388,2.5278,2.5278,2.537,2.5278,2.515,2.5021,2.5021,2.4874,2.4636,2.4617,2.4617,2.4691,2.4985,2.5205,2.526,2.559,2.5829,2.6021,2.6251,2.6453,2.6582,2.6618,2.6618,2.6564,2.6136,2.5816,2.5651,2.5255,2.4868,2.483,2.483,2.4646,2.4228,2.4005,2.3753,2.3372,2.3135,2.305,2.3022,2.3022,2.3152,2.347,2.3877,2.4243,2.4593,2.4897,2.5072,2.5072,2.5072,2.5072,2.5072,2.5072,2.5072,2.5072,2.5072,2.5072,2.5072,2.5072,2.5011,2.4949,2.4764,2.4518,2.4146,2.3635,2.3386,2.3355,2.3261,2.3137,2.3106,2.3106,2.3106,2.3106,2.3106,2.3106,2.7532,2.776,2.7047,2.6858,2.6932,2.6713,2.6832,2.7162,2.7103,2.7136,2.7221,2.7117,2.6833,2.6482,2.63,2.6242,2.6241,2.6233,2.6215,2.6196,2.5994,2.6013,2.6141,2.5664,2.5388,2.5388,2.5388,2.5388,2.5388,2.5388,2.5388,2.5388,2.5388,2.5388,2.5425,2.5554,2.5627,2.5627,2.5774,2.5847,2.5811,2.57,2.5682,2.5811,2.57,2.57,2.5829,2.5847,2.559,2.515,2.5021,2.5021,2.5058,2.5388,2.5609,2.5682,2.5976,2.6215,2.6251,2.6453,2.6618,2.6618,2.6618,2.6618,2.6509,2.6108,2.5844,2.5651,2.5266,2.4923,2.483,2.483,2.4535,2.3977,2.3921,2.3641,2.3163,2.3022,2.3022,2.3038,2.3105,2.3343,2.3689,2.4039,2.4418,2.4752,2.496,2.5072,2.5072,2.5072,2.5072,2.5072,2.5072,2.5072,2.5072,2.5072,2.5072,2.5072,2.5072,2.4949,2.4857,2.4548,2.427,2.379,2.3293,2.3261,2.323,2.3168,2.3106,2.3106,2.3106,2.3106,2.3106,2.3106,2.3106,2.6877,2.6869,2.6633,2.6794,2.7061,2.6884,2.7042,2.7348,2.7204,2.7115,2.7175,2.7207,2.7072,2.6877,2.6809,2.6707,2.6627,2.6536,2.6545,2.6563,2.6472,2.627,2.5756,2.5645,2.5627,2.5572,2.5554,2.5535,2.5609,2.559,2.5462,2.5572,2.559,2.5499,2.5627,2.5892,2.6031,2.6068,2.638,2.6527,2.6527,2.6215,2.6178,2.6508,2.6215,2.6178,2.6435,2.6472,2.6178,2.5554,2.5425,2.5425,2.5499,2.5811,2.6031,2.6031,2.6398,2.6527,2.66,2.6582,2.6618,2.6618,2.6618,2.6618,2.6564,2.6218,2.5898,2.5706,2.5348,2.5045,2.484,2.4774,2.4451,2.4005,2.3781,2.3512,2.3106,2.3022,2.301,2.3089,2.3327,2.366,2.4036,2.4386,2.4674,2.496,2.5087,2.5072,2.5072,2.5072,2.5072,2.5072,2.5072,2.5072,2.5072,2.5072,2.5072,2.5072,2.5072,2.498,2.4826,2.4518,2.4115,2.3573,2.323,2.3199,2.3137,2.3106,2.3106,2.3106,2.3106,2.3106,2.3106,2.3106,2.3106,2.6794,2.7028,2.6807,2.6968,2.7276,2.7064,2.7218,2.759,2.7552,2.7656,2.7805,2.7508,2.7286,2.7209,2.6844,2.6673,2.6618,2.6618,2.6618,2.6618,2.6618,2.6527,2.6325,2.6288,2.627,2.6251,2.6215,2.6261,2.6261,2.6233,2.6251,2.6306,2.6233,2.6224,2.6298,2.6361,2.6453,2.6453,2.6527,2.6618,2.66,2.6508,2.6508,2.6563,2.649,2.649,2.6618,2.6618,2.6398,2.5929,2.5829,2.5829,2.5866,2.6196,2.6416,2.6435,2.6527,2.6618,2.6618,2.6618,2.6618,2.6618,2.6618,2.6618,2.6591,2.6108,2.5816,2.5596,2.5238,2.4896,2.4785,2.4607,2.4228,2.3697,2.346,2.3235,2.3094,2.3022,2.3073,2.3327,2.3441,2.3848,2.4291,2.4577,2.4738,2.5008,2.5072,2.5072,2.5072,2.5072,2.5072,2.5072,2.5072,2.5072,2.5072,2.5072,2.5072,2.5072,2.5072,2.5072,2.4888,2.4672,2.4208,2.3666,2.3479,2.3386,2.3199,2.3106,2.3106,2.3106,2.3106,2.3106,2.3106,2.3106,2.3106,2.6747,2.6963,2.6913,2.7128,2.7477,2.7362,2.7539,2.7897,2.7956,2.7994,2.8002,2.7611,2.7341,2.7179,2.6791,2.6618,2.6618,2.6618,2.6618,2.6618,2.6618,2.66,2.66,2.6618,2.6618,2.6618,2.6618,2.66,2.66,2.6618,2.6618,2.6582,2.6618,2.6618,2.6582,2.6618,2.6618,2.66,2.6618,2.6618,2.6618,2.6618,2.6618,2.6618,2.6618,2.6618,2.6618,2.6618,2.649,2.6288,2.6251,2.6251,2.627,2.6472,2.6618,2.6618,2.6618,2.6618,2.6618,2.6618,2.6618,2.6618,2.6618,2.6537,2.64,2.6053,2.5816,2.5459,2.5128,2.4951,2.4757,2.4423,2.4005,2.3601,2.3319,2.3228,2.3244,2.3216,2.3375,2.3644,2.3882,2.4086,2.4593,2.469,2.4881,2.504,2.5072,2.5072,2.5072,2.5072,2.5072,2.5072,2.5072,2.5072,2.5072,2.5072,2.5072,2.5072,2.5072,2.5072,2.4857,2.4672,2.4208,2.3759,2.3666,2.351,2.3261,2.3106,2.3106,2.3106,2.3106,2.3106,2.3106,2.3106,2.3106,2.6864,2.6918,2.7016,2.7324,2.7721,2.7761,2.793,2.8169,2.8189,2.8075,2.7826,2.7503,2.7233,2.6989,2.6736,2.6618,2.6618,2.6618,2.6618,2.6618,2.6618,2.6618,2.6618,2.6618,2.6618,2.6618,2.6618,2.6618,2.6618,2.6618,2.6618,2.6618,2.6618,2.6618,2.6618,2.6618,2.6618,2.6618,2.6618,2.6618,2.6618,2.6618,2.6618,2.6618,2.6618,2.6618,2.6618,2.6618,2.6582,2.66,2.6618,2.6554,2.6582,2.66,2.6618,2.6618,2.6618,2.6618,2.6618,2.6618,2.6618,2.6618,2.6564,2.6464,2.6245,2.6008,2.5734,2.5404,2.5193,2.4962,2.4691,2.4234,2.3907,2.3663,2.3575,2.3578,2.3613,2.3597,2.3737,2.4084,2.4418,2.4577,2.4706,2.4881,2.5072,2.5071,2.5072,2.5072,2.5072,2.5072,2.5072,2.5072,2.5072,2.5072,2.5072,2.5072,2.5072,2.5072,2.5072,2.5011,2.4734,2.4487,2.4084,2.3774,2.3635,2.3448,2.3199,2.3106,2.3106,2.3106,2.3106,2.3106,2.3106,2.3106,2.3106,2.7172,2.7532,2.7532,2.78,2.8125,2.8144,2.8096,2.7987,2.7987,2.7826,2.7503,2.7206,2.7043,2.6962,2.6709,2.6618,2.6618,2.6618,2.6618,2.6618,2.6618,2.6618,2.6618,2.6618,2.6618,2.6618,2.6618,2.6618,2.6618,2.6618,2.6618,2.6618,2.6618,2.6618,2.6618,2.6618,2.6618,2.6618,2.6618,2.6618,2.6618,2.6618,2.6618,2.6618,2.6618,2.6618,2.6618,2.6618,2.6618,2.6618,2.6618,2.6618,2.6618,2.6618,2.6618,2.6618,2.6618,2.6618,2.6618,2.6618,2.6618,2.6591,2.6409,2.6272,2.6455,2.5789,2.5569,2.5431,2.5183,2.4812,2.4519,2.4201,2.4004,2.3885,2.394,2.4084,2.4259,2.4132,2.4148,2.4418,2.4577,2.472,2.4944,2.4992,2.5072,2.5072,2.5072,2.5072,2.5072,2.5072,2.5072,2.5072,2.5072,2.5072,2.5072,2.5072,2.5072,2.5072,2.5072,2.498,2.4703,2.4409,2.4069,2.3821,2.3604,2.3386,2.3168,2.3106,2.3106,2.3106,2.3106,2.3106,2.3106,2.3106,2.3164,2.7461,2.7728,2.7897,2.8112,2.8281,2.8301,2.8147,2.7933,2.7906,2.7638,2.726,2.7043,2.6935,2.6818,2.6655,2.6618,2.6618,2.6618,2.6618,2.6618,2.6618,2.6618,2.6618,2.6618,2.6618,2.6618,2.6618,2.6618,2.6618,2.6618,2.6618,2.6618,2.6618,2.6618,2.6618,2.6618,2.6618,2.6618,2.6618,2.6618,2.6618,2.6618,2.6618,2.6618,2.6618,2.6618,2.6618,2.6618,2.6618,2.6618,2.6618,2.6618,2.6618,2.6618,2.6618,2.6618,2.6618,2.6618,2.6618,2.6618,2.6618,2.6618,2.6409,2.6354,2.6272,2.5761,2.5486,2.5376,2.5079,2.4714,2.4451,2.43,2.4183,2.4108,2.422,2.4432,2.4529,2.445,2.4466,2.4722,2.4833,2.4928,2.504,2.5057,2.5072,2.5072,2.5072,2.5072,2.5072,2.5072,2.5072,2.5072,2.5072,2.5072,2.5072,2.5072,2.5072,2.5072,2.5072,2.4919,2.4672,2.4425,2.4131,2.3867,2.3603,2.3386,2.3199,2.3168,2.312,2.312,2.312,2.3106,2.3135,2.3179,2.3281,2.78,2.7767,2.8091,2.8201,2.8174,2.814,2.796,2.7772,2.7772,2.7395,2.7016,2.6935,2.6791,2.6646,2.6618,2.6618,2.6618,2.6618,2.6618,2.6618,2.6618,2.6618,2.6618,2.6618,2.6618,2.6618,2.6618,2.6618,2.6618,2.6618,2.6618,2.6618,2.6618,2.6618,2.6618,2.6618,2.6618,2.6618,2.6618,2.6618,2.6618,2.6618,2.6618,2.6618,2.6618,2.6618,2.6618,2.6618,2.6618,2.6618,2.6618,2.6618,2.6618,2.6618,2.6618,2.6618,2.6618,2.6618,2.6618,2.6618,2.6618,2.6618,2.6482,2.64,2.619,2.5806,2.5557,2.5395,2.5203,2.4896,2.4601,2.4552,2.4451,2.4354,2.4542,2.4657,2.4658,2.4658,2.4817,2.4976,2.5024,2.5056,2.5071,2.5072,2.5072,2.5072,2.5072,2.5072,2.5072,2.5072,2.5072,2.5072,2.5072,2.5072,2.5072,2.5167,2.5151,2.5247,2.5199,2.5061,2.4859,2.4843,2.4624,2.388,2.3524,2.3398,2.3333,2.3269,2.3223,2.3164,2.3237,2.3325,2.3325,2.3267,2.3427,2.8077,2.7863,2.7948,2.7799,2.7557,2.7557,2.7422,2.7179,2.7206,2.6981,2.6709,2.6673,2.6673,2.6618,2.6618,2.6618,2.6618,2.6618,2.6618,2.6618,2.6618,2.6618,2.6618,2.6618,2.6618,2.6618,2.6618,2.6618,2.6618,2.6618,2.6618,2.6618,2.6618,2.6618,2.6618,2.6618,2.6618,2.6618,2.6618,2.6618,2.6618,2.6618,2.6618,2.6618,2.6618,2.6618,2.6618,2.6618,2.6618,2.6618,2.6618,2.6618,2.6618,2.6618,2.6618,2.6618,2.6618,2.6618,2.6618,2.6618,2.6618,2.6509,2.6245,2.6236,2.6181,2.5695,2.5548,2.5726,2.56,2.5321,2.5215,2.5005,2.4925,2.4894,2.4875,2.4976,2.4992,2.4992,2.4992,2.5057,2.5072,2.5072,2.5072,2.5072,2.5072,2.5072,2.5072,2.5072,2.5072,2.5072,2.5072,2.5072,2.5072,2.5072,2.5072,2.5183,2.5262,2.5469,2.5501,2.5471,2.536,2.55,2.5134,2.4259,2.373,2.3586,2.3491,2.3427,2.3471,2.3515,2.3559,2.3603,2.3632,2.3662,2.3793,2.8147,2.7906,2.7906,2.7718,2.7441,2.7395,2.7233,2.7016,2.6989,2.6826,2.6655,2.6618,2.6618,2.6618,2.6618,2.6618,2.6618,2.6618,2.6618,2.6618,2.6618,2.6618,2.6618,2.6618,2.6618,2.6618,2.6618,2.6618,2.6618,2.6618,2.6618,2.6618,2.6618,2.6618,2.6618,2.6618,2.6618,2.6618,2.6618,2.6618,2.6618,2.6618,2.6618,2.6618,2.6618,2.6618,2.6618,2.6618,2.6618,2.6618,2.6618,2.6618,2.6618,2.6618,2.6618,2.6618,2.6618,2.6618,2.6618,2.6618,2.6618,2.6591,2.6291,2.6427,2.6554,2.6246,2.5789,2.5857,2.5771,2.5457,2.5406,2.5218,2.5064,2.5046,2.5069,2.5087,2.5072,2.5072,2.5072,2.5072,2.5072,2.5072,2.5072,2.5072,2.5072,2.5072,2.5072,2.5072,2.5072,2.512,2.5152,2.5262,2.5326,2.5453,2.5453,2.5485,2.5595,2.5771,2.5818,2.5786,2.5625,2.5637,2.519,2.4402,2.4087,2.4001,2.3843,2.3808,2.3837,2.3852,2.3866,2.3943,2.4031,2.4118,2.4236,2.8006,2.7799,2.7745,2.753,2.7279,2.7252,2.7098,2.6935,2.6908,2.6791,2.6646,2.6618,2.6618,2.6618,2.6618,2.6618,2.6618,2.6618,2.6618,2.6618,2.6618,2.6618,2.6618,2.6618,2.6618,2.6618,2.6618,2.6618,2.6618,2.6618,2.6618,2.6618,2.6618,2.6618,2.6618,2.6618,2.6618,2.6618,2.6618,2.6618,2.6618,2.6618,2.6618,2.6618,2.6618,2.6618,2.6618,2.6618,2.6618,2.6618,2.6618,2.6618,2.6618,2.6618,2.6618,2.6618,2.6618,2.6618,2.6618,2.6618,2.6655,2.6784,2.6665,2.6838,2.6981,2.6682,2.63,2.6052,2.586,2.5683,2.5635,2.5324,2.5167,2.5084,2.5087,2.5072,2.5072,2.5072,2.5072,2.5072,2.5072,2.5072,2.5072,2.5072,2.5072,2.5072,2.5072,2.5072,2.5104,2.5247,2.5326,2.5485,2.5612,2.585,2.5929,2.5961,2.6057,2.6216,2.6183,2.6102,2.586,2.5632,2.5149,2.4823,2.4815,2.4711,2.4458,2.4192,2.4174,2.4188,2.4221,2.4294,2.4456,2.4514,2.4573,2.7476,2.7422,2.7233,2.6954,2.6727,2.6736,2.67,2.6673,2.67,2.6646,2.6618,2.6618,2.6618,2.6618,2.6618,2.6618,2.6618,2.6618,2.6618,2.6618,2.6618,2.6618,2.6618,2.6618,2.6618,2.6618,2.6618,2.6618,2.6618,2.6618,2.6618,2.6618,2.6618,2.6618,2.6618,2.6618,2.6618,2.6618,2.6618,2.6618,2.6618,2.6618,2.6618,2.6655,2.6655,2.671,2.6747,2.6784,2.6719,2.6683,2.6646,2.6637,2.6618,2.6618,2.6618,2.6618,2.6618,2.6618,2.6655,2.6692,2.6857,2.7003,2.6892,2.6941,2.7011,2.7022,2.6719,2.6464,2.6363,2.6231,2.5949,2.5696,2.5409,2.521,2.5072,2.5072,2.5072,2.5072,2.5072,2.5072,2.5072,2.5072,2.5072,2.5072,2.5072,2.5072,2.5088,2.5104,2.5199,2.539,2.5675,2.5882,2.6009,2.62,2.6391,2.6422,2.647,2.6629,2.642,2.6322,2.6042,2.5808,2.5794,2.5556,2.5453,2.5152,2.473,2.4507,2.4514,2.4543,2.4543,2.4719,2.4954,2.4954,2.4866,2.726,2.7395,2.7287,2.6981,2.6618,2.6618,2.6618,2.6618,2.6618,2.6618,2.6618,2.6618,2.6618,2.6618,2.6618,2.6618,2.6618,2.6618,2.6618,2.6618,2.6618,2.6618,2.6618,2.6618,2.6618,2.6618,2.6618,2.6618,2.6618,2.6618,2.6618,2.6618,2.6618,2.6618,2.6618,2.6618,2.6618,2.6618,2.6618,2.6618,2.6618,2.6637,2.6729,2.6949,2.6949,2.7059,2.7206,2.7279,2.7279,2.7279,2.7279,2.7279,2.7279,2.7298,2.7298,2.7298,2.7298,2.7206,2.7004,2.6967,2.7169,2.7342,2.7262,2.7065,2.7122,2.7181,2.7111,2.6863,2.65,2.625,2.6006,2.5625,2.5349,2.5134,2.5072,2.5072,2.5072,2.5072,2.5072,2.5072,2.5088,2.5104,2.512,2.5152,2.5168,2.5168,2.5279,2.5406,2.5548,2.5755,2.6088,2.6407,2.6486,2.6566,2.674,2.6867,2.6851,2.6866,2.6399,2.6282,2.6136,2.6008,2.5969,2.5831,2.5618,2.5253,2.4926,2.4838,2.4874,2.4885,2.488,2.4983,2.5071,2.5071,2.4998,2.7152,2.7395,2.7314,2.7035,2.6618,2.6618,2.6618,2.6618,2.6618,2.6618,2.6618,2.6618,2.6618,2.6618,2.6618,2.6618,2.6618,2.6618,2.6618,2.6618,2.6618,2.6618,2.6618,2.6618,2.6618,2.6618,2.6618,2.6618,2.6618,2.6618,2.6618,2.6618,2.6618,2.6618,2.6618,2.6637,2.6655,2.682,2.693,2.6986,2.694,2.6967,2.7114,2.7261,2.7389,2.75,2.7738,2.7757,2.7757,2.7738,2.7701,2.7683,2.7701,2.7665,2.7711,2.7665,2.7665,2.7683,2.7518,2.75,2.7591,2.7716,2.7759,2.7533,2.7169,2.7352,2.7401,2.7082,2.6476,2.6189,2.5961,2.5502,2.5195,2.5103,2.5072,2.5072,2.5072,2.5072,2.5072,2.5072,2.5104,2.5184,2.5215,2.5231,2.5278,2.5294,2.5422,2.566,2.5929,2.6168,2.6422,2.6757,2.6836,2.6884,2.6962,2.7137,2.7185,2.7086,2.6617,2.6372,2.6308,2.6139,2.6023,2.5868,2.5727,2.5532,2.5316,2.5252,2.5187,2.5094,2.4998,2.5042,2.5086,2.51,2.51,2.7152,2.7414,2.7125,2.6872,2.6618,2.6618,2.6618,2.6618,2.6618,2.6618,2.6618,2.6618,2.6618,2.6618,2.6618,2.6618,2.6618,2.6618,2.6618,2.6618,2.6618,2.6618,2.6618,2.6618,2.6618,2.6618,2.6618,2.6618,2.6618,2.6618,2.6618,2.6618,2.6618,2.6618,2.6692,2.6774,2.6949,2.7169,2.7389,2.7555,2.7573,2.7591,2.7665,2.772,2.7757,2.7775,2.7812,2.7903,2.794,2.7958,2.7977,2.7977,2.8014,2.7995,2.8014,2.8014,2.7995,2.8069,2.8124,2.7977,2.7985,2.8228,2.8179,2.7896,2.7442,2.7422,2.7388,2.7073,2.6449,2.6097,2.587,2.5564,2.5134,2.5072,2.5072,2.5072,2.5072,2.5072,2.5072,2.5072,2.5168,2.531,2.5516,2.558,2.5596,2.5628,2.5802,2.6009,2.6374,2.6645,2.6787,2.6994,2.7089,2.7121,2.7137,2.72,2.72,2.7134,2.6874,2.6692,2.662,2.6404,2.6057,2.6103,2.6011,2.5876,2.5708,2.5524,2.5356,2.5153,2.51,2.51,2.51,2.51,2.51,2.7071,2.7125,2.7043,2.6872,2.6618,2.6618,2.6618,2.6618,2.6618,2.6618,2.6618,2.6618,2.6618,2.6618,2.6618,2.6618,2.6618,2.6618,2.6618,2.6618,2.6618,2.6618,2.6618,2.6618,2.6618,2.6618,2.6618,2.6618,2.6618,2.6618,2.6618,2.6618,2.6655,2.6802,2.6885,2.7169,2.7408,2.7518,2.7701,2.7793,2.7793,2.7812,2.7922,2.815,2.8179,2.8326,2.8509,2.8546,2.8546,2.8528,2.8509,2.8472,2.8454,2.8472,2.8472,2.8472,2.8454,2.8535,2.8608,2.8407,2.8264,2.8251,2.811,2.7779,2.7491,2.7388,2.7116,2.6753,2.6419,2.6067,2.5717,2.538,2.5072,2.5072,2.5072,2.5072,2.512,2.5152,2.531,2.5405,2.5485,2.5612,2.5786,2.5977,2.5977,2.6009,2.6184,2.6406,2.6724,2.693,2.7042,2.7105,2.7169,2.72,2.72,2.72,2.72,2.7134,2.7067,2.6934,2.6767,2.6365,2.61,2.6197,2.628,2.6078,2.591,2.5727,2.5491,2.5187,2.5086,2.51,2.51,2.51,2.51,2.6935,2.6989,2.6908,2.6763,2.6618,2.6618,2.6618,2.6618,2.6618,2.6618,2.6618,2.6618,2.6618,2.6618,2.6618,2.6618,2.6618,2.6618,2.6618,2.6618,2.6618,2.6618,2.6618,2.6618,2.6618,2.6618,2.6618,2.6618,2.6618,2.6618,2.671,2.6784,2.6802,2.6958,2.7224,2.7701,2.7977,2.7977,2.8124,2.8142,2.8179,2.8197,2.8271,2.8553,2.8601,2.8693,2.8858,2.8865,2.8883,2.8902,2.892,2.8938,2.8957,2.8975,2.8975,2.8975,2.8975,2.8975,2.8902,2.8781,2.8494,2.8277,2.8152,2.7779,2.7418,2.7237,2.7146,2.6662,2.6297,2.5961,2.561,2.5304,2.5103,2.5072,2.5072,2.5088,2.5263,2.5342,2.5564,2.5723,2.5818,2.5914,2.6215,2.6422,2.6422,2.6454,2.6597,2.6771,2.6946,2.7105,2.7137,2.7169,2.7185,2.72,2.72,2.72,2.72,2.7167,2.71,2.7034,2.68,2.6465,2.6398,2.6633,2.6599,2.6298,2.6045,2.5809,2.5491,2.5153,2.5119,2.51,2.51,2.51,2.51,2.6763,2.6935,2.6755,2.6618,2.6618,2.6618,2.6618,2.6618,2.6618,2.6618,2.6618,2.6618,2.6618,2.6618,2.6618,2.6618,2.6618,2.6618,2.6618,2.6618,2.6618,2.6618,2.6618,2.6618,2.6618,2.6618,2.6618,2.6618,2.6618,2.671,2.6875,2.7114,2.7224,2.7288,2.7334,2.8014,2.8352,2.8425,2.8766,2.8821,2.8821,2.8773,2.881,2.8847,2.8895,2.892,2.8957,2.8975,2.8975,2.8975,2.8975,2.8975,2.8975,2.8975,2.8975,2.8975,2.8975,2.8975,2.8975,2.8957,2.86,2.8182,2.808,2.7797,2.7345,2.7207,2.7086,2.6419,2.6175,2.59,2.5594,2.5334,2.5165,2.5152,2.5168,2.531,2.5469,2.5628,2.5818,2.6057,2.6184,2.6311,2.6645,2.6851,2.6835,2.6899,2.7042,2.7153,2.7185,2.72,2.72,2.72,2.72,2.72,2.72,2.72,2.72,2.72,2.7167,2.7067,2.7067,2.6934,2.6967,2.71,2.6767,2.6313,2.6045,2.5843,2.5506,2.5187,2.5119,2.51,2.51,2.5115,2.513,2.6763,2.6962,2.6709,2.6618,2.6618,2.6618,2.6618,2.6618,2.6618,2.6618,2.6618,2.6618,2.6618,2.6618,2.6618,2.6618,2.6618,2.6618,2.6618,2.6618,2.6618,2.6618,2.6618,2.6618,2.6618,2.6618,2.6618,2.6618,2.6618,2.6793,2.7022,2.7243,2.7738,2.7967,2.8113,2.8517,2.8792,2.8792,2.892,2.8975,2.8975,2.8975,2.8975,2.8975,2.8975,2.8975,2.8975,2.8975,2.8975,2.8975,2.8975,2.8975,2.8975,2.8975,2.8975,2.8975,2.8975,2.8975,2.8856,2.8677,2.8379,2.8157,2.7857,2.7556,2.7133,2.6935,2.6571,2.6175,2.5992,2.5656,2.5304,2.5211,2.5167,2.5406,2.5501,2.5691,2.585,2.5977,2.612,2.6391,2.655,2.6693,2.6946,2.7026,2.7026,2.7042,2.7137,2.7169,2.72,2.72,2.72,2.72,2.72,2.72,2.72,2.72,2.72,2.72,2.72,2.7167,2.7167,2.72,2.7034,2.6934,2.6599,2.6246,2.6011,2.5775,2.5506,2.5255,2.528,2.5207,2.5159,2.5188,2.5203,2.6709,2.6845,2.6655,2.6618,2.6618,2.6618,2.6618,2.6618,2.6618,2.6618,2.6618,2.6618,2.6618,2.6618,2.6618,2.6618,2.6618,2.6618,2.6618,2.6618,2.6618,2.6618,2.6618,2.6618,2.6618,2.6618,2.6637,2.6628,2.6857,2.705,2.7389,2.7793,2.8271,2.8509,2.8693,2.8858,2.8957,2.8938,2.8975,2.8975,2.8975,2.8975,2.8975,2.8975,2.8975,2.8975,2.8975,2.8975,2.8975,2.8975,2.8975,2.8975,2.8975,2.8975,2.8975,2.8975,2.8975,2.8886,2.8558,2.8349,2.811,2.802,2.7509,2.7237,2.7103,2.6982,2.6479,2.6083,2.5794,2.5585,2.5371,2.5293,2.5437,2.5675,2.5866,2.6041,2.6247,2.6359,2.647,2.6725,2.6884,2.7026,2.7121,2.7153,2.7153,2.7169,2.72,2.72,2.72,2.72,2.72,2.72,2.72,2.72,2.72,2.72,2.72,2.72,2.72,2.72,2.72,2.7167,2.6967,2.6784,2.6599,2.6331,2.5928,2.5674,2.5498,2.547,2.5578,2.5476,2.5295,2.5408,2.5535,2.6618,2.6618,2.6618,2.6618,2.6618,2.6618,2.6618,2.6618,2.6618,2.6618,2.6618,2.6618,2.6618,2.6618,2.6618,2.6618,2.6618,2.6618,2.6618,2.6618,2.6618,2.6618,2.6618,2.6618,2.6618,2.6618,2.6655,2.6756,2.7132,2.7426,2.7765,2.8278,2.8711,2.8876,2.895,2.8968,2.8975,2.8975,2.8975,2.8975,2.8975,2.8975,2.8975,2.8975,2.8975,2.8975,2.8975,2.8975,2.8975,2.8975,2.8975,2.8975,2.8975,2.8975,2.8975,2.8975,2.8975,2.8636,2.8289,2.808,2.7779,2.7659,2.7431,2.7297,2.7056,2.68,2.6377,2.6105,2.5925,2.5794,2.5658,2.5738,2.5786,2.6009,2.6184,2.6391,2.6645,2.6788,2.6884,2.6994,2.7089,2.7185,2.7169,2.72,2.72,2.72,2.72,2.72,2.72,2.72,2.72,2.72,2.72,2.72,2.72,2.72,2.72,2.72,2.72,2.72,2.72,2.7167,2.7,2.6833,2.6684,2.6429,2.6031,2.5786,2.5612,2.5667,2.5967,2.6066,2.5963,2.6081,2.6224,2.6618,2.6618,2.6618,2.6618,2.6618,2.6618,2.6618,2.6618,2.6618,2.6618,2.6618,2.6618,2.6618,2.6618,2.6618,2.6618,2.6618,2.6618,2.6618,2.6618,2.6618,2.6618,2.6618,2.6618,2.6618,2.6618,2.6646,2.6848,2.7298,2.7665,2.8223,2.8773,2.8902,2.8975,2.8975,2.8975,2.8975,2.8975,2.8975,2.8975,2.8975,2.8975,2.8975,2.8975,2.8975,2.8975,2.8975,2.8975,2.8975,2.8975,2.8975,2.8975,2.8975,2.8975,2.8975,2.8964,2.8815,2.8517,2.8307,2.793,2.7521,2.7237,2.7025,2.6874,2.6631,2.6455,2.6201,2.6099,2.6013,2.5927,2.5977,2.6088,2.6232,2.6422,2.6566,2.6693,2.6883,2.6978,2.7089,2.7105,2.72,2.72,2.72,2.72,2.72,2.72,2.72,2.72,2.72,2.72,2.72,2.72,2.72,2.72,2.72,2.72,2.72,2.72,2.72,2.72,2.72,2.7134,2.7,2.6847,2.6721,2.6423,2.6087,2.5927,2.5918,2.6195,2.6464,2.6568,2.6672,2.6772,2.6898,2.6618,2.6618,2.6618,2.6618,2.6618,2.6618,2.6618,2.6618,2.6618,2.6618,2.6618,2.6618,2.6618,2.6618,2.6618,2.6618,2.6618,2.6618,2.6618,2.6618,2.6618,2.6618,2.6618,2.6618,2.6618,2.6628,2.6793,2.7096,2.7536,2.8197,2.8792,2.892,2.8975,2.8975,2.8975,2.8975,2.8975,2.8975,2.8975,2.8975,2.8975,2.8975,2.8975,2.8975,2.8975,2.8975,2.8975,2.8975,2.8975,2.8945,2.8916,2.8904,2.8904,2.8904,2.8815,2.8725,2.8487,2.8229,2.799,2.7732,2.7328,2.6935,2.6587,2.6549,2.6527,2.6426,2.623,2.6094,2.6085,2.6104,2.6264,2.6422,2.6645,2.6884,2.6914,2.6978,2.7073,2.7169,2.72,2.7185,2.72,2.72,2.72,2.72,2.72,2.72,2.72,2.72,2.72,2.72,2.72,2.72,2.72,2.72,2.72,2.72,2.72,2.72,2.72,2.72,2.72,2.7215,2.7211,2.6967,2.6701,2.6565,2.661,2.6383,2.6389,2.6753,2.721,2.7502,2.7588,2.7467,2.7605,2.6618,2.6618,2.6618,2.6618,2.6618,2.6618,2.6618,2.6618,2.6618,2.6618,2.6618,2.6618,2.6618,2.6618,2.6618,2.6618,2.6618,2.6618,2.6618,2.6618,2.6618,2.6618,2.6618,2.6618,2.6692,2.6802,2.7022,2.7334,2.7922,2.8509,2.8902,2.8975,2.8975,2.8975,2.8975,2.8975,2.8975,2.8975,2.8975,2.8975,2.8975,2.8975,2.8975,2.8975,2.8975,2.8975,2.8975,2.8975,2.8975,2.8856,2.8755,2.8696,2.8666,2.8636,2.8517,2.8427,2.8217,2.796,2.7749,2.7491,2.7099,2.6692,2.6269,2.6267,2.623,2.6202,2.6049,2.6373,2.6456,2.652,2.6662,2.6725,2.6916,2.701,2.7073,2.7105,2.7137,2.72,2.72,2.72,2.72,2.72,2.72,2.72,2.72,2.72,2.72,2.72,2.72,2.72,2.72,2.72,2.72,2.72,2.72,2.72,2.72,2.72,2.7248,2.7312,2.7391,2.7423,2.7439,2.7306,2.7233,2.7297,2.7312,2.7063,2.7135,2.7711,2.8129,2.8486,2.8502,2.8262,2.813,2.6618,2.6618,2.6618,2.6618,2.6618,2.6618,2.6618,2.6618,2.6618,2.6618,2.6618,2.6618,2.6618,2.6618,2.6618,2.6618,2.6618,2.6618,2.6618,2.6618,2.6618,2.6618,2.6618,2.6618,2.6738,2.7004,2.7261,2.76,2.8223,2.8718,2.8975,2.8975,2.8975,2.8975,2.8975,2.8975,2.8975,2.8975,2.8975,2.8993,2.8964,2.8993,2.8975,2.8975,2.8975,2.8975,2.8975,2.8964,2.8815,2.8636,2.8546,2.8427,2.8229,2.817,2.814,2.808,2.802,2.7779,2.7551,2.7297,2.6891,2.6505,2.6144,2.6014,2.5909,2.5878,2.6071,2.6568,2.6874,2.6935,2.6963,2.7043,2.7073,2.7137,2.72,2.72,2.72,2.72,2.72,2.72,2.72,2.72,2.72,2.72,2.72,2.72,2.72,2.72,2.72,2.72,2.72,2.72,2.72,2.72,2.72,2.728,2.7312,2.7407,2.7486,2.7534,2.7598,2.7788,2.7947,2.7889,2.7856,2.7916,2.7896,2.768,2.7869,2.8426,2.8647,2.8837,2.9028,2.8873,2.8705,2.6618,2.6618,2.6618,2.6618,2.6618,2.6618,2.6618,2.6618,2.6618,2.6618,2.6618,2.6618,2.6618,2.6618,2.6618,2.6618,2.6618,2.6618,2.6618,2.6618,2.6618,2.6618,2.6618,2.6637,2.6875,2.7132,2.7646,2.8077,2.859,2.881,2.8975,2.8975,2.8975,2.8993,2.8993,2.8975,2.8975,2.8975,2.8975,2.8934,2.8874,2.8904,2.8874,2.8874,2.8904,2.8886,2.8785,2.8785,2.8666,2.8487,2.8367,2.808,2.79,2.7779,2.787,2.787,2.7779,2.7569,2.7371,2.7073,2.6716,2.6393,2.6137,2.6035,2.6312,2.6312,2.636,2.6776,2.6999,2.7091,2.7073,2.7137,2.7137,2.7185,2.72,2.72,2.72,2.72,2.72,2.72,2.72,2.72,2.72,2.72,2.72,2.72,2.72,2.72,2.72,2.7216,2.7216,2.7248,2.7264,2.7232,2.7216,2.7343,2.7469,2.7598,2.7725,2.7868,2.7995,2.8265,2.8437,2.8383,2.8372,2.8452,2.838,2.8222,2.8406,2.8849,2.8967,2.9051,2.921,2.9461,2.9624,2.6618,2.6618,2.6618,2.6618,2.6618,2.6618,2.6618,2.6618,2.6618,2.6618,2.6618,2.6618,2.6618,2.6618,2.6618,2.6618,2.6618,2.6618,2.6618,2.6618,2.6618,2.6618,2.6637,2.6683,2.7077,2.7573,2.8095,2.848,2.8902,2.8975,2.8975,2.8975,2.8993,2.8964,2.8993,2.8945,2.8886,2.8916,2.8904,2.8755,2.8755,2.8755,2.8666,2.8666,2.8725,2.8755,2.8576,2.8505,2.8505,2.8247,2.8067,2.7749,2.7569,2.7478,2.7509,2.7539,2.7405,2.7237,2.7103,2.6837,2.6625,2.6436,2.627,2.6327,2.6582,2.6725,2.6757,2.6868,2.7073,2.7169,2.7185,2.72,2.72,2.72,2.72,2.72,2.72,2.72,2.72,2.72,2.72,2.72,2.72,2.72,2.72,2.72,2.72,2.72,2.7216,2.7248,2.7264,2.7343,2.7423,2.7359,2.7312,2.7534,2.7788,2.7865,2.8008,2.8217,2.8408,2.8678,2.8837,2.8833,2.8854,2.8857,2.892,2.8813,2.9087,2.9174,2.9174,2.921,2.9425,2.9783,3.0515,2.6618,2.6618,2.6618,2.6618,2.6618,2.6618,2.6618,2.6618,2.6618,2.6618,2.6618,2.6618,2.6618,2.6618,2.6618,2.6618,2.6618,2.6618,2.6618,2.6618,2.6618,2.6618,2.6729,2.6967,2.7508,2.804,2.8517,2.8847,2.8975,2.8975,2.8993,2.8964,2.8696,2.8755,2.8945,2.8856,2.8785,2.8845,2.8725,2.8546,2.8487,2.8457,2.8349,2.8367,2.8427,2.8487,2.8517,2.8505,2.8337,2.8037,2.7664,2.7392,2.7267,2.7207,2.7177,2.7116,2.7012,2.6864,2.6716,2.6608,2.6452,2.6463,2.639,2.6536,2.6771,2.6962,2.6994,2.7026,2.7185,2.7185,2.72,2.72,2.72,2.72,2.72,2.72,2.72,2.72,2.72,2.72,2.72,2.72,2.72,2.72,2.72,2.72,2.72,2.7216,2.7296,2.7312,2.7328,2.7486,2.7629,2.7596,2.7627,2.7931,2.8154,2.8214,2.8357,2.8614,2.8837,2.9075,2.9186,2.9087,2.9103,2.9162,2.921,2.9154,2.9226,2.9262,2.9262,2.9369,2.964,3.0335,3.1258]},{"header":{"parameterUnit":"m.s-1","parameterCategory":1,"la1":31.0,"la2":29.5877,"lo1":-88.7671,"lo2":-86.6584,"dy":0.0162,"dx":0.0185,"nx":115,"ny":88,"refTime":"2024-02-02T18:00:00:Z","depth":0,"parameterNumber":3,"parameterNumberName":"V-component_of_WINDS"},"data":[0.0,0.0,0.0,0.0,0.0,0.0,0.0,0.0,0.0,0.0,0.0,0.0,0.0,0.0,0.0,0.0,0.0,0.0,0.0,0.0,0.0,0.0,0.0,0.0,0.0,0.0,0.0,0.0,0.0,0.0,0.0,0.0,0.0,0.0,0.0,0.0,0.0,0.0,0.0,0.0,0.0,0.0,0.0,0.0,0.0,0.0,0.0,0.0,0.0,0.0,0.0,0.0,0.0,0.0,0.0,0.0,0.0,0.0,0.0,0.0,0.0,0.0,0.0,0.0,0.0,0.0,0.0,0.0,0.0,0.0,0.0,0.0,0.0,0.0,0.0,0.0,0.0,0.0,0.0,0.0,0.0,0.0,0.0,0.0,0.0,0.0,0.0,0.0,0.0,0.0,0.0,0.0,0.0,0.0,0.0,0.0,0.0,0.0,0.0,0.0,0.0,0.0,0.0,0.0,0.0,0.0,0.0,0.0,0.0,0.0,0.0,0.0,0.0,0.0,0.0,0.0,0.0,0.0,0.0,0.0,0.0,0.0,0.0,0.0,0.0,0.0,0.0,0.0,0.0,0.0,0.0,0.0,0.0,0.0,0.0,0.0,0.0,0.0,0.0,0.0,0.0,0.0,0.0,0.0,0.0,0.0,0.0,0.0,0.0,0.0,0.0,0.0,0.0,0.0,0.0,0.0,0.0,0.0,0.0,0.0,0.0,0.0,0.0,0.0,0.0,0.0,0.0,0.0,0.0,0.0,0.0,0.0,0.0,0.0,0.0,0.0,0.0,0.0,0.0,0.0,0.0,0.0,0.0,0.0,0.0,0.0,0.0,0.0,0.0,0.0,0.0,0.0,0.0,0.0,0.0,0.0,0.0,0.0,0.0,0.0,0.0,0.0,0.0,0.0,0.0,0.0,0.0,0.0,0.0,0.0,0.0,0.0,0.0,0.0,0.0,0.0,0.0,0.0,0.0,0.0,0.0,0.0,0.0,0.0,0.0,0.0,0.0,0.0,0.0,0.0,0.0,0.0,0.0,0.0,0.0,0.0,0.0,0.0,0.0,0.0,0.0,0.0,0.0,0.0,0.0,0.0,0.0,0.0,0.0,0.0,0.0,0.0,0.0,0.0,0.0,0.0,0.0,0.0,0.0,0.0,0.0,0.0,0.0,0.0,0.0,0.0,0.0,0.0,0.0,0.0,0.0,0.0,0.0,0.0,0.0,0.0,0.0,0.0,0.0,0.0,0.0,0.0,0.0,0.0,0.0,0.0,0.0,0.0,0.0,0.0,0.0,0.0,0.0,0.0,0.0,0.0,0.0,0.0,0.0,0.0,0.0,0.0,0.0,0.0,0.0,0.0,0.0,0.0,0.0,0.0,0.0,0.0,0.0,0.0,0.0,0.0,0.0,0.0,0.0,0.0,0.0,0.0,0.0,0.0,0.0,0.0,0.0,0.0,0.0,0.0,0.0,0.0,0.0,0.0,0.0,0.0,0.0,0.0,0.0,0.0,0.0,0.0,0.0,0.0,0.0,0.0,0.0,0.0,0.0,0.0,0.0,0.0,0.0,0.0,0.0,0.0,0.0,0.0,0.0,0.0,0.0,0.0,0.0,0.0,0.0,0.0,0.0,0.0,0.0,0.0,0.0,0.0,0.0,0.0,0.0,0.0,0.0,0.0,0.0,0.0,0.0,0.0,0.0,0.0,0.0,0.0,0.0,0.0,0.0,0.0,0.0,0.0,0.0,0.0,0.0,0.0,0.0,0.0,0.0,0.0,0.0,0.0,0.0,0.0,0.0,0.0,0.0,0.0,0.0,0.0,0.0,0.0,0.0,0.0,0.0,0.0,0.0,0.0,0.0,0.0,0.0,0.0,0.0,0.0,0.0,0.0,0.0,0.0,0.0,0.0,0.0,0.0,0.0,0.0,0.0,0.0,0.0,0.0,0.0,0.0,0.0,0.0,0.0,0.0,0.0,0.0,0.0,0.0,0.0,0.0,0.0,0.0,0.0,0.0,0.0,0.0,0.0,0.0,0.0,0.0,0.0,0.0,0.0,0.0,0.0,0.0,0.0,0.0,0.0,0.0,0.0,0.0,0.0,0.0,0.0,0.0,0.0,0.0,0.0,0.0,0.0,0.0,0.0,0.0,0.0,0.0,0.0,0.0,0.0,0.0,0.0,0.0,0.0,0.0,0.0,0.0,0.0,0.0,0.0,0.0,0.0,0.0,0.0,0.0,0.0,0.0,0.0,0.0,0.0,0.0,0.0,0.0,0.0,0.0,0.0,0.0,0.0,0.0,0.0,0.0,0.0,0.0,0.0,0.0,0.0,0.0,0.0,0.0,0.0,0.0,0.0,0.0,0.0,0.0,0.0,0.0,0.0,0.0,0.0,0.0,0.0,0.0,0.0,0.0,0.0,0.0,0.0,0.0,0.0,0.0,0.0,0.0,0.0,0.0,0.0,0.0,0.0,0.0,0.0,0.0,0.0,0.0,0.0,0.0,0.0,0.0,0.0,0.0,0.0,0.0,0.0,0.0,0.0,0.0,0.0,0.0,0.0,0.0,0.0,0.0,0.0,0.0,0.0,0.0,0.0,0.0,0.0,0.0,0.0,0.0,0.0,0.0,0.0,0.0,0.0,0.0,0.0,0.0,0.0,0.0,0.0,0.0,0.0,0.0,0.0,0.0,0.0,0.0,0.0,0.0,0.0,0.0,0.0,0.0,0.0,0.0,0.0,0.0,0.0,0.0,0.0,0.0,0.0,0.0,0.0,0.0,0.0,0.0,0.0,0.0,0.0,0.0,0.0,0.0,0.0,0.0,0.0,0.0,0.0,0.0,0.0,0.0,0.0,0.0,0.0,0.0,0.0,0.0,0.0,0.0,0.0,0.0,0.0,0.0,0.0,0.0,0.0,0.0,0.0,0.0,0.0,0.0,0.0,0.0,0.0,0.0,0.0,0.0,0.0,0.0,0.0,0.0,0.0,0.0,0.0,0.0,0.0,0.0,0.0,0.0,0.0,0.0,0.0,0.0,0.0,0.0,0.0,0.0,0.0,0.0,0.0,0.0,0.0,0.0,0.0,0.0,0.0,0.0,0.0,0.0,0.0,0.0,0.0,0.0,0.0,0.0,0.0,0.0,0.0,0.0,0.0,0.0,0.0,0.0,0.0,0.0,0.0,0.0,0.0,0.0,0.0,0.0,0.0,0.0,0.0,0.0,0.0,0.0,0.0,0.0,0.0,0.0,0.0,0.0,0.0,0.0,0.0,0.0,0.0,0.0,0.0,0.0,0.0,0.0,0.0,0.0,0.0,0.0,0.0,0.0,0.0,0.0,0.0,0.0,0.0,0.0,0.0,0.0,0.0,0.0,0.0,0.0,0.0,0.0,0.0,0.0,0.0,0.0,0.0,0.0,0.0,0.0,0.0,0.0,0.0,0.0,0.0,0.0,0.0,0.0,0.0,0.0,0.0,0.0,0.0,0.0,0.0,0.0,0.0,0.0,0.0,0.0,0.0,0.0,0.0,0.0,0.0,0.0,0.0,0.0,0.0,0.0,0.0,0.0,0.0,0.0,0.0,0.0,0.0,0.0,0.0,0.0,0.0,0.0,0.0,0.0,0.0,0.0,0.0,0.0,0.0,0.0,0.0,0.0,0.0,0.0,0.0,0.0,0.0,0.0,0.0,0.0,0.0,0.0,0.0,0.0,0.0,0.0,0.0,0.0,0.0,0.0,0.0,0.0,0.0,0.0,0.0,0.0,0.0,0.0,0.0,0.0,0.0,0.0,0.0,0.0,0.0,0.0,0.0,0.0,0.0,0.0,0.0,0.0,0.0,0.0,0.0,0.0,0.0,0.0,0.0,0.0,0.0,0.0,0.0,0.0,0.0,0.0,0.0,0.0,0.0,0.0,0.0,0.0,0.0,0.0,0.0,0.0,0.0,0.0,0.0,0.0,0.0,0.0,0.0,0.0,0.0,0.0,0.0,0.0,0.0,0.0,0.0,0.0,0.0,0.0,0.0,0.0,0.0,0.0,0.0,0.0,0.0,0.0,0.0,0.0,0.0,0.0,0.0,0.0,0.0,0.0,0.0,0.0,0.0,0.0,0.0,0.0,0.0,0.0,0.0,0.0,0.0,0.0,0.0,0.0,0.0,0.0,0.0,0.0,0.0,0.0,0.0,0.0,0.0,0.0,0.0,0.0,0.0,0.0,0.0,0.0,0.0,0.0,0.0,0.0,0.0,0.0,0.0,0.0,0.0,0.0,0.0,0.0,0.0,0.0,1.9236,0.0,0.0,0.0,0.0,0.0,0.0,0.0,0.0,0.0,0.0,0.0,0.0,0.0,0.0,0.0,0.0,0.0,0.0,0.0,0.0,0.0,0.0,0.0,0.0,0.0,0.0,0.0,0.0,0.0,0.0,0.0,0.0,0.0,0.0,0.0,0.0,0.0,0.0,0.0,0.0,0.0,0.0,0.0,0.0,0.0,0.0,0.0,0.0,0.0,0.0,0.0,0.0,0.0,0.0,0.0,0.0,0.0,0.0,0.0,0.0,0.0,0.0,0.0,0.0,0.0,0.0,0.0,0.0,0.0,0.0,0.0,0.0,0.0,0.0,0.0,0.0,0.0,0.0,0.0,0.0,0.0,0.0,0.0,0.0,0.0,0.0,0.0,0.0,0.0,0.0,0.0,0.0,0.0,0.0,0.0,0.0,0.0,0.0,0.0,0.0,0.0,0.0,0.0,0.0,0.0,0.0,0.0,0.0,0.0,0.0,1.9184,1.9161,1.9067,1.9249,1.9697,0.0,0.0,0.0,0.0,0.0,0.0,0.0,0.0,0.0,0.0,0.0,0.0,0.0,0.0,0.0,0.0,0.0,0.0,0.0,0.0,0.0,0.0,0.0,0.0,0.0,0.0,0.0,0.0,0.0,0.0,0.0,0.0,0.0,0.0,0.0,0.0,0.0,0.0,0.0,0.0,0.0,0.0,0.0,0.0,0.0,0.0,0.0,0.0,0.0,0.0,0.0,0.0,0.0,0.0,0.0,0.0,0.0,0.0,0.0,0.0,0.0,0.0,0.0,0.0,0.0,0.0,0.0,0.0,0.0,0.0,0.0,0.0,0.0,0.0,0.0,0.0,0.0,0.0,0.0,0.0,0.0,0.0,0.0,0.0,0.0,0.0,0.0,0.0,0.0,0.0,0.0,0.0,0.0,0.0,0.0,0.0,0.0,0.0,0.0,0.0,0.0,0.0,0.0,0.0,0.0,0.0,0.0,0.0,0.0,0.0,0.0,0.0,1.9841,1.9955,2.0161,0.0,0.0,0.0,0.0,0.0,0.0,0.0,0.0,0.0,0.0,0.0,0.0,0.0,0.0,0.0,0.0,0.0,0.0,0.0,0.0,0.0,0.0,0.0,0.0,0.0,0.0,0.0,0.0,0.0,0.0,0.0,0.0,0.0,0.0,0.0,0.0,0.0,0.0,0.0,0.0,0.0,0.0,0.0,0.0,0.0,0.0,0.0,0.0,0.0,0.0,0.0,0.0,0.0,0.0,0.0,0.0,0.0,0.0,0.0,0.0,0.0,0.0,0.0,0.0,0.0,0.0,0.0,0.0,0.0,0.0,0.0,0.0,0.0,0.0,0.0,0.0,0.0,0.0,0.0,0.0,0.0,0.0,0.0,0.0,0.0,0.0,0.0,0.0,0.0,0.0,0.0,0.0,0.0,0.0,0.0,0.0,0.0,0.0,0.0,0.0,0.0,0.0,0.0,0.0,0.0,0.0,0.0,0.0,0.0,0.0,1.9611,1.9557,1.9617,0.0,2.0642,0.0,0.0,0.0,0.0,0.0,0.0,0.0,0.0,0.0,0.0,0.0,0.0,0.0,0.0,0.0,0.0,0.0,0.0,0.0,0.0,0.0,0.0,0.0,0.0,0.0,0.0,0.0,0.0,0.0,0.0,0.0,0.0,0.0,0.0,0.0,0.0,0.0,0.0,0.0,0.0,0.0,0.0,0.0,0.0,0.0,0.0,0.0,0.0,0.0,0.0,0.0,0.0,0.0,0.0,0.0,0.0,0.0,0.0,0.0,0.0,0.0,0.0,0.0,0.0,0.0,0.0,0.0,0.0,0.0,0.0,0.0,0.0,0.0,0.0,0.0,0.0,0.0,0.0,0.0,0.0,0.0,0.0,0.0,0.0,0.0,0.0,0.0,0.0,0.0,0.0,0.0,0.0,0.0,0.0,0.0,0.0,0.0,0.0,0.0,0.0,0.0,0.0,0.0,0.0,0.0,0.0,0.0,0.0,0.0,0.0,2.0867,2.0814,2.0843,2.0985,0.0,0.0,0.0,0.0,0.0,0.0,0.0,0.0,0.0,0.0,0.0,0.0,0.0,0.0,0.0,0.0,0.0,0.0,0.0,0.0,0.0,0.0,0.0,0.0,0.0,0.0,0.0,0.0,0.0,0.0,0.0,0.0,0.0,0.0,0.0,0.0,0.0,0.0,0.0,0.0,0.0,0.0,0.0,0.0,0.0,0.0,0.0,0.0,0.0,0.0,0.0,0.0,0.0,0.0,0.0,0.0,0.0,0.0,0.0,0.0,0.0,0.0,0.0,0.0,0.0,0.0,0.0,0.0,0.0,0.0,0.0,0.0,0.0,0.0,0.0,0.0,0.0,0.0,0.0,0.0,0.0,0.0,0.0,0.0,0.0,0.0,0.0,0.0,0.0,0.0,0.0,0.0,0.0,0.0,0.0,0.0,0.0,0.0,0.0,0.0,0.0,0.0,0.0,0.0,0.0,0.0,0.0,0.0,0.0,0.0,2.1503,2.1753,2.1693,2.1715,2.1753,2.1797,0.0,0.0,0.0,0.0,0.0,0.0,0.0,0.0,0.0,0.0,0.0,0.0,0.0,0.0,0.0,0.0,0.0,0.0,0.0,0.0,0.0,0.0,0.0,0.0,0.0,0.0,0.0,0.0,0.0,0.0,0.0,0.0,0.0,0.0,0.0,0.0,0.0,0.0,0.0,0.0,0.0,0.0,0.0,0.0,0.0,0.0,0.0,0.0,0.0,0.0,0.0,0.0,0.0,0.0,0.0,0.0,0.0,0.0,0.0,0.0,0.0,0.0,0.0,0.0,0.0,0.0,0.0,0.0,0.0,0.0,0.0,0.0,0.0,0.0,0.0,0.0,0.0,0.0,0.0,0.0,0.0,0.0,0.0,0.0,0.0,0.0,0.0,0.0,0.0,0.0,0.0,0.0,0.0,0.0,0.0,0.0,0.0,0.0,0.0,0.0,0.0,0.0,0.0,0.0,0.0,0.0,0.0,0.0,2.1562,2.1655,2.1693,2.1693,2.176,2.1805,0.0,0.0,0.0,0.0,0.0,0.0,0.0,0.0,0.0,0.0,0.0,0.0,0.0,0.0,0.0,0.0,0.0,0.0,0.0,0.0,0.0,0.0,0.0,0.0,0.0,0.0,0.0,0.0,0.0,0.0,0.0,0.0,0.0,0.0,0.0,0.0,0.0,0.0,0.0,0.0,0.0,0.0,0.0,0.0,0.0,0.0,0.0,0.0,0.0,0.0,0.0,0.0,0.0,0.0,0.0,0.0,0.0,0.0,0.0,0.0,0.0,0.0,0.0,0.0,0.0,0.0,0.0,0.0,0.0,0.0,0.0,0.0,0.0,0.0,0.0,0.0,0.0,0.0,0.0,0.0,0.0,0.0,0.0,0.0,0.0,0.0,0.0,0.0,0.0,0.0,0.0,0.0,0.0,0.0,0.0,0.0,0.0,0.0,0.0,0.0,0.0,0.0,0.0,0.0,0.0,0.0,0.0,0.0,0.0,2.169,2.1272,2.1253,2.1727,2.1283,2.1264,0.0,0.0,0.0,0.0,0.0,0.0,0.0,0.0,0.0,0.0,0.0,0.0,0.0,0.0,0.0,0.0,0.0,0.0,0.0,0.0,0.0,0.0,0.0,0.0,0.0,0.0,0.0,0.0,0.0,0.0,0.0,0.0,0.0,0.0,0.0,0.0,0.0,0.0,0.0,0.0,0.0,0.0,0.0,0.0,0.0,0.0,0.0,0.0,0.0,0.0,0.0,0.0,0.0,0.0,0.0,0.0,0.0,0.0,0.0,0.0,0.0,0.0,0.0,0.0,0.0,0.0,0.0,0.0,0.0,0.0,0.0,0.0,0.0,0.0,0.0,0.0,0.0,0.0,0.0,0.0,0.0,0.0,0.0,0.0,0.0,0.0,0.0,0.0,0.0,0.0,0.0,0.0,0.0,0.0,0.0,0.0,0.0,0.0,0.0,0.0,0.0,0.0,0.0,0.0,0.0,0.0,0.0,0.0,0.0,2.1404,0.0,2.052,2.1025,2.0787,2.0893,0.0,0.0,0.0,0.0,0.0,0.0,0.0,0.0,0.0,0.0,0.0,0.0,0.0,0.0,0.0,0.0,0.0,0.0,0.0,0.0,0.0,0.0,0.0,0.0,0.0,0.0,0.0,0.0,0.0,0.0,0.0,0.0,0.0,0.0,0.0,0.0,0.0,0.0,0.0,0.0,0.0,0.0,0.0,0.0,0.0,0.0,0.0,0.0,0.0,0.0,0.0,0.0,0.0,0.0,0.0,0.0,0.0,0.0,0.0,0.0,0.0,0.0,0.0,0.0,0.0,0.0,0.0,0.0,0.0,0.0,0.0,0.0,0.0,0.0,0.0,0.0,0.0,0.0,0.0,0.0,0.0,0.0,0.0,0.0,0.0,0.0,0.0,0.0,0.0,0.0,0.0,0.0,0.0,0.0,0.0,0.0,0.0,0.0,0.0,0.0,0.0,0.0,0.0,0.0,0.0,0.0,0.0,0.0,2.1404,2.0638,1.9944,1.9641,1.9582,2.0338,2.0718,0.0,0.0,0.0,0.0,0.0,0.0,0.0,0.0,0.0,0.0,0.0,0.0,0.0,0.0,0.0,0.0,0.0,0.0,0.0,0.0,0.0,0.0,0.0,0.0,0.0,0.0,0.0,0.0,0.0,0.0,0.0,0.0,0.0,0.0,0.0,0.0,0.0,0.0,0.0,0.0,0.0,0.0,0.0,0.0,0.0,0.0,0.0,0.0,0.0,0.0,0.0,0.0,0.0,0.0,0.0,0.0,0.0,0.0,0.0,0.0,0.0,0.0,0.0,0.0,0.0,0.0,0.0,0.0,0.0,0.0,0.0,0.0,0.0,0.0,0.0,0.0,0.0,0.0,0.0,0.0,0.0,0.0,0.0,0.0,0.0,0.0,0.0,0.0,0.0,0.0,0.0,0.0,0.0,0.0,0.0,0.0,0.0,0.0,0.0,0.0,0.0,0.0,0.0,0.0,0.0,0.0,0.0,0.0,0.0,2.1404,2.0652,2.0546,2.1066,2.0844,2.0917,0.0,0.0,0.0,0.0,0.0,0.0,0.0,0.0,0.0,0.0,0.0,0.0,0.0,0.0,0.0,0.0,0.0,0.0,0.0,0.0,0.0,0.0,0.0,0.0,0.0,0.0,0.0,0.0,0.0,0.0,0.0,0.0,0.0,0.0,0.0,0.0,0.0,0.0,0.0,0.0,0.0,0.0,0.0,0.0,0.0,0.0,0.0,0.0,0.0,0.0,0.0,0.0,0.0,0.0,0.0,0.0,0.0,0.0,0.0,0.0,0.0,0.0,0.0,0.0,0.0,0.0,0.0,0.0,0.0,0.0,0.0,0.0,0.0,0.0,0.0,0.0,0.0,0.0,0.0,0.0,0.0,0.0,0.0,0.0,0.0,0.0,0.0,0.0,0.0,0.0,0.0,0.0,0.0,0.0,0.0,0.0,0.0,0.0,0.0,0.0,0.0,0.0,0.0,0.0,0.0,0.0,0.0,0.0,0.0,2.2116,2.0912,2.0622,2.1381,2.1208,2.144,2.2177,0.0,0.0,0.0,0.0,0.0,0.0,0.0,0.0,0.0,0.0,0.0,0.0,0.0,0.0,0.0,0.0,0.0,0.0,0.0,0.0,0.0,0.0,0.0,0.0,0.0,0.0,0.0,0.0,0.0,0.0,0.0,0.0,0.0,0.0,0.0,0.0,0.0,0.0,0.0,0.0,0.0,0.0,0.0,0.0,0.0,0.0,0.0,0.0,0.0,0.0,0.0,0.0,0.0,0.0,0.0,0.0,0.0,0.0,0.0,0.0,0.0,0.0,0.0,0.0,0.0,0.0,0.0,0.0,0.0,0.0,0.0,0.0,0.0,0.0,0.0,0.0,0.0,0.0,0.0,0.0,0.0,0.0,0.0,0.0,0.0,0.0,0.0,0.0,0.0,0.0,0.0,0.0,0.0,0.0,0.0,0.0,0.0,0.0,0.0,0.0,0.0,0.0,0.0,0.0,0.0,0.0,0.0,0.0,2.2814,2.0886,2.0227,2.091,2.1566,2.2228,0.0,0.0,0.0,0.0,0.0,0.0,0.0,0.0,0.0,0.0,0.0,0.0,0.0,0.0,0.0,0.0,0.0,0.0,0.0,0.0,0.0,0.0,0.0,0.0,0.0,0.0,0.0,0.0,0.0,0.0,0.0,0.0,0.0,0.0,0.0,0.0,0.0,0.0,0.0,0.0,0.0,0.0,0.0,0.0,0.0,0.0,0.0,0.0,0.0,0.0,0.0,0.0,0.0,0.0,0.0,0.0,0.0,0.0,0.0,0.0,0.0,0.0,0.0,0.0,0.0,0.0,0.0,0.0,0.0,0.0,0.0,0.0,0.0,0.0,0.0,0.0,0.0,0.0,0.0,0.0,0.0,0.0,0.0,0.0,0.0,0.0,0.0,0.0,0.0,0.0,0.0,0.0,0.0,0.0,0.0,0.0,0.0,0.0,0.0,0.0,0.0,0.0,0.0,0.0,0.0,0.0,0.0,0.0,0.0,2.2892,2.2842,2.2885,2.2987,2.3184,2.3423,0.0,0.0,0.0,0.0,0.0,0.0,0.0,0.0,0.0,0.0,0.0,0.0,0.0,0.0,0.0,0.0,0.0,0.0,0.0,0.0,0.0,0.0,0.0,0.0,0.0,0.0,0.0,0.0,0.0,0.0,0.0,0.0,0.0,0.0,0.0,0.0,0.0,0.0,0.0,0.0,0.0,0.0,0.0,0.0,0.0,0.0,0.0,0.0,0.0,0.0,0.0,0.0,0.0,0.0,0.0,0.0,0.0,0.0,0.0,0.0,0.0,0.0,0.0,0.0,0.0,0.0,0.0,0.0,0.0,0.0,0.0,0.0,0.0,0.0,0.0,0.0,0.0,0.0,0.0,0.0,0.0,0.0,0.0,0.0,0.0,0.0,0.0,0.0,0.0,0.0,0.0,0.0,0.0,0.0,0.0,0.0,0.0,0.0,0.0,0.0,0.0,0.0,0.0,0.0,0.0,0.0,0.0,0.0,2.4645,2.4224,2.4875,2.5245,2.5185,2.4635,2.4546,0.0,0.0,0.0,0.0,0.0,0.0,0.0,0.0,0.0,0.0,0.0,0.0,0.0,0.0,0.0,0.0,0.0,0.0,0.0,0.0,0.0,0.0,0.0,0.0,0.0,0.0,0.0,0.0,0.0,0.0,0.0,0.0,0.0,0.0,0.0,0.0,0.0,0.0,0.0,0.0,0.0,0.0,0.0,0.0,0.0,0.0,0.0,0.0,0.0,0.0,0.0,0.0,0.0,0.0,0.0,0.0,0.0,0.0,0.0,0.0,0.0,0.0,0.0,0.0,0.0,0.0,0.0,0.0,0.0,0.0,0.0,0.0,0.0,0.0,0.0,0.0,0.0,0.0,0.0,0.0,0.0,0.0,0.0,0.0,0.0,0.0,0.0,0.0,0.0,0.0,0.0,0.0,0.0,0.0,0.0,0.0,0.0,0.0,0.0,0.0,0.0,0.0,0.0,0.0,0.0,0.0,0.0,0.0,2.6092,2.6026,2.6742,2.7179,2.718,2.5966,2.559,0.0,0.0,0.0,0.0,0.0,0.0,0.0,0.0,0.0,0.0,0.0,0.0,0.0,0.0,0.0,0.0,0.0,0.0,0.0,0.0,0.0,0.0,0.0,0.0,0.0,0.0,0.0,0.0,0.0,0.0,0.0,0.0,0.0,0.0,0.0,0.0,0.0,0.0,0.0,0.0,0.0,0.0,0.0,0.0,0.0,0.0,0.0,0.0,0.0,0.0,0.0,0.0,0.0,0.0,0.0,0.0,0.0,0.0,0.0,0.0,0.0,0.0,0.0,0.0,0.0,0.0,0.0,0.0,0.0,0.0,0.0,0.0,0.0,0.0,0.0,0.0,0.0,0.0,0.0,0.0,0.0,0.0,0.0,0.0,0.0,0.0,0.0,0.0,0.0,0.0,0.0,0.0,0.0,0.0,0.0,0.0,0.0,0.0,0.0,0.0,0.0,0.0,0.0,0.0,0.0,0.0,0.0,0.0,2.6739,2.6192,2.7415,2.8119,2.8139,2.717,2.651,0.0,0.0,0.0,0.0,0.0,0.0,0.0,0.0,0.0,0.0,0.0,0.0,0.0,0.0,0.0,0.0,0.0,0.0,0.0,0.0,0.0,0.0,0.0,0.0,0.0,0.0,0.0,0.0,0.0,0.0,0.0,0.0,0.0,0.0,0.0,0.0,0.0,0.0,0.0,0.0,0.0,0.0,0.0,0.0,0.0,0.0,0.0,0.0,2.6995,0.0,0.0,0.0,0.0,0.0,0.0,0.0,0.0,0.0,0.0,0.0,0.0,0.0,0.0,0.0,0.0,0.0,0.0,0.0,0.0,0.0,0.0,0.0,0.0,0.0,0.0,0.0,0.0,0.0,0.0,0.0,0.0,0.0,0.0,0.0,0.0,0.0,0.0,0.0,0.0,0.0,0.0,0.0,0.0,0.0,0.0,0.0,0.0,0.0,0.0,0.0,0.0,0.0,0.0,0.0,0.0,0.0,0.0,0.0,2.7282,2.7263,2.8333,2.8863,2.8853,2.8431,2.7736,0.0,0.0,0.0,0.0,0.0,0.0,0.0,0.0,0.0,0.0,0.0,0.0,0.0,0.0,0.0,0.0,0.0,0.0,0.0,0.0,0.0,0.0,0.0,0.0,0.0,0.0,0.0,0.0,0.0,0.0,0.0,0.0,0.0,0.0,0.0,0.0,0.0,0.0,0.0,0.0,0.0,0.0,0.0,0.0,0.0,0.0,0.0,0.0,0.0,0.0,0.0,0.0,0.0,0.0,0.0,0.0,0.0,0.0,0.0,0.0,0.0,0.0,0.0,0.0,0.0,0.0,0.0,0.0,0.0,0.0,0.0,0.0,0.0,0.0,0.0,0.0,0.0,0.0,0.0,0.0,0.0,0.0,0.0,0.0,0.0,0.0,0.0,0.0,0.0,0.0,0.0,0.0,0.0,0.0,0.0,0.0,0.0,0.0,0.0,0.0,0.0,0.0,0.0,0.0,0.0,0.0,0.0,2.7028,2.7822,2.8542,2.9208,2.9562,2.9572,2.9463,2.8787,2.7514,0.0,0.0,0.0,0.0,0.0,0.0,0.0,0.0,0.0,0.0,0.0,0.0,0.0,0.0,0.0,0.0,0.0,0.0,0.0,0.0,0.0,0.0,0.0,0.0,0.0,0.0,0.0,0.0,0.0,0.0,0.0,0.0,0.0,0.0,0.0,0.0,0.0,0.0,2.5671,2.6471,0.0,0.0,0.0,0.0,0.0,0.0,0.0,0.0,2.8362,0.0,0.0,0.0,0.0,0.0,0.0,0.0,0.0,0.0,0.0,0.0,0.0,0.0,0.0,0.0,0.0,0.0,0.0,0.0,0.0,0.0,0.0,0.0,0.0,0.0,0.0,0.0,0.0,0.0,0.0,0.0,0.0,0.0,0.0,0.0,0.0,0.0,0.0,0.0,0.0,0.0,0.0,0.0,0.0,0.0,0.0,0.0,0.0,0.0,0.0,0.0,0.0,0.0,0.0,0.0,0.0,2.693,2.7779,2.8565,2.9241,2.9936,3.0323,3.0301,2.9738,2.9009,2.8243,0.0,0.0,0.0,0.0,0.0,0.0,0.0,0.0,0.0,0.0,0.0,0.0,0.0,0.0,0.0,0.0,0.0,0.0,0.0,0.0,0.0,0.0,0.0,0.0,0.0,0.0,0.0,0.0,0.0,0.0,0.0,0.0,0.0,0.0,0.0,0.0,0.0,0.0,0.0,2.7205,2.7695,0.0,0.0,0.0,0.0,0.0,0.0,0.0,0.0,2.9919,0.0,0.0,0.0,0.0,0.0,0.0,0.0,0.0,0.0,0.0,0.0,0.0,0.0,0.0,0.0,0.0,0.0,0.0,0.0,0.0,0.0,0.0,0.0,0.0,0.0,0.0,0.0,0.0,0.0,0.0,0.0,0.0,0.0,0.0,0.0,0.0,0.0,0.0,0.0,0.0,0.0,0.0,0.0,0.0,0.0,0.0,0.0,0.0,0.0,0.0,0.0,0.0,0.0,0.0,0.0,2.7038,2.7935,2.8731,2.9397,3.0135,3.0489,3.0489,2.9794,2.9075,0.0,0.0,0.0,0.0,0.0,0.0,0.0,0.0,0.0,0.0,0.0,0.0,0.0,0.0,0.0,0.0,0.0,0.0,0.0,0.0,0.0,0.0,0.0,0.0,0.0,0.0,0.0,0.0,0.0,0.0,0.0,0.0,0.0,0.0,0.0,0.0,0.0,0.0,0.0,0.0,2.7417,2.7953,2.8033,0.0,0.0,0.0,0.0,0.0,0.0,3.0737,3.0771,0.0,0.0,0.0,0.0,0.0,0.0,0.0,0.0,0.0,0.0,0.0,0.0,0.0,0.0,0.0,0.0,0.0,0.0,0.0,0.0,0.0,0.0,0.0,0.0,0.0,0.0,0.0,0.0,0.0,0.0,0.0,0.0,0.0,0.0,0.0,0.0,0.0,0.0,0.0,0.0,0.0,0.0,0.0,0.0,0.0,0.0,0.0,0.0,0.0,0.0,0.0,0.0,0.0,0.0,0.0,2.7249,2.8147,2.892,2.9605,3.0201,3.0489,3.0489,2.9926,2.9317,0.0,0.0,0.0,0.0,0.0,0.0,0.0,0.0,0.0,0.0,0.0,0.0,0.0,0.0,0.0,0.0,0.0,0.0,0.0,0.0,0.0,0.0,0.0,0.0,0.0,0.0,0.0,0.0,0.0,0.0,0.0,0.0,0.0,0.0,0.0,0.0,0.0,0.0,0.0,0.0,0.0,2.8596,2.8741,3.0465,0.0,0.0,0.0,0.0,3.188,3.1836,0.0,0.0,0.0,0.0,0.0,0.0,0.0,0.0,0.0,0.0,0.0,0.0,0.0,0.0,0.0,0.0,0.0,0.0,0.0,0.0,0.0,0.0,0.0,0.0,0.0,0.0,0.0,0.0,0.0,0.0,0.0,0.0,0.0,0.0,0.0,0.0,0.0,0.0,0.0,0.0,0.0,0.0,0.0,0.0,0.0,0.0,0.0,0.0,0.0,0.0,0.0,0.0,0.0,0.0,0.0,0.0,2.8046,2.886,2.9628,3.0334,3.0456,3.0489,3.0489,3.0423,3.0026,0.0,0.0,0.0,0.0,0.0,0.0,0.0,0.0,0.0,0.0,0.0,0.0,0.0,0.0,0.0,0.0,0.0,0.0,0.0,0.0,0.0,0.0,0.0,0.0,0.0,0.0,0.0,0.0,0.0,0.0,0.0,0.0,0.0,0.0,0.0,0.0,0.0,0.0,0.0,0.0,0.0,3.0761,3.0915,3.1758,3.2397,0.0,0.0,3.2506,3.2407,3.282,0.0,0.0,0.0,0.0,0.0,0.0,0.0,0.0,0.0,0.0,0.0,0.0,0.0,0.0,0.0,0.0,0.0,0.0,0.0,0.0,0.0,0.0,0.0,0.0,0.0,0.0,0.0,0.0,0.0,0.0,0.0,0.0,0.0,0.0,0.0,0.0,0.0,0.0,0.0,0.0,0.0,0.0,0.0,0.0,0.0,0.0,0.0,0.0,0.0,0.0,0.0,0.0,0.0,0.0,0.0,2.7361,2.8142,2.8963,2.9771,3.0466,3.0675,3.0685,3.0522,3.0001,2.9628,0.0,0.0,0.0,0.0,0.0,0.0,0.0,0.0,0.0,0.0,0.0,0.0,0.0,0.0,0.0,0.0,0.0,0.0,0.0,0.0,0.0,0.0,0.0,0.0,0.0,0.0,0.0,0.0,0.0,0.0,0.0,0.0,0.0,0.0,0.0,0.0,0.0,0.0,0.0,0.0,0.0,0.0,3.1758,3.2976,0.0,0.0,0.0,3.4831,3.434,0.0,0.0,0.0,0.0,0.0,0.0,0.0,0.0,0.0,0.0,0.0,0.0,0.0,0.0,0.0,0.0,0.0,0.0,0.0,0.0,0.0,0.0,0.0,0.0,0.0,0.0,0.0,0.0,0.0,0.0,0.0,0.0,0.0,0.0,0.0,0.0,0.0,0.0,0.0,0.0,0.0,0.0,0.0,0.0,0.0,0.0,0.0,0.0,0.0,0.0,0.0,0.0,0.0,0.0,0.0,0.0,0.0,2.8388,2.925,3.0036,3.0754,3.1026,3.1037,3.0775,2.9984,0.0,0.0,0.0,0.0,0.0,0.0,0.0,0.0,0.0,0.0,0.0,0.0,0.0,0.0,0.0,0.0,0.0,0.0,0.0,0.0,0.0,0.0,0.0,0.0,0.0,0.0,0.0,2.5597,0.0,0.0,0.0,0.0,0.0,0.0,0.0,0.0,0.0,0.0,0.0,0.0,0.0,0.0,3.0729,3.2733,3.4095,3.4984,0.0,0.0,3.6688,3.5971,3.5514,3.4823,0.0,0.0,0.0,0.0,0.0,0.0,0.0,0.0,0.0,0.0,0.0,0.0,0.0,0.0,0.0,0.0,0.0,0.0,0.0,0.0,0.0,0.0,0.0,0.0,0.0,0.0,0.0,0.0,0.0,0.0,0.0,0.0,0.0,0.0,0.0,0.0,0.0,0.0,0.0,0.0,0.0,0.0,0.0,0.0,0.0,0.0,0.0,0.0,0.0,0.0,0.0,0.0,0.0,0.0,0.0,2.9235,3.0007,3.0787,3.1482,3.1526,3.1537,3.1515,3.0829,3.0408,0.0,0.0,0.0,0.0,0.0,0.0,0.0,0.0,0.0,0.0,0.0,0.0,0.0,0.0,0.0,0.0,0.0,0.0,0.0,0.0,0.0,0.0,0.0,0.0,0.0,0.0,0.0,0.0,0.0,0.0,0.0,0.0,0.0,0.0,0.0,0.0,0.0,0.0,0.0,0.0,0.0,3.3185,3.4223,3.5033,3.585,0.0,0.0,3.7001,3.6678,3.6723,3.6516,3.5712,0.0,0.0,0.0,0.0,0.0,0.0,0.0,0.0,0.0,0.0,0.0,0.0,0.0,0.0,0.0,0.0,0.0,0.0,0.0,0.0,0.0,0.0,0.0,0.0,0.0,0.0,0.0,0.0,0.0,0.0,0.0,0.0,0.0,0.0,0.0,0.0,0.0,0.0,0.0,0.0,0.0,0.0,0.0,0.0,0.0,0.0,0.0,0.0,0.0,0.0,0.0,0.0,0.0,2.885,2.9186,3.0504,3.1306,3.1615,3.2262,3.2473,3.2266,3.1941,3.1358,0.0,0.0,0.0,0.0,0.0,0.0,0.0,0.0,0.0,0.0,0.0,0.0,0.0,0.0,0.0,0.0,0.0,0.0,0.0,0.0,0.0,0.0,0.0,0.0,0.0,0.0,0.0,0.0,2.5995,2.6448,2.6847,0.0,0.0,0.0,0.0,0.0,0.0,0.0,0.0,0.0,0.0,3.3661,3.5108,3.6535,0.0,0.0,3.8947,3.932,3.875,3.8386,3.7821,3.6668,3.5906,0.0,0.0,0.0,0.0,0.0,0.0,0.0,0.0,0.0,0.0,0.0,0.0,0.0,0.0,0.0,0.0,0.0,0.0,0.0,0.0,0.0,0.0,0.0,0.0,0.0,0.0,0.0,0.0,0.0,0.0,0.0,0.0,0.0,0.0,0.0,0.0,0.0,0.0,0.0,0.0,0.0,0.0,0.0,0.0,0.0,0.0,0.0,0.0,0.0,0.0,0.0,0.0,2.9341,2.982,3.1,3.1802,3.2255,3.2995,3.3273,3.3028,3.2731,3.2024,0.0,0.0,0.0,0.0,0.0,0.0,0.0,0.0,0.0,0.0,0.0,0.0,0.0,0.0,0.0,0.0,0.0,0.0,0.0,0.0,0.0,0.0,0.0,0.0,0.0,0.0,0.0,0.0,2.6555,2.717,2.7646,0.0,0.0,0.0,0.0,0.0,0.0,0.0,0.0,0.0,0.0,3.4661,3.6667,3.7991,3.9013,3.975,4.055,4.0902,4.0381,3.9803,3.9008,3.78,0.0,0.0,0.0,0.0,0.0,0.0,0.0,0.0,0.0,0.0,0.0,0.0,0.0,0.0,0.0,0.0,0.0,0.0,0.0,0.0,0.0,0.0,0.0,0.0,0.0,0.0,0.0,0.0,0.0,0.0,0.0,0.0,0.0,0.0,0.0,0.0,0.0,0.0,0.0,0.0,0.0,0.0,0.0,0.0,0.0,0.0,0.0,0.0,0.0,0.0,0.0,0.0,0.0,2.9875,3.1418,3.1604,3.2321,3.3668,3.3768,3.3812,3.3768,3.3083,3.2354,3.1615,0.0,0.0,0.0,0.0,0.0,0.0,0.0,0.0,0.0,0.0,0.0,0.0,0.0,0.0,0.0,0.0,0.0,0.0,0.0,0.0,0.0,0.0,0.0,0.0,0.0,0.0,2.6652,2.7267,2.7688,0.0,0.0,0.0,0.0,0.0,0.0,0.0,0.0,0.0,0.0,3.5132,3.6561,3.917,3.9329,3.9852,4.1578,4.1605,4.1399,4.1267,4.079,4.013,0.0,0.0,0.0,0.0,0.0,0.0,0.0,0.0,0.0,0.0,0.0,0.0,0.0,0.0,0.0,0.0,0.0,0.0,0.0,0.0,0.0,0.0,0.0,0.0,0.0,0.0,0.0,2.3496,2.3496,0.0,0.0,0.0,0.0,0.0,0.0,0.0,0.0,0.0,0.0,0.0,2.6175,2.6981,0.0,0.0,0.0,0.0,0.0,0.0,0.0,0.0,0.0,0.0,0.0,0.0,3.1057,3.2065,3.2739,3.3292,3.3801,3.4253,3.453,3.453,3.4298,3.3602,3.2365,0.0,0.0,0.0,0.0,0.0,0.0,0.0,0.0,0.0,0.0,0.0,0.0,0.0,0.0,0.0,0.0,0.0,0.0,0.0,0.0,0.0,0.0,0.0,0.0,0.0,2.6351,0.0,0.0,0.0,0.0,0.0,0.0,0.0,0.0,0.0,0.0,0.0,3.3937,3.5533,3.7161,3.8589,3.9693,4.1122,4.2483,0.0,0.0,0.0,0.0,0.0,0.0,0.0,0.0,0.0,0.0,0.0,0.0,0.0,0.0,3.6783,3.581,3.5611,3.5644,3.5644,0.0,0.0,0.0,0.0,0.0,0.0,0.0,0.0,0.0,0.0,0.0,0.0,0.0,0.0,0.0,0.0,2.4862,0.0,0.0,0.0,0.0,0.0,0.0,0.0,0.0,2.7277,2.7718,2.7986,2.8823,2.9167,0.0,2.9178,2.8854,0.0,0.0,0.0,0.0,0.0,0.0,0.0,0.0,3.1703,3.2483,3.3103,3.3536,3.3801,3.4033,3.4265,3.4518,3.4518,3.3933,3.274,3.1526,3.0522,0.0,0.0,0.0,0.0,0.0,0.0,0.0,0.0,0.0,0.0,0.0,0.0,0.0,0.0,0.0,0.0,0.0,0.0,0.0,0.0,0.0,0.0,0.0,2.6804,0.0,0.0,0.0,0.0,0.0,0.0,0.0,0.0,0.0,3.3353,3.4544,3.5952,3.7349,3.9122,4.0722,4.1831,0.0,0.0,0.0,0.0,0.0,0.0,0.0,4.5241,4.4012,4.3471,4.2974,4.2294,4.1654,4.1211,4.1198,0.0,0.0,3.8241,3.7864,3.7864,3.7864,3.7479,3.7313,3.7765,3.7864,3.7996,0.0,0.0,0.0,0.0,0.0,0.0,0.0,0.0,2.7124,2.7422,0.0,2.7474,0.0,0.0,0.0,0.0,0.0,0.0,0.0,0.0,2.9435,3.0156,3.0925,3.1595,3.1984,3.2016,3.1931,3.1563,3.0839,2.9567,0.0,0.0,0.0,0.0,0.0,0.0,3.1802,3.274,3.2796,3.3138,3.3789,3.3149,3.3094,3.3746,3.3801,3.3469,3.274,3.2023,3.1317,3.0588,3.1184,0.0,0.0,0.0,0.0,0.0,0.0,0.0,0.0,0.0,0.0,0.0,0.0,0.0,0.0,0.0,0.0,0.0,0.0,0.0,0.0,2.7322,0.0,0.0,0.0,0.0,0.0,0.0,0.0,0.0,0.0,0.0,3.3904,3.6851,3.9355,3.9732,0.0,0.0,0.0,0.0,4.6183,4.8041,4.8025,4.7796,4.7775,4.7747,4.7491,4.6731,0.0,0.0,4.5671,4.5163,4.4831,4.4865,4.4359,4.3089,4.02,3.9634,3.9514,3.9481,3.9541,3.9488,3.9488,3.9808,3.9808,2.9245,0.0,0.0,0.0,0.0,2.8391,2.8531,2.852,2.8722,2.8818,2.8829,2.8851,0.0,0.0,0.0,0.0,0.0,0.0,3.0341,3.1032,3.1258,3.1475,3.1692,3.1887,3.2016,3.2016,3.2016,3.1887,3.166,3.1272,3.0571,2.9621,0.0,0.0,0.0,0.0,3.3048,3.3818,3.4029,3.4223,3.4409,3.405,3.3684,3.3394,3.3661,3.3436,3.2752,3.2994,3.2586,3.135,3.1482,0.0,0.0,0.0,0.0,0.0,0.0,0.0,0.0,0.0,0.0,0.0,0.0,0.0,0.0,0.0,0.0,0.0,0.0,0.0,2.8217,2.7883,2.8432,0.0,0.0,0.0,0.0,0.0,0.0,0.0,0.0,0.0,3.8311,3.9016,4.0117,0.0,0.0,4.5012,4.5989,4.7251,4.8395,4.9166,0.0,0.0,0.0,4.9372,4.8877,4.8094,4.7651,4.7291,4.7097,4.6955,4.6873,4.6873,4.6721,4.6288,4.5432,4.3645,4.2493,4.2417,4.2735,4.3069,4.311,4.3797,4.4374,3.1229,3.036,3.0172,2.9975,2.9816,3.001,3.0081,3.0034,3.0092,3.0116,3.0104,3.0163,3.0186,3.0198,3.0323,0.0,0.0,0.0,3.1655,3.2333,3.2377,3.2518,3.2825,3.2838,3.2838,3.2838,3.2838,3.2838,3.2838,3.2825,3.2299,3.1209,0.0,0.0,3.211,3.2831,3.3469,3.4002,3.4334,3.4477,3.4524,3.4387,3.4073,3.3669,3.375,3.3602,3.3138,3.3271,3.2961,3.2089,3.2023,3.1791,0.0,0.0,0.0,0.0,0.0,0.0,0.0,0.0,0.0,0.0,0.0,2.8476,2.7753,0.0,0.0,0.0,2.8722,2.9014,2.9274,2.9198,0.0,0.0,0.0,0.0,0.0,0.0,0.0,3.713,3.8952,4.0776,4.2299,4.2324,4.2629,4.3731,4.5762,4.7324,4.7775,0.0,4.9906,5.04,5.0759,5.0994,5.0959,5.0708,5.0326,4.9854,4.9516,4.9284,4.9306,4.9138,4.903,4.899,4.8813,4.8647,4.8647,4.7212,4.5847,4.5322,4.5379,4.5592,4.5801,4.6357,4.6721,3.2942,3.2722,3.1846,3.1275,3.1004,3.1244,3.1313,3.1168,3.1306,3.1368,3.1381,3.1505,3.1566,3.1566,3.181,0.0,0.0,3.1959,3.2333,3.299,3.299,3.3406,3.4101,3.4088,3.4088,3.4088,3.4088,3.4088,3.4068,3.4088,3.3777,3.3174,3.255,3.2252,3.2336,3.2988,3.3446,3.3749,3.4073,3.4253,3.4374,3.4319,3.4274,3.424,3.3962,3.3801,3.3812,3.3204,3.2807,3.2707,3.2696,3.2562,3.226,0.0,0.0,0.0,0.0,0.0,0.0,0.0,0.0,0.0,0.0,0.0,0.0,0.0,0.0,0.0,2.8731,0.0,3.0391,3.1101,0.0,0.0,0.0,3.4688,3.538,3.726,3.9004,4.0392,0.0,0.0,0.0,0.0,4.6255,4.6003,4.7914,4.955,5.0272,5.043,5.0852,5.1504,5.1672,5.1672,5.1601,5.1576,5.1563,5.1515,5.1708,5.1551,5.1538,5.126,5.1026,5.0964,5.057,5.0209,5.023,4.9937,4.9546,4.821,4.7629,4.7466,4.7824,4.7796,4.7747,3.4296,3.4308,3.3997,3.3294,3.2427,3.2567,3.262,3.2625,3.2738,3.279,3.279,3.2829,3.2842,3.2855,3.3023,3.3163,3.3233,3.3346,3.3543,3.3792,3.3792,3.3914,3.4088,3.4088,3.4088,3.4088,3.4088,3.4088,3.4088,3.4088,3.4036,3.3866,3.3986,3.3782,3.3325,3.3982,3.4511,3.484,3.5104,3.52,3.5077,3.4569,3.4158,3.3859,3.3829,3.3812,3.3812,3.4199,3.3867,3.2774,3.2618,3.2056,3.0925,3.109,0.0,0.0,0.0,0.0,0.0,0.0,0.0,0.0,0.0,2.8498,2.7743,0.0,2.8789,0.0,3.0762,3.2185,3.3599,3.3582,0.0,0.0,3.6965,3.7419,3.8273,3.9848,4.1381,4.2666,4.4085,4.5551,4.7151,4.8477,4.9235,4.922,4.9739,5.0332,5.0656,5.1109,5.1471,5.1637,5.1708,5.1708,5.1708,5.1708,5.1708,5.1708,5.1708,5.1708,5.1708,5.1597,5.1533,5.1533,5.1444,5.1305,5.1315,5.1267,5.1134,5.0793,5.0294,4.993,5.0039,5.0308,5.0492,3.4649,3.4738,3.4651,3.4232,3.3622,3.3828,3.3764,3.3549,3.3698,3.3561,3.3309,3.3309,3.3335,3.3369,3.3479,3.3743,3.4161,3.433,3.4581,3.4923,3.5033,3.5072,3.5072,3.5072,3.5072,3.5104,3.5059,3.5072,3.5085,3.5232,3.5333,3.5346,3.5745,3.5659,3.5089,3.497,3.4956,3.5083,3.5633,3.594,3.5928,3.5517,3.5089,3.469,3.4427,3.4186,3.404,3.4396,3.4218,3.335,3.3103,3.2603,3.1713,3.1599,3.1378,0.0,0.0,0.0,0.0,0.0,0.0,0.0,0.0,0.0,0.0,0.0,3.054,0.0,3.2569,0.0,3.5357,3.5856,3.6777,3.8502,3.9396,4.0212,4.1076,4.2671,4.413,4.5241,4.6486,4.7715,4.8788,4.9776,5.0526,5.0859,5.098,5.106,5.1209,5.1508,5.1708,5.1708,5.1708,5.1708,5.1708,5.1708,5.1815,5.2149,5.222,5.2327,5.2659,5.2743,5.2694,5.273,5.273,5.26,5.2327,5.222,5.2149,5.1742,5.1444,5.1237,5.1175,5.1292,5.1331,3.4782,3.4767,3.4736,3.4751,3.4826,3.5014,3.4793,3.4254,3.4392,3.4112,3.3588,3.3561,3.3628,3.3747,3.3747,3.4131,3.4825,3.4984,3.5404,3.5983,3.6163,3.6263,3.6263,3.6289,3.6289,3.6289,3.6356,3.6383,3.6396,3.6775,3.696,3.6973,3.7406,3.7364,3.6967,3.6083,3.546,3.5118,3.5898,3.6485,3.6761,3.6578,3.6329,3.5938,3.5345,3.4823,3.4454,3.4431,3.4331,3.4074,3.3756,3.3465,3.3122,3.2544,3.2159,0.0,3.2007,0.0,0.0,0.0,0.0,0.0,0.0,0.0,0.0,3.2367,3.2772,3.3413,3.4443,3.5554,3.67,3.8167,3.9316,3.9959,4.16,4.3006,4.3772,4.5413,4.691,4.7846,4.8594,4.9439,5.0309,5.0563,5.0959,5.153,5.1637,5.1624,5.166,5.1695,5.1708,5.1708,5.1792,5.1958,5.197,5.2006,5.2315,5.2898,5.3041,5.3242,5.38,5.393,5.393,5.393,5.3859,5.3729,5.3148,5.297,5.2661,5.2042,5.179,5.167,5.1609,5.1418,5.1241,3.6122,3.6122,3.6122,3.6184,3.6275,3.6352,3.5786,3.4917,3.5117,3.5179,3.5149,3.5039,3.5029,3.5039,3.5025,3.5171,3.5422,3.5464,3.5596,3.5833,3.5983,3.6037,3.605,3.6236,3.6289,3.6316,3.6607,3.6788,3.6801,3.7207,3.7385,3.7385,3.7795,3.7787,0.0,0.0,0.0,0.0,3.6371,3.6561,3.6695,3.6464,3.6318,3.622,3.5912,0.0,3.5217,3.5183,3.4778,3.3914,3.3697,0.0,0.0,0.0,0.0,0.0,0.0,0.0,0.0,0.0,0.0,0.0,3.3259,3.3323,3.2979,3.4239,3.5173,3.5472,3.7087,3.865,3.989,4.0938,4.1948,4.2964,4.448,4.5581,4.5843,4.7229,4.8622,4.9664,4.9939,5.0393,5.1217,5.1446,5.153,5.1637,5.1708,5.1708,5.1708,5.1708,5.1708,5.1744,5.222,5.2649,5.2697,5.3135,5.3479,5.3765,5.38,5.3872,5.405,5.4073,5.4037,5.4073,5.4001,5.4014,5.38,5.3314,5.2947,5.2684,5.2149,5.1708,5.1708,5.1622,5.1597,3.6507,0.0,3.6507,3.6569,0.0,3.66,3.6366,3.601,3.5753,3.5537,3.5363,3.5394,3.5408,3.5408,3.5478,3.5707,3.6094,3.6266,3.6528,3.6848,3.7072,3.7265,3.7416,3.7552,3.774,3.7933,3.8155,3.8238,3.8251,3.8677,3.8876,3.8876,3.9298,3.9176,3.8601,3.8608,3.8248,3.7543,3.7596,3.7695,3.7748,3.7714,3.7397,3.6881,0.0,0.0,0.0,0.0,0.0,0.0,0.0,0.0,0.0,0.0,0.0,3.3141,3.3309,3.3568,3.3859,3.3707,3.3912,3.4694,3.5704,3.5838,3.4787,3.5883,3.6803,3.719,3.8703,4.015,4.1429,4.2806,4.4054,4.4996,4.6402,4.754,4.8101,4.8783,4.9697,5.066,5.0901,5.1129,5.1624,5.1708,5.1708,5.1708,5.1708,5.1708,5.1708,5.1708,5.1815,5.222,5.2577,5.3041,5.3385,5.3693,5.4193,5.4478,5.4585,5.4764,5.512,5.5192,5.5192,5.5192,5.5205,5.5085,5.4657,5.4277,5.3826,5.3077,5.2577,5.2149,5.1815,5.1708,5.1708,3.6661,3.6661,3.6553,3.6507,3.6507,3.6507,3.6662,3.6892,0.0,0.0,0.0,3.5657,3.5759,3.5788,3.5869,3.6257,3.678,3.704,3.7416,3.7845,3.8234,3.8609,3.8971,3.9059,3.9355,3.9811,3.9755,3.9714,3.974,4.0201,4.0399,4.0424,4.074,4.0572,3.9917,3.933,3.902,3.8996,3.8879,3.8774,3.8785,3.8947,3.8532,3.7489,3.7826,3.737,3.6006,3.5961,3.5743,3.5293,3.4932,3.4715,3.4594,3.4583,3.4587,3.4562,3.4975,3.543,3.5873,3.5728,3.6006,3.6913,3.8221,3.8397,3.7018,3.7812,3.8614,3.9121,4.0464,4.1742,4.277,4.4627,4.6005,4.6585,4.7876,4.9029,4.9796,5.0043,5.0464,5.1325,5.1482,5.1543,5.1683,5.1708,5.1708,5.1708,5.1708,5.1792,5.1899,5.197,5.2185,5.272,5.3184,5.3599,5.405,5.4443,5.4692,5.5299,5.5406,5.5669,5.6169,5.6396,5.6396,5.624,5.6396,5.6062,5.5562,5.5241,5.4764,5.3528,5.3067,5.2758,5.2115,5.1842,5.1783,3.7369,3.7307,3.6738,3.6507,3.6507,3.6507,3.6538,3.6585,3.6873,3.7018,3.7088,3.6985,3.7046,3.7225,3.724,3.7272,3.7366,3.7411,3.7489,0.0,3.8215,3.8874,3.9542,3.9541,3.9893,4.0581,4.0354,4.0201,4.0251,4.0607,4.0811,4.0811,4.0859,4.086,4.0745,4.0641,4.0572,4.0538,3.9284,3.8628,3.8628,3.8761,3.8413,3.7642,3.778,3.7314,3.6148,3.6212,3.6017,3.5588,3.5666,3.5655,3.5622,3.6163,3.6466,3.6372,3.6942,3.7016,3.6394,3.6855,3.7751,3.9105,4.0024,4.0105,3.9365,4.0806,4.1899,4.214,4.3799,4.5195,4.5547,4.6977,4.798,4.8201,4.8977,4.9679,5.0079,5.058,5.1069,5.1584,5.1569,5.1543,5.1683,5.1708,5.1708,5.1708,5.1779,5.197,5.2506,5.2733,5.2756,5.3041,5.4028,5.4813,5.5062,5.5633,5.5955,5.6204,5.6169,5.6169,5.6361,5.6396,5.6396,5.6396,5.6396,5.6325,5.6133,5.562,5.5169,5.4683,5.394,5.3133,5.2895,5.2481,5.2028,3.803,3.8015,3.7707,3.7584,3.7584,3.7184,3.703,3.7015,3.6878,3.6953,3.718,3.721,3.7315,3.751,3.7584,3.7804,3.8182,3.8593,3.8932,3.9272,3.9987,4.0398,4.0508,4.0552,4.0692,4.0839,4.0705,4.0619,4.0631,4.0799,4.0894,4.0929,4.1309,4.1297,4.0952,4.1297,4.1309,4.0883,4.0193,3.9859,3.9859,3.9997,3.9695,3.8999,3.9108,3.8671,3.7614,3.7547,3.735,3.6956,3.6898,3.6875,3.6851,3.7097,3.7207,3.7182,3.8,3.85,3.8507,3.9392,4.0229,4.0886,4.1661,4.2308,4.2773,4.3132,4.3409,4.3627,4.5418,4.6711,4.6925,4.8212,4.9074,4.914,4.9934,5.0524,5.0741,5.1076,5.1415,5.1658,5.1658,5.1632,5.1708,5.1708,5.1708,5.1756,5.2042,5.2506,5.2898,5.3648,5.4135,5.4219,5.4777,5.5299,5.5776,5.6133,5.6396,5.6396,5.6396,5.6396,5.6396,5.6396,5.6396,5.6396,5.6396,5.6396,5.6396,5.6133,5.5732,5.5263,5.4821,5.4216,5.378,5.3102,5.2444,3.8707,3.8707,3.8553,3.8508,3.8446,3.7954,3.7738,3.7677,3.7184,3.7095,3.7359,3.7402,3.766,3.8117,3.8236,3.8626,3.9268,3.987,4.0379,4.0838,4.14,4.158,4.1425,4.1346,4.1233,4.11,4.0998,4.0894,4.0894,4.0894,4.0894,4.0963,4.1642,4.1723,4.1159,4.1895,4.1999,4.1447,4.14,4.1274,4.0917,4.1011,4.0712,4.0064,4.0095,3.9736,3.8807,3.8695,3.8516,3.8253,3.8033,3.7951,3.7962,3.8171,3.827,3.8396,3.9428,4.0371,4.0929,4.1759,4.2332,4.2504,4.3401,4.4423,4.5461,4.5445,4.5171,4.5312,4.6719,4.7803,4.8175,4.9135,4.9867,4.9995,5.058,5.1066,5.1285,5.1402,5.1518,5.167,5.1708,5.1708,5.1708,5.1708,5.1779,5.2077,5.2649,5.3184,5.3505,5.4647,5.5384,5.5491,5.5455,5.5705,5.6311,5.6396,5.6396,5.6396,5.6396,5.6396,5.6396,5.6396,5.6396,5.6396,5.6396,5.6396,5.6396,5.6396,5.6174,5.5741,5.537,5.5003,5.4384,5.3859,5.3019,3.9414,3.9322,3.8799,3.8508,3.8539,3.8446,3.8399,3.8399,3.8323,3.8405,3.8585,3.8138,3.8728,3.9925,4.0,4.0271,4.0718,4.0867,4.1029,4.1201,4.1016,4.1411,4.2121,4.1395,4.1295,4.1745,4.1274,4.1032,4.1032,4.0998,4.0929,4.0986,4.1642,4.2021,4.1987,4.2689,4.3034,4.3012,4.3,4.2309,4.0998,4.0894,4.0527,3.9779,3.9779,3.9399,3.8754,3.874,3.8729,3.8583,3.8764,3.8785,3.888,3.9963,4.0676,4.0699,4.2009,4.2893,4.295,4.3009,4.3414,4.4104,4.5402,4.6272,4.6548,4.7755,4.8294,4.7893,4.8515,4.9117,4.9356,5.0169,5.0649,5.0689,5.0857,5.1008,5.1259,5.1311,5.1428,5.1647,5.1708,5.1708,5.1708,5.1756,5.2042,5.2613,5.3385,5.4086,5.4706,5.5526,5.6133,5.6204,5.6276,5.6276,5.6396,5.6396,5.6396,5.6396,5.6396,5.6396,5.6396,5.6396,5.6396,5.6396,5.6396,5.6396,5.6396,5.6396,5.641,5.6241,5.5808,5.5291,5.4766,5.4614,5.4049,4.0074,4.0074,3.9767,3.9674,3.963,3.9261,3.9076,3.9078,3.9005,3.931,3.9847,3.9913,4.0017,4.0167,4.0468,4.1019,4.1793,4.2133,4.2626,4.313,4.3443,4.3531,4.343,4.3128,4.2896,4.2711,4.2378,4.2275,4.2275,4.224,4.224,4.2344,4.2987,4.3138,4.2792,4.3483,4.3655,4.3219,4.3219,4.2896,4.2275,4.1792,4.1229,4.0631,4.0539,4.0435,4.0215,4.0585,4.0781,4.0781,4.1173,4.145,4.1415,4.199,4.2301,4.237,4.3266,4.4069,4.4445,4.4941,4.5333,4.563,4.6665,4.741,4.7858,4.8535,4.8993,4.9396,4.9791,5.0089,5.0157,5.0595,5.0949,5.0994,5.1074,5.1207,5.1389,5.1457,5.1607,5.1695,5.1708,5.1708,5.1779,5.2113,5.2519,5.3006,5.3885,5.4835,5.5227,5.5883,5.6361,5.6396,5.6396,5.6396,5.6396,5.6396,5.6396,5.6396,5.6396,5.6396,5.6396,5.6396,5.6396,5.6396,5.6396,5.6396,5.6396,5.6478,5.6532,5.6492,5.6554,5.6122,5.5343,5.5236,5.4745,4.0337,4.0474,4.0505,4.0505,4.0443,3.9999,3.9868,3.9992,3.989,4.0276,4.1024,4.156,4.1518,4.108,4.1393,4.21,4.3008,4.3452,4.4019,4.4674,4.4965,4.4764,4.4298,4.4069,4.3724,4.3288,4.3185,4.3185,4.3219,4.3219,4.3219,4.3323,4.3931,4.4035,4.3621,4.4229,4.4367,4.3884,4.3815,4.3724,4.3448,4.2918,4.2346,4.1727,4.167,4.1717,4.1753,4.2202,4.2454,4.2488,4.2946,4.3219,4.3219,4.3379,4.3586,4.3815,4.4298,4.4941,4.5686,4.6272,4.6686,4.6927,4.7582,4.8238,4.872,4.9039,4.9512,5.016,5.0509,5.0598,5.0702,5.0819,5.0914,5.1056,5.1154,5.1298,5.1428,5.1569,5.1658,5.1708,5.1708,5.1708,5.1815,5.2363,5.2947,5.3314,5.4349,5.5348,5.5526,5.6026,5.6396,5.6396,5.6396,5.6396,5.6396,5.6396,5.6396,5.6396,5.6396,5.6396,5.6396,5.6396,5.6396,5.6396,5.641,5.6451,5.6492,5.6573,5.668,5.6763,5.6845,5.6778,5.6173,5.6052,5.5756,3.992,4.0491,4.0491,4.0574,4.0491,4.0495,4.0738,4.1148,4.1183,4.1526,4.2078,4.2692,4.3118,4.3256,4.3315,4.3944,4.4729,4.4681,4.4859,4.5123,4.4572,4.4251,4.4264,4.3586,4.3323,4.3517,4.3448,4.3379,4.3323,4.3288,4.3219,4.331,4.4035,4.4311,4.4333,4.4928,4.5328,4.5169,4.5134,4.4928,4.4345,4.4207,4.3793,4.3185,4.3046,4.3024,4.3059,4.3128,4.315,4.3185,4.3254,4.3288,4.331,4.3897,4.454,4.5134,4.5328,4.5686,4.6376,4.6652,4.6962,4.7617,4.8341,4.8789,4.8927,4.9573,5.0067,5.02,5.0481,5.0675,5.0832,5.0859,5.0935,5.0941,5.107,5.118,5.1324,5.1479,5.1569,5.1683,5.1708,5.1708,5.1721,5.2399,5.322,5.3849,5.4657,5.5491,5.6062,5.6347,5.6396,5.6396,5.6396,5.6396,5.6396,5.6396,5.6396,5.6396,5.6396,5.6396,5.6396,5.6396,5.6396,5.641,5.6478,5.6532,5.66,5.6693,5.6786,5.6891,5.6982,5.684,5.666,5.6955,5.6704,4.0079,4.1038,4.139,4.1522,4.1522,4.1522,4.1654,4.1834,4.219,4.2476,4.282,4.3373,4.386,4.435,4.4202,4.4499,4.5083,4.5069,4.5411,4.5964,4.5296,4.5474,4.6272,4.5216,4.4906,4.5251,4.4872,4.4617,4.4583,4.463,4.463,4.463,4.4859,4.4996,4.5065,4.5272,4.5397,4.5397,4.5397,4.5259,4.5065,4.501,4.4859,4.4596,4.3677,4.3219,4.3219,4.3655,4.3897,4.3897,4.432,4.4583,4.463,4.4837,4.51,4.5397,4.588,4.6272,4.6665,4.7479,4.81,4.841,4.9134,4.9548,4.9611,4.9947,5.0214,5.0327,5.0495,5.0688,5.0832,5.0908,5.0954,5.1127,5.1207,5.1311,5.1518,5.1607,5.1658,5.1708,5.1708,5.1708,5.1958,5.2779,5.3658,5.405,5.512,5.5955,5.6276,5.6396,5.6396,5.6396,5.6396,5.6396,5.6396,5.6396,5.6396,5.6396,5.6396,5.6396,5.6396,5.641,5.641,5.6492,5.6546,5.664,5.6684,5.6865,5.6956,5.701,5.7087,5.7074,5.7112,5.7163,5.708,4.0676,4.1289,4.1852,4.2093,4.2109,4.2158,4.2253,4.246,4.2851,4.3174,4.3494,4.4097,4.4663,4.5142,4.5297,4.5595,4.5952,4.5732,4.5944,4.6548,4.6272,4.6431,4.6755,4.6169,4.5927,4.61,4.5686,4.5397,4.5397,4.5397,4.5397,4.5397,4.5397,4.5397,4.5432,4.5638,4.5776,4.5811,4.6031,4.6169,4.6121,4.5893,4.5927,4.5927,4.4941,4.416,4.3953,4.4389,4.4678,4.4734,4.5134,4.5397,4.5397,4.5638,4.579,4.5893,4.6548,4.7065,4.7376,4.8258,4.8893,4.9169,4.9651,4.9996,5.0011,5.012,5.0242,5.0383,5.0502,5.0653,5.0846,5.0908,5.0967,5.1154,5.1259,5.1376,5.1556,5.1622,5.1695,5.1708,5.1708,5.1792,5.2185,5.323,5.3979,5.4335,5.5598,5.6361,5.6396,5.6396,5.6396,5.6396,5.6396,5.6396,5.6396,5.6396,5.6396,5.6396,5.6396,5.6396,5.641,5.6424,5.6478,5.6559,5.6653,5.671,5.6829,5.7008,5.7087,5.7176,5.7176,5.715,5.7163,5.7176,5.708,4.1693,4.1357,4.1853,4.2238,4.2286,4.2412,4.2663,4.3178,4.3328,4.3757,4.4344,4.5076,4.5592,4.6014,4.6618,4.7255,4.7396,4.6804,4.6611,4.6858,4.7307,4.6893,4.61,4.6445,4.6272,4.5776,4.5535,4.5535,4.5604,4.5638,4.5638,4.5535,4.5638,4.5707,4.55,4.6272,4.6617,4.672,4.7169,4.7548,4.7582,4.6927,4.6893,4.741,4.6789,4.61,4.5445,4.5432,4.55,4.5397,4.5432,4.5432,4.5604,4.6203,4.6617,4.672,4.7307,4.8031,4.8603,4.881,4.9272,4.972,4.9976,4.9996,5.0025,5.0135,5.0257,5.0383,5.0551,5.0702,5.0859,5.0908,5.09,5.0927,5.118,5.1324,5.1367,5.1533,5.1708,5.1708,5.1708,5.2042,5.2791,5.3515,5.4215,5.4978,5.5812,5.6396,5.6396,5.6396,5.6396,5.6396,5.6396,5.6396,5.6396,5.6396,5.6396,5.6396,5.6396,5.6396,5.6424,5.6451,5.6559,5.6653,5.6829,5.692,5.6933,5.7061,5.7125,5.7188,5.7188,5.7188,5.7188,5.7188,5.7188,4.2066,4.2419,4.3078,4.3343,4.3358,4.3476,4.392,4.4519,4.4593,4.5042,4.5734,4.618,4.6515,4.6823,4.7267,4.7779,4.8396,4.8127,4.8058,4.8051,4.7858,4.8031,4.8272,4.7686,4.7238,4.7031,4.6996,4.6996,4.6948,4.6962,4.6996,4.6996,4.6962,4.6996,4.6927,4.7238,4.7376,4.7376,4.7582,4.7686,4.7686,4.7479,4.7479,4.7651,4.7479,4.7238,4.6996,4.6996,4.672,4.6272,4.6238,4.6238,4.6376,4.6927,4.7341,4.7445,4.8065,4.8513,4.881,4.9306,4.9686,4.9927,4.9996,4.9996,5.0025,5.0206,5.0327,5.0411,5.0655,5.0846,5.0908,5.0908,5.0954,5.1154,5.1259,5.1376,5.1508,5.1658,5.1695,5.1708,5.1708,5.2077,5.2791,5.3551,5.4371,5.5156,5.5919,5.6396,5.6396,5.6396,5.6396,5.6396,5.6396,5.6396,5.6396,5.6396,5.6396,5.6396,5.6396,5.6424,5.6451,5.6532,5.664,5.6799,5.6972,5.7074,5.7087,5.7125,5.7176,5.7188,5.7188,5.7188,5.7188,5.7188,5.7188,4.2855,4.3313,4.3761,4.4152,4.4382,4.4514,4.4989,4.5656,4.5782,4.6125,4.6619,4.7086,4.7427,4.7714,4.8126,4.8647,4.9223,4.9272,4.9238,4.9203,4.8824,4.8858,4.91,4.8203,4.7686,4.7686,4.7686,4.7686,4.7686,4.7686,4.7686,4.7686,4.7686,4.7686,4.7755,4.7996,4.8134,4.8134,4.841,4.8548,4.8479,4.8272,4.8238,4.8479,4.8272,4.8272,4.8513,4.8548,4.8065,4.7238,4.6996,4.6996,4.7065,4.7686,4.81,4.8238,4.8789,4.9238,4.9306,4.9686,4.9996,4.9996,4.9996,4.9996,5.0054,5.022,5.0313,5.0411,5.0606,5.0819,5.0908,5.0908,5.1008,5.1272,5.1298,5.1428,5.1645,5.1708,5.1708,5.1744,5.197,5.2506,5.3207,5.3992,5.4764,5.5513,5.6062,5.6396,5.6396,5.6396,5.6396,5.6396,5.6396,5.6396,5.6396,5.6396,5.6396,5.6396,5.6396,5.6451,5.6492,5.6626,5.6746,5.6907,5.7112,5.7125,5.7138,5.7163,5.7188,5.7188,5.7188,5.7188,5.7188,5.7188,5.7188,4.3912,4.4008,4.4106,4.4647,4.5261,4.5412,4.5909,4.6544,4.6764,4.6906,4.7187,4.7844,4.8279,4.8612,4.9184,4.9639,4.9947,4.9907,4.9858,4.9893,4.972,4.9341,4.8376,4.8169,4.8134,4.8031,4.7996,4.7962,4.81,4.8065,4.7824,4.8031,4.8065,4.7893,4.8134,4.8568,4.8893,4.8962,4.9548,4.9824,4.9824,4.9238,4.9169,4.9789,4.9238,4.9169,4.9651,4.972,4.9169,4.7996,4.7755,4.7755,4.7893,4.8479,4.8893,4.8893,4.9582,4.9824,4.9962,4.9927,4.9996,4.9996,4.9996,4.9996,5.0025,5.0163,5.0285,5.0383,5.0564,5.0716,5.0859,5.0935,5.1048,5.1259,5.1363,5.1444,5.167,5.1708,5.1756,5.1935,5.247,5.322,5.3907,5.4692,5.5419,5.6062,5.6347,5.6396,5.6396,5.6396,5.6396,5.6396,5.6396,5.6396,5.6396,5.6396,5.6396,5.6396,5.6396,5.6437,5.6505,5.664,5.6812,5.6997,5.7138,5.715,5.7176,5.7188,5.7188,5.7188,5.7188,5.7188,5.7188,5.7188,5.7188,4.4374,4.4871,4.5003,4.5499,4.6133,4.6349,4.6847,4.7489,4.7601,4.7902,4.8402,4.8931,4.9099,4.9276,4.9698,4.9967,4.9996,4.9996,4.9996,4.9996,4.9996,4.9824,4.9444,4.9375,4.9341,4.9306,4.9238,4.939,4.939,4.9272,4.9306,4.941,4.9272,4.9321,4.9459,4.9513,4.9686,4.9686,4.9824,4.9996,4.9962,4.9789,4.9789,4.9893,4.9755,4.9755,4.9996,4.9996,4.9582,4.8637,4.8513,4.8513,4.8582,4.9203,4.9617,4.9651,4.9824,4.9996,4.9996,4.9996,4.9996,4.9996,4.9996,4.9996,5.0011,5.022,5.0327,5.0439,5.062,5.0832,5.0887,5.1016,5.1154,5.1402,5.1553,5.1655,5.1719,5.1708,5.1899,5.247,5.2804,5.3564,5.4478,5.512,5.5562,5.6169,5.6396,5.6396,5.6396,5.6396,5.6396,5.6396,5.6396,5.6396,5.6396,5.6396,5.6396,5.6396,5.6396,5.6396,5.6478,5.6573,5.6773,5.6959,5.7036,5.7074,5.715,5.7188,5.7188,5.7188,5.7188,5.7188,5.7188,5.7188,5.7188,4.4903,4.532,4.5803,4.6401,4.7057,4.7214,4.7699,4.8259,4.836,4.8609,4.9055,4.9366,4.9515,4.9605,4.986,4.9996,4.9996,4.9996,4.9996,4.9996,4.9996,4.9962,4.9962,4.9996,4.9996,4.9996,4.9996,4.9962,4.9962,4.9996,4.9996,4.9927,4.9996,4.9996,4.9927,4.9996,4.9996,4.9962,4.9996,4.9996,4.9996,4.9996,4.9996,4.9996,4.9996,4.9996,4.9996,4.9996,4.9755,4.9375,4.9306,4.9306,4.9341,4.972,4.9996,4.9996,4.9996,4.9996,4.9996,4.9996,4.9996,4.9996,4.9996,5.004,5.0112,5.0249,5.0327,5.0509,5.0675,5.0805,5.09,5.1061,5.1259,5.1489,5.1917,5.2172,5.2208,5.222,5.2577,5.3184,5.3719,5.4099,5.5156,5.5455,5.5883,5.624,5.6396,5.6396,5.6396,5.6396,5.6396,5.6396,5.6396,5.6396,5.6396,5.6396,5.6396,5.6396,5.6396,5.6396,5.6492,5.6573,5.6773,5.692,5.6959,5.7023,5.7125,5.7188,5.7188,5.7188,5.7188,5.7188,5.7188,5.7188,5.7188,4.5606,4.5755,4.6558,4.7327,4.7954,4.8022,4.8376,4.8914,4.8948,4.9058,4.9245,4.9426,4.9575,4.9708,4.9889,4.9996,4.9996,4.9996,4.9996,4.9996,4.9996,4.9996,4.9996,4.9996,4.9996,4.9996,4.9996,4.9996,4.9996,4.9996,4.9996,4.9996,4.9996,4.9996,4.9996,4.9996,4.9996,4.9996,4.9996,4.9996,4.9996,4.9996,4.9996,4.9996,4.9996,4.9996,4.9996,4.9996,4.9927,4.9962,4.9996,4.9942,4.9927,4.9962,4.9996,4.9996,4.9996,4.9996,4.9996,4.9996,4.9996,4.9996,5.0025,5.0034,5.0149,5.0228,5.0369,5.0537,5.0598,5.0757,5.0976,5.1238,5.1563,5.1848,5.2488,5.2957,5.3113,5.3077,5.3314,5.4014,5.4764,5.512,5.5491,5.5883,5.6396,5.6311,5.6396,5.6396,5.6396,5.6396,5.6396,5.6396,5.6396,5.6396,5.6396,5.6396,5.6396,5.6396,5.6396,5.6424,5.6546,5.6653,5.6825,5.6956,5.6972,5.7049,5.715,5.7188,5.7188,5.7188,5.7188,5.7188,5.7188,5.7188,5.7188,4.6828,4.7387,4.7567,4.809,4.8714,4.8748,4.8911,4.9153,4.9153,4.9245,4.9426,4.959,4.9679,4.9723,4.9903,4.9996,4.9996,4.9996,4.9996,4.9996,4.9996,4.9996,4.9996,4.9996,4.9996,4.9996,4.9996,4.9996,4.9996,4.9996,4.9996,4.9996,4.9996,4.9996,4.9996,4.9996,4.9996,4.9996,4.9996,4.9996,4.9996,4.9996,4.9996,4.9996,4.9996,4.9996,4.9996,4.9996,4.9996,4.9996,4.9996,4.9996,4.9996,4.9996,4.9996,4.9996,4.9996,4.9996,4.9996,4.9996,4.9996,5.0011,5.0063,5.0135,5.0083,5.0341,5.0453,5.0523,5.0647,5.0873,5.1189,5.19,5.2293,5.2562,5.3223,5.4014,5.4407,5.4121,5.4157,5.4764,5.512,5.5441,5.6026,5.6133,5.6396,5.6396,5.6396,5.6396,5.6396,5.6396,5.6396,5.6396,5.6396,5.6396,5.6396,5.6396,5.6396,5.6396,5.6396,5.6437,5.6559,5.6644,5.6789,5.6894,5.6984,5.7074,5.7163,5.7188,5.7188,5.7188,5.7188,5.7188,5.7188,5.7188,5.7333,4.7564,4.7906,4.8259,4.8631,4.8984,4.9018,4.9061,4.9184,4.9199,4.935,4.956,4.9679,4.9737,4.9845,4.9933,4.9996,4.9996,4.9996,4.9996,4.9996,4.9996,4.9996,4.9996,4.9996,4.9996,4.9996,4.9996,4.9996,4.9996,4.9996,4.9996,4.9996,4.9996,4.9996,4.9996,4.9996,4.9996,4.9996,4.9996,4.9996,4.9996,4.9996,4.9996,4.9996,4.9996,4.9996,4.9996,4.9996,4.9996,4.9996,4.9996,4.9996,4.9996,4.9996,4.9996,4.9996,4.9996,4.9996,4.9996,4.9996,4.9996,4.9996,5.0063,5.0092,5.0135,5.0355,5.0495,5.0551,5.0786,5.1095,5.1697,5.2113,5.2683,5.3362,5.4082,5.4715,5.5013,5.4835,5.4871,5.5526,5.5776,5.599,5.624,5.6361,5.6396,5.6396,5.6396,5.6396,5.6396,5.6396,5.6396,5.6396,5.6396,5.6396,5.6396,5.6396,5.6396,5.6396,5.6396,5.6465,5.6573,5.668,5.6763,5.6917,5.707,5.7074,5.715,5.7163,5.7224,5.7224,5.7224,5.7188,5.7261,5.7369,5.7623,4.809,4.8154,4.8778,4.9031,4.9046,4.9111,4.9168,4.9275,4.9275,4.9486,4.9693,4.9737,4.986,4.9982,4.9996,4.9996,4.9996,4.9996,4.9996,4.9996,4.9996,4.9996,4.9996,4.9996,4.9996,4.9996,4.9996,4.9996,4.9996,4.9996,4.9996,4.9996,4.9996,4.9996,4.9996,4.9996,4.9996,4.9996,4.9996,4.9996,4.9996,4.9996,4.9996,4.9996,4.9996,4.9996,4.9996,4.9996,4.9996,4.9996,4.9996,4.9996,4.9996,4.9996,4.9996,4.9996,4.9996,4.9996,4.9996,4.9996,4.9996,4.9996,5.0068,5.0112,5.0178,5.0376,5.0635,5.0934,5.1247,5.1831,5.2533,5.3029,5.342,5.4065,5.488,5.5299,5.5384,5.5384,5.574,5.6097,5.6204,5.6276,5.6311,5.6396,5.6396,5.6396,5.6396,5.6396,5.6396,5.6396,5.6396,5.6396,5.6396,5.6396,5.6396,5.6525,5.649,5.6789,5.6682,5.6871,5.7002,5.7393,5.7572,5.7123,5.7144,5.728,5.7391,5.7502,5.7478,5.7333,5.7514,5.7732,5.7732,5.7587,5.7985,4.8877,4.8999,4.9085,4.926,4.9396,4.9396,4.9471,4.9605,4.959,4.9757,4.9903,4.9967,4.9967,4.9996,4.9996,4.9996,4.9996,4.9996,4.9996,4.9996,4.9996,4.9996,4.9996,4.9996,4.9996,4.9996,4.9996,4.9996,4.9996,4.9996,4.9996,4.9996,4.9996,4.9996,4.9996,4.9996,4.9996,4.9996,4.9996,4.9996,4.9996,4.9996,4.9996,4.9996,4.9996,4.9996,4.9996,4.9996,4.9996,4.9996,4.9996,4.9996,4.9996,4.9996,4.9996,4.9996,4.9996,4.9996,4.9996,4.9996,4.9996,5.0054,5.0149,5.0198,5.0226,5.0565,5.1032,5.1598,5.2271,5.3013,5.3237,5.3853,5.4535,5.5021,5.5544,5.6097,5.6133,5.6133,5.6133,5.6361,5.6396,5.6396,5.6396,5.6396,5.6396,5.6396,5.6396,5.6396,5.6396,5.6396,5.6396,5.6396,5.6396,5.6396,5.6396,5.6561,5.674,5.7289,5.7445,5.7715,5.7977,5.847,5.8501,5.7939,5.7735,5.7921,5.7959,5.7985,5.8094,5.8202,5.8311,5.842,5.8492,5.8565,5.8891,4.9061,4.9199,4.9199,4.9305,4.9505,4.9486,4.9575,4.9693,4.9708,4.9796,4.9933,4.9996,4.9996,4.9996,4.9996,4.9996,4.9996,4.9996,4.9996,4.9996,4.9996,4.9996,4.9996,4.9996,4.9996,4.9996,4.9996,4.9996,4.9996,4.9996,4.9996,4.9996,4.9996,4.9996,4.9996,4.9996,4.9996,4.9996,4.9996,4.9996,4.9996,4.9996,4.9996,4.9996,4.9996,4.9996,4.9996,4.9996,4.9996,4.9996,4.9996,4.9996,4.9996,4.9996,4.9996,4.9996,4.9996,4.9996,4.9996,4.9996,4.9996,5.0011,5.0169,5.0362,5.0605,5.1029,5.1654,5.2362,5.2839,5.3597,5.4097,5.4701,5.5158,5.5681,5.6141,5.6347,5.6396,5.6396,5.6396,5.6396,5.6396,5.6396,5.6396,5.6396,5.6396,5.6396,5.6396,5.6396,5.6396,5.6504,5.6575,5.674,5.6882,5.7168,5.7168,5.7239,5.7404,5.7882,5.816,5.843,5.8671,5.905,5.8987,5.8641,5.8602,5.8849,5.8828,5.8927,5.8999,5.9035,5.9072,5.9167,5.9384,5.9602,5.9891,4.9187,4.926,4.929,4.9411,4.9594,4.9609,4.9649,4.9737,4.9752,4.986,4.9982,4.9996,4.9996,4.9996,4.9996,4.9996,4.9996,4.9996,4.9996,4.9996,4.9996,4.9996,4.9996,4.9996,4.9996,4.9996,4.9996,4.9996,4.9996,4.9996,4.9996,4.9996,4.9996,4.9996,4.9996,4.9996,4.9996,4.9996,4.9996,4.9996,4.9996,4.9996,4.9996,4.9996,4.9996,4.9996,4.9996,4.9996,4.9996,4.9996,4.9996,4.9996,4.9996,4.9996,4.9996,4.9996,4.9996,4.9996,4.9996,4.9996,5.0065,5.0306,5.0281,5.0675,5.1351,5.1946,5.2534,5.3267,5.3838,5.4225,5.4895,5.5169,5.5626,5.6092,5.6347,5.6396,5.6396,5.6396,5.6396,5.6396,5.6396,5.6396,5.6396,5.6396,5.6396,5.6396,5.6396,5.6396,5.6468,5.6789,5.6968,5.7239,5.7525,5.7975,5.8153,5.8224,5.8438,5.8795,5.8895,5.9059,5.9208,5.9392,5.9429,5.9651,5.9908,6.012,5.997,5.9783,5.9832,5.9868,5.9855,6.0036,6.0435,6.0579,6.0724,4.9441,4.9471,4.9575,4.9772,4.9938,4.9889,4.9952,4.9967,4.9952,4.9982,4.9996,4.9996,4.9996,4.9996,4.9996,4.9996,4.9996,4.9996,4.9996,4.9996,4.9996,4.9996,4.9996,4.9996,4.9996,4.9996,4.9996,4.9996,4.9996,4.9996,4.9996,4.9996,4.9996,4.9996,4.9996,4.9996,4.9996,4.9996,4.9996,4.9996,4.9996,4.9996,4.9996,5.0065,5.0065,5.0168,5.0237,5.0306,5.0252,5.0183,5.0114,5.0031,4.9996,4.9996,4.9996,4.9996,4.9996,4.9996,5.0065,5.0134,5.0444,5.0853,5.1045,5.1548,5.2304,5.3177,5.381,5.4109,5.4809,5.5305,5.5568,5.59,5.616,5.6292,5.6396,5.6396,5.6396,5.6396,5.6396,5.6396,5.6396,5.6396,5.6396,5.6396,5.6396,5.6396,5.6432,5.6468,5.6682,5.711,5.7753,5.8131,5.8331,5.8759,5.9188,5.9259,5.9366,5.9723,5.9602,5.9645,5.9981,6.0252,6.0768,6.1038,6.1165,6.091,6.0449,6.0372,6.0579,6.0652,6.0652,6.1086,6.1666,6.1666,6.1448,4.956,4.9486,4.9545,4.9757,4.9996,4.9996,4.9996,4.9996,4.9996,4.9996,4.9996,4.9996,4.9996,4.9996,4.9996,4.9996,4.9996,4.9996,4.9996,4.9996,4.9996,4.9996,4.9996,4.9996,4.9996,4.9996,4.9996,4.9996,4.9996,4.9996,4.9996,4.9996,4.9996,4.9996,4.9996,4.9996,4.9996,4.9996,4.9996,4.9996,4.9996,5.0031,5.0203,5.0617,5.0617,5.0824,5.1099,5.1237,5.1237,5.1237,5.1237,5.1237,5.1237,5.1272,5.1272,5.1272,5.1272,5.1099,5.072,5.0651,5.103,5.1558,5.1954,5.2409,5.3301,5.4146,5.4749,5.5001,5.548,5.5815,5.5929,5.6148,5.6273,5.6369,5.6396,5.6396,5.6396,5.6396,5.6396,5.6396,5.6432,5.6468,5.6504,5.6575,5.6611,5.6611,5.686,5.7146,5.7382,5.7846,5.851,5.9223,5.9402,5.958,6.0058,6.0344,6.0308,6.043,5.9996,6.0175,6.0834,6.1271,6.1457,6.16,6.1562,6.1248,6.0833,6.0996,6.1277,6.1399,6.1485,6.1738,6.1955,6.1955,6.1774,4.9619,4.9486,4.953,4.9728,4.9996,4.9996,4.9996,4.9996,4.9996,4.9996,4.9996,4.9996,4.9996,4.9996,4.9996,4.9996,4.9996,4.9996,4.9996,4.9996,4.9996,4.9996,4.9996,4.9996,4.9996,4.9996,4.9996,4.9996,4.9996,4.9996,4.9996,4.9996,4.9996,4.9996,4.9996,5.0031,5.0065,5.0375,5.0582,5.0686,5.0666,5.0651,5.0927,5.1203,5.1444,5.1651,5.2099,5.2134,5.2134,5.2099,5.203,5.1996,5.203,5.1961,5.1981,5.1961,5.1961,5.1996,5.1686,5.1651,5.1824,5.2332,5.2972,5.353,5.4196,5.4934,5.5259,5.5373,5.5665,5.5844,5.5993,5.6203,5.6342,5.6383,5.6396,5.6396,5.6396,5.6396,5.6396,5.6396,5.6468,5.6646,5.6718,5.6753,5.6775,5.6811,5.7182,5.7717,5.8238,5.8688,5.9259,6.0008,6.0186,6.0293,6.0558,6.095,6.1058,6.1016,6.0582,6.0562,6.1143,6.13,6.1307,6.15,6.1728,6.164,6.1307,6.1629,6.195,6.1819,6.1774,6.1883,6.1992,6.2028,6.2028,4.9619,4.952,4.9634,4.9816,4.9996,4.9996,4.9996,4.9996,4.9996,4.9996,4.9996,4.9996,4.9996,4.9996,4.9996,4.9996,4.9996,4.9996,4.9996,4.9996,4.9996,4.9996,4.9996,4.9996,4.9996,4.9996,4.9996,4.9996,4.9996,4.9996,4.9996,4.9996,4.9996,4.9996,5.0134,5.0355,5.0617,5.103,5.1444,5.1755,5.1789,5.1824,5.1961,5.2065,5.2134,5.2168,5.2237,5.241,5.2479,5.2513,5.2548,5.2548,5.2617,5.2582,5.2617,5.2617,5.2582,5.272,5.2823,5.2548,5.2632,5.3299,5.3987,5.4528,5.489,5.5074,5.5309,5.5507,5.5764,5.5886,5.6035,5.6175,5.6369,5.6396,5.6396,5.6396,5.6396,5.6396,5.6396,5.6396,5.6611,5.6932,5.7311,5.7453,5.7489,5.756,5.7953,5.8502,5.9238,5.9758,6.0165,6.0629,6.0843,6.0915,6.095,6.1093,6.1093,6.1123,6.0896,6.0933,6.1221,6.1272,6.1293,6.1401,6.1651,6.1708,6.1778,6.1812,6.1882,6.1964,6.2028,6.2028,6.2028,6.2028,6.2028,4.9664,4.9634,4.9679,4.9816,4.9996,4.9996,4.9996,4.9996,4.9996,4.9996,4.9996,4.9996,4.9996,4.9996,4.9996,4.9996,4.9996,4.9996,4.9996,4.9996,4.9996,4.9996,4.9996,4.9996,4.9996,4.9996,4.9996,4.9996,4.9996,4.9996,4.9996,4.9996,5.0065,5.0341,5.0562,5.103,5.1479,5.1686,5.203,5.2203,5.2203,5.2237,5.2444,5.2942,5.2927,5.3203,5.3548,5.3616,5.3616,5.3582,5.3548,5.3479,5.3444,5.3479,5.3479,5.3479,5.3444,5.3667,5.3804,5.3425,5.3368,5.4125,5.4726,5.5113,5.5214,5.5309,5.5443,5.5619,5.5779,5.5901,5.6106,5.6259,5.6396,5.6396,5.6396,5.6396,5.6504,5.6575,5.6847,5.7061,5.7239,5.7525,5.7917,5.826,5.826,5.8331,5.8809,5.9309,6.0023,6.0487,6.0736,6.0879,6.1022,6.1093,6.1093,6.1093,6.1093,6.1123,6.1152,6.1211,6.1285,6.1458,6.1487,6.153,6.1537,6.1623,6.1694,6.1728,6.1826,6.195,6.1992,6.2028,6.2028,6.2028,6.2028,4.9737,4.9708,4.9752,4.9874,4.9996,4.9996,4.9996,4.9996,4.9996,4.9996,4.9996,4.9996,4.9996,4.9996,4.9996,4.9996,4.9996,4.9996,4.9996,4.9996,4.9996,4.9996,4.9996,4.9996,4.9996,4.9996,4.9996,4.9996,4.9996,4.9996,5.0168,5.0306,5.0341,5.07,5.1134,5.203,5.2548,5.2548,5.2823,5.2858,5.2927,5.2961,5.3099,5.3701,5.372,5.3892,5.4203,5.4287,5.4322,5.4356,5.4391,5.4425,5.446,5.4494,5.4494,5.4494,5.4494,5.4494,5.4356,5.42,5.4086,5.4684,5.488,5.5113,5.5294,5.5383,5.5428,5.5663,5.5836,5.5993,5.6197,5.6336,5.6383,5.6396,5.6396,5.6432,5.6825,5.7003,5.7418,5.7774,5.7989,5.8203,5.8881,5.9259,5.9259,5.933,5.9737,6.013,6.0522,6.0879,6.095,6.1022,6.1058,6.1093,6.1093,6.1093,6.1093,6.1108,6.1138,6.1167,6.127,6.1415,6.1444,6.1343,6.1357,6.1487,6.1637,6.1736,6.1826,6.1964,6.1978,6.2028,6.2028,6.2028,6.2028,4.9874,4.9737,4.9923,4.9996,4.9996,4.9996,4.9996,4.9996,4.9996,4.9996,4.9996,4.9996,4.9996,4.9996,4.9996,4.9996,4.9996,4.9996,4.9996,4.9996,4.9996,4.9996,4.9996,4.9996,4.9996,4.9996,4.9996,4.9996,4.9996,5.0168,5.0479,5.0927,5.1134,5.1321,5.1341,5.2617,5.3322,5.346,5.403,5.4134,5.4134,5.4115,5.4184,5.4253,5.4272,5.4391,5.446,5.4494,5.4494,5.4494,5.4494,5.4494,5.4494,5.4494,5.4494,5.4494,5.4494,5.4494,5.4494,5.446,5.4648,5.4865,5.4961,5.5148,5.5374,5.5398,5.5458,5.5779,5.5893,5.6021,5.6162,5.6322,5.6355,5.6575,5.6611,5.6847,5.7289,5.756,5.7989,5.8524,5.8724,5.9009,5.9758,6.0308,6.0272,6.0415,6.0736,6.0986,6.1058,6.1093,6.1093,6.1093,6.1093,6.1093,6.1093,6.1093,6.1093,6.1093,6.1108,6.1152,6.1152,6.1211,6.1197,6.1138,6.1285,6.1523,6.1637,6.1722,6.1862,6.195,6.1978,6.2028,6.2028,6.2064,6.21,4.9874,4.9723,4.9903,4.9996,4.9996,4.9996,4.9996,4.9996,4.9996,4.9996,4.9996,4.9996,4.9996,4.9996,4.9996,4.9996,4.9996,4.9996,4.9996,4.9996,4.9996,4.9996,4.9996,4.9996,4.9996,4.9996,4.9996,4.9996,4.9996,5.039,5.0755,5.1168,5.2099,5.2597,5.2873,5.3632,5.4149,5.4149,5.4391,5.4494,5.4494,5.4494,5.4494,5.4494,5.4494,5.4494,5.4494,5.4494,5.4494,5.4494,5.4494,5.4494,5.4494,5.4494,5.4494,5.4494,5.4494,5.4494,5.4557,5.4652,5.4807,5.4965,5.5118,5.5269,5.5478,5.5531,5.5706,5.5893,5.5979,5.6134,5.6336,5.6377,5.6525,5.7146,5.736,5.7703,5.806,5.826,5.8581,5.9188,5.9544,5.9865,6.0522,6.0701,6.0701,6.0736,6.095,6.1022,6.1093,6.1093,6.1093,6.1093,6.1093,6.1093,6.1093,6.1093,6.1093,6.1093,6.1093,6.1108,6.1108,6.1093,6.1167,6.1211,6.1357,6.1552,6.1651,6.175,6.1862,6.1923,6.2081,6.2195,6.2173,6.2245,6.2281,4.9903,4.983,4.9933,4.9996,4.9996,4.9996,4.9996,4.9996,4.9996,4.9996,4.9996,4.9996,4.9996,4.9996,4.9996,4.9996,4.9996,4.9996,4.9996,4.9996,4.9996,4.9996,4.9996,4.9996,4.9996,4.9996,5.0031,5.008,5.0444,5.0873,5.1444,5.2203,5.3099,5.3548,5.3892,5.4203,5.446,5.4425,5.4494,5.4494,5.4494,5.4494,5.4494,5.4494,5.4494,5.4494,5.4494,5.4494,5.4494,5.4494,5.4494,5.4494,5.4494,5.4494,5.4494,5.4494,5.4494,5.4542,5.4714,5.4823,5.4946,5.4992,5.5249,5.5383,5.5493,5.5552,5.575,5.5936,5.6113,5.6466,5.6734,5.6726,5.7132,5.7753,5.8096,5.8403,5.8866,5.9116,5.9366,5.9937,6.0293,6.0701,6.0915,6.0986,6.0986,6.1022,6.1093,6.1093,6.1093,6.1093,6.1093,6.1093,6.1093,6.1093,6.1093,6.1093,6.1093,6.1093,6.1093,6.1093,6.1093,6.1108,6.1197,6.1234,6.1357,6.1473,6.1644,6.1792,6.2035,6.2257,6.2424,6.2466,6.2412,6.2493,6.261,4.9996,4.9996,4.9996,4.9996,4.9996,4.9996,4.9996,4.9996,4.9996,4.9996,4.9996,4.9996,4.9996,4.9996,4.9996,4.9996,4.9996,4.9996,4.9996,4.9996,4.9996,4.9996,4.9996,4.9996,4.9996,4.9996,5.0065,5.0321,5.0962,5.1513,5.2218,5.3184,5.3927,5.4237,5.4375,5.441,5.4494,5.4494,5.4494,5.4494,5.4494,5.4494,5.4494,5.4494,5.4494,5.4494,5.4494,5.4494,5.4494,5.4494,5.4494,5.4494,5.4494,5.4494,5.4494,5.4494,5.4494,5.4717,5.4853,5.4961,5.5113,5.5174,5.5244,5.5354,5.5472,5.564,5.5928,5.6142,5.6397,5.6929,5.7376,5.7639,5.7917,5.8331,5.8724,5.9188,5.9758,6.0079,6.0293,6.0629,6.0843,6.1058,6.1022,6.1093,6.1093,6.1093,6.1093,6.1093,6.1093,6.1093,6.1093,6.1093,6.1093,6.1093,6.1093,6.1093,6.1093,6.1093,6.1093,6.1093,6.1093,6.1108,6.1182,6.1255,6.1278,6.1516,6.1982,6.2253,6.241,6.2641,6.2982,6.3026,6.3068,6.3062,6.3214,4.9996,4.9996,4.9996,4.9996,4.9996,4.9996,4.9996,4.9996,4.9996,4.9996,4.9996,4.9996,4.9996,4.9996,4.9996,4.9996,4.9996,4.9996,4.9996,4.9996,4.9996,4.9996,4.9996,4.9996,4.9996,4.9996,5.0114,5.0493,5.1272,5.1961,5.308,5.4115,5.4356,5.4494,5.4494,5.4494,5.4494,5.4494,5.4494,5.4494,5.4494,5.4494,5.4494,5.4494,5.4494,5.4494,5.4494,5.4494,5.4494,5.4494,5.4494,5.4494,5.4494,5.4494,5.4494,5.4545,5.4623,5.478,5.4888,5.5037,5.5199,5.5383,5.5487,5.5561,5.5677,5.5934,5.6269,5.6532,5.6915,5.7555,5.8089,5.8424,5.8831,5.9259,5.958,5.9865,6.038,6.0594,6.0843,6.0879,6.1093,6.1093,6.1093,6.1093,6.1093,6.1093,6.1093,6.1093,6.1093,6.1093,6.1093,6.1093,6.1093,6.1093,6.1093,6.1093,6.1093,6.1093,6.1093,6.1093,6.1093,6.1123,6.1182,6.1377,6.173,6.2155,6.2594,6.2787,6.296,6.3437,6.3791,6.3747,6.3704,6.3747,6.3948,4.9996,4.9996,4.9996,4.9996,4.9996,4.9996,4.9996,4.9996,4.9996,4.9996,4.9996,4.9996,4.9996,4.9996,4.9996,4.9996,4.9996,4.9996,4.9996,4.9996,4.9996,4.9996,4.9996,4.9996,4.9996,5.008,5.039,5.0893,5.172,5.2961,5.4149,5.4391,5.4494,5.4494,5.4494,5.4494,5.4494,5.4494,5.4494,5.4494,5.4494,5.4494,5.4494,5.4494,5.4494,5.4494,5.4494,5.4494,5.4494,5.451,5.4526,5.4576,5.4576,5.4576,5.4623,5.467,5.4795,5.4884,5.5007,5.5094,5.5339,5.5531,5.5742,5.5976,5.6246,5.6509,5.6815,5.7093,5.7655,5.8203,5.8731,5.9259,5.9758,6.0293,6.0451,6.0594,6.0808,6.1022,6.1093,6.1058,6.1093,6.1093,6.1093,6.1093,6.1093,6.1093,6.1093,6.1093,6.1093,6.1093,6.1093,6.1093,6.1093,6.1093,6.1093,6.1093,6.1093,6.1093,6.1093,6.1093,6.1093,6.1215,6.1388,6.1836,6.2335,6.2774,6.3264,6.3401,6.361,6.4093,6.4495,6.4498,6.4504,6.4513,6.4837,4.9996,4.9996,4.9996,4.9996,4.9996,4.9996,4.9996,4.9996,4.9996,4.9996,4.9996,4.9996,4.9996,4.9996,4.9996,4.9996,4.9996,4.9996,4.9996,4.9996,4.9996,4.9996,4.9996,4.9996,5.0134,5.0341,5.0755,5.1341,5.2444,5.3548,5.4356,5.4494,5.4494,5.4494,5.4494,5.4494,5.4494,5.4494,5.4494,5.4494,5.4494,5.4494,5.4494,5.4494,5.4494,5.4494,5.4494,5.4494,5.4494,5.4557,5.4655,5.4686,5.4702,5.4717,5.478,5.4826,5.4934,5.5022,5.5129,5.5214,5.5408,5.5648,5.5935,5.6411,5.6815,5.7,5.7242,5.7953,5.8559,5.913,5.9708,5.9937,6.0365,6.0665,6.0808,6.0879,6.095,6.1093,6.1093,6.1093,6.1093,6.1093,6.1093,6.1093,6.1093,6.1093,6.1093,6.1093,6.1093,6.1093,6.1093,6.1093,6.1093,6.1093,6.1093,6.1093,6.1093,6.1093,6.12,6.1343,6.1521,6.1593,6.1628,6.2242,6.2913,6.3439,6.3858,6.4048,6.4315,6.4791,6.5079,6.5222,6.5258,6.5192,6.5377,4.9996,4.9996,4.9996,4.9996,4.9996,4.9996,4.9996,4.9996,4.9996,4.9996,4.9996,4.9996,4.9996,4.9996,4.9996,4.9996,4.9996,4.9996,4.9996,4.9996,4.9996,4.9996,4.9996,4.9996,5.0287,5.072,5.1203,5.1908,5.308,5.4011,5.4494,5.4494,5.4494,5.4494,5.4494,5.4494,5.4494,5.4494,5.4494,5.4529,5.4545,5.4529,5.4494,5.4494,5.4494,5.4494,5.4494,5.4545,5.4623,5.4717,5.4764,5.4826,5.4884,5.4915,5.493,5.4961,5.4992,5.5113,5.5184,5.5354,5.5596,5.604,5.6468,5.7,5.7349,5.7448,5.7875,5.8722,5.9484,6.0056,6.0472,6.065,6.0808,6.095,6.1093,6.1093,6.1093,6.1093,6.1093,6.1093,6.1093,6.1093,6.1093,6.1093,6.1093,6.1093,6.1093,6.1093,6.1093,6.1093,6.1093,6.1093,6.1093,6.1093,6.1093,6.1272,6.1343,6.1557,6.1736,6.1843,6.1985,6.2414,6.277,6.301,6.3494,6.4107,6.4542,6.472,6.5063,6.5376,6.5493,6.5538,6.5582,6.5522,6.5723,4.9996,4.9996,4.9996,4.9996,4.9996,4.9996,4.9996,4.9996,4.9996,4.9996,4.9996,4.9996,4.9996,4.9996,4.9996,4.9996,4.9996,4.9996,4.9996,4.9996,4.9996,4.9996,4.9996,5.0031,5.0479,5.0962,5.1927,5.2804,5.377,5.4184,5.4494,5.4494,5.4494,5.4529,5.4529,5.4494,5.4494,5.4494,5.4494,5.456,5.4592,5.4576,5.4592,5.4592,5.4576,5.4542,5.4639,5.4639,5.4702,5.4795,5.4857,5.4961,5.5053,5.5113,5.5068,5.5068,5.5113,5.5219,5.5274,5.5507,5.5853,5.6438,5.6858,5.7377,5.8666,5.8838,5.8859,5.9614,6.0199,6.0757,6.0808,6.095,6.095,6.1058,6.1093,6.1093,6.1093,6.1093,6.1093,6.1093,6.1093,6.1093,6.1093,6.1093,6.1093,6.1093,6.1093,6.1093,6.1093,6.1129,6.1129,6.12,6.1236,6.1165,6.1129,6.1414,6.1786,6.1985,6.2271,6.2592,6.2877,6.3484,6.3964,6.403,6.4291,6.4854,6.5269,6.5295,6.5428,6.5661,6.5736,6.5828,6.58,6.5688,6.5572,4.9996,4.9996,4.9996,4.9996,4.9996,4.9996,4.9996,4.9996,4.9996,4.9996,4.9996,4.9996,4.9996,4.9996,4.9996,4.9996,4.9996,4.9996,4.9996,4.9996,4.9996,4.9996,5.0031,5.0183,5.0858,5.1789,5.2839,5.3563,5.4356,5.4494,5.4494,5.4494,5.4529,5.4545,5.4529,5.451,5.4542,5.4526,5.4576,5.4655,5.4655,5.4655,5.4702,5.4702,5.467,5.4655,5.4749,5.483,5.483,5.4919,5.5011,5.5129,5.5219,5.5264,5.5249,5.5234,5.5344,5.5383,5.5493,5.5795,5.6372,5.6935,5.7313,5.8189,5.953,5.9937,6.0008,6.0258,6.0808,6.1022,6.1058,6.1093,6.1093,6.1093,6.1093,6.1093,6.1093,6.1093,6.1093,6.1093,6.1093,6.1093,6.1093,6.1093,6.1093,6.1093,6.1093,6.1093,6.1129,6.12,6.1236,6.1414,6.1593,6.145,6.1343,6.1843,6.2414,6.2679,6.3,6.3377,6.3805,6.4412,6.4769,6.4856,6.5189,6.5486,6.5629,6.5676,6.5812,6.5816,6.5816,6.58,6.5704,6.5542,6.5162,4.9996,4.9996,4.9996,4.9996,4.9996,4.9996,4.9996,4.9996,4.9996,4.9996,4.9996,4.9996,4.9996,4.9996,4.9996,4.9996,4.9996,4.9996,4.9996,4.9996,4.9996,4.9996,5.0203,5.0651,5.1735,5.2735,5.3632,5.4253,5.4494,5.4494,5.4529,5.4545,5.4686,5.4655,5.451,5.4557,5.4639,5.4608,5.467,5.4764,5.4795,5.4811,5.4823,5.4857,5.4826,5.4795,5.478,5.483,5.4873,5.5026,5.5259,5.5394,5.5369,5.5398,5.5413,5.5443,5.5537,5.5695,5.5853,5.6337,5.6971,5.7568,5.816,5.9165,6.013,6.0558,6.0629,6.0701,6.1058,6.1058,6.1093,6.1093,6.1093,6.1093,6.1093,6.1093,6.1093,6.1093,6.1093,6.1093,6.1093,6.1093,6.1093,6.1093,6.1093,6.1093,6.1093,6.1129,6.1307,6.1343,6.1379,6.1736,6.2057,6.2072,6.2143,6.2735,6.3234,6.3464,6.3785,6.4269,6.4769,6.5304,6.5554,6.5427,6.5463,6.5693,6.58,6.5867,6.5836,6.582,6.582,6.5772,6.5607,6.5332,6.4895]}]]